GFSSGP_sfc_temp_003.txt.gz
Temp
65 69 70 70 58 52 48 58 64 61 61 68 67 66 61 62 60 54 68 71 72 71 72 73 73 74 74 74 74 74 75 75 75 75 74 74 74 74 74 73 74 74 75 75 75 74 74 73 72
70 72 70 61 51 47 52 63 61 65 67 71 71 69 65 61 66 65 67 72 72 71 72 73 73 73 74 74 74 74 75 75 74 74 74 74 74 73 73 73 73 74 74 74 74 74 72 71 70
69 72 65 58 48 45 50 61 64 68 71 71 67 70 67 63 67 66 70 72 72 70 72 72 72 73 73 73 73 74 74 74 73 73 74 74 73 73 73 72 72 73 73 74 73 72 71 70 69
67 65 63 55 51 54 60 63 66 67 71 73 69 64 70 70 68 69 72 72 70 69 70 71 71 72 73 73 73 73 72 72 72 73 73 73 73 73 72 72 72 72 72 72 72 71 70 69 69
63 59 54 51 54 59 64 68 68 66 66 68 69 63 64 68 72 71 71 72 70 70 71 71 70 71 72 73 72 72 71 71 72 72 72 72 72 72 71 70 71 70 70 70 70 70 69 69 69
59 57 50 49 56 66 68 68 67 65 67 67 66 64 61 69 69 70 71 73 75 72 72 71 71 71 71 72 71 70 70 71 71 71 71 71 71 70 70 70 70 70 70 69 70 69 69 69 69
53 53 50 54 58 63 67 70 66 65 65 65 70 59 61 65 66 70 72 73 74 74 73 72 72 71 70 69 69 69 70 70 70 70 70 70 69 69 70 70 70 70 69 70 70 69 69 69 68
59 56 50 57 57 60 70 68 65 67 62 71 70 58 56 64 67 68 70 70 71 71 71 69 67 67 66 66 68 68 69 69 69 69 69 68 69 69 70 69 69 70 70 70 70 69 69 69 68
60 51 48 56 60 63 69 65 65 68 66 66 66 65 70 68 67 65 64 65 65 65 64 64 65 65 64 65 67 68 69 69 68 68 68 66 64 64 65 67 68 69 68 69 69 68 68 67 67
57 48 54 64 67 64 66 67 67 64 61 61 63 67 69 67 66 63 63 62 62 62 63 63 63 63 64 69 65 64 66 65 64 65 65 64 63 63 65 66 67 68 68 68 68 68 67 66 59
56 55 62 64 70 73 67 64 63 61 56 61 62 63 66 65 65 65 65 66 65 66 66 65 63 63 63 65 63 62 63 63 63 64 63 63 64 62 62 61 61 61 64 61 63 62 61 60 59
55 63 63 65 68 66 65 65 63 59 64 67 70 68 67 66 67 67 66 66 65 65 67 67 64 63 62 63 63 63 63 62 63 63 64 61 61 60 59 59 59 59 58 58 59 58 59 58 59
59 60 61 64 66 64 66 63 64 59 64 69 71 69 68 68 68 69 70 70 68 68 68 67 65 65 64 63 62 62 62 64 64 63 63 62 61 60 59 59 59 58 58 58 58 58 58 58 58
64 60 60 61 63 63 63 59 59 60 63 66 68 68 68 69 69 66 66 66 68 71 69 66 67 65 65 62 62 62 62 63 63 63 62 63 61 59 59 59 59 58 57 57 57 57 56 56 56
63 58 58 58 58 58 62 54 55 61 64 65 67 68 66 68 68 68 67 66 68 70 69 65 64 64 63 64 63 61 61 63 61 61 63 63 61 59 59 58 58 57 57 57 56 55 55 55 56
58 54 50 58 60 59 59 51 58 61 62 61 61 61 63 63 62 63 64 66 65 65 66 66 67 63 63 62 60 59 59 58 59 59 59 61 62 60 58 57 57 56 55 55 54 54 54 53 52
51 45 48 53 61 57 56 50 58 58 60 56 56 56 59 58 58 59 60 61 61 63 66 64 65 64 62 60 59 57 57 57 58 58 58 59 59 59 56 56 54 54 54 52 52 52 52 50 50
46 48 42 51 55 56 51 49 52 54 55 52 51 54 55 55 55 59 58 59 59 59 61 60 60 60 58 58 56 56 56 56 56 57 58 58 58 57 56 54 53 53 52 51 50 50 50 50 49
54 50 50 49 57 51 47 47 49 52 54 52 53 53 54 55 56 58 58 58 60 57 58 58 58 58 58 55 55 54 53 54 54 56 56 55 55 56 53 51 51 51 50 49 49 48 48 49 47
55 51 48 54 56 52 49 47 50 53 52 53 53 53 54 55 57 57 57 57 55 56 58 57 57 57 57 55 53 53 53 53 57 58 57 55 54 53 54 51 50 49 48 48 47 46 46 45 45
51 48 49 50 52 53 52 47 49 54 54 55 54 53 54 54 54 56 56 54 55 56 56 58 57 57 57 56 55 54 54 53 53 51 50 51 52 52 51 50 48 47 46 45 45 44 43 42 43
47 54 54 52 47 41 48 34 44 48 49 51 52 53 53 56 56 56 55 54 55 54 55 56 58 57 58 56 55 54 53 52 49 48 48 49 50 49 50 48 47 45 44 43 44 44 41 41 39
52 55 52 52 45 44 44 38 41 49 45 48 49 53 55 53 55 54 55 56 54 54 54 55 57 58 57 56 54 52 50 48 47 46 47 47 47 47 48 47 47 45 43 42 41 41 40 40 38
58 53 50 47 44 33 43 40 39 43 47 49 51 53 55 52 51 54 56 56 55 53 52 53 55 56 56 54 52 50 48 46 45 45 46 46 46 46 47 48 45 43 42 41 40 40 40 38 38
53 46 35 35 30 30 45 41 41 50 52 52 52 51 51 52 54 56 56 52 52 50 51 54 53 51 50 49 48 47 46 46 47 47 46 48 48 47 45 43 42 41 42 41 40 39 38 37 35
48 46 34 31 26 35 44 36 42 51 55 56 54 53 52 54 52 50 50 50 50 51 50 51 51 50 50 50 49 48 49 48 48 51 50 46 44 43 42 42 42 42 42 41 40 38 37 36 34
48 41 47 36 33 31 35 41 49 51 51 53 54 53 48 48 49 50 50 50 50 50 50 50 50 50 50 50 49 50 51 50 48 47 44 42 42 45 42 43 44 43 43 41 39 38 36 35 34
52 53 40 34 28 25 33 35 37 45 48 51 48 46 47 48 49 49 49 49 50 50 49 49 49 48 48 47 47 49 47 46 45 44 43 42 43 46 45 45 42 42 43 42 38 36 36 35 33
48 45 42 40 32 26 23 33 45 48 49 47 45 47 47 46 47 48 49 50 49 48 48 46 46 46 45 45 45 44 45 45 44 42 42 42 43 43 42 44 43 43 41 40 38 36 37 35 33
49 45 43 30 33 28 25 33 48 48 49 48 47 47 46 47 47 49 49 49 49 46 45 45 43 43 43 44 43 43 43 43 41 42 41 42 43 40 40 41 42 40 40 38 37 36 34 32 31

GFSSGP_sfc_temp_006.txt.gz
Temp
62 63 62 62 55 52 49 54 61 59 59 66 68 64 60 61 61 55 68 70 71 70 72 73 73 74 74 74 74 74 75 75 75 75 74 74 74 74 73 73 74 75 75 75 75 74 74 73 71
65 68 64 56 47 44 47 59 60 64 65 69 68 65 63 61 66 64 66 71 72 72 71 73 73 73 74 74 74 74 75 75 75 74 74 74 74 73 73 73 73 74 75 75 74 74 72 71 70
66 69 58 51 43 45 47 59 65 65 69 69 65 68 63 62 66 66 70 71 71 70 71 72 72 73 73 73 73 73 74 73 73 73 74 73 73 73 73 72 73 73 74 74 74 73 71 70 69
65 62 58 50 45 53 56 63 66 66 69 71 69 63 68 68 67 69 72 71 70 68 69 69 71 72 73 73 73 73 72 72 72 73 73 73 73 73 72 71 72 73 73 73 72 71 70 69 69
60 55 48 43 48 54 61 67 67 64 64 68 69 62 62 66 69 70 70 71 70 69 69 70 70 71 73 73 73 72 71 71 71 72 72 72 72 72 71 71 71 71 71 71 71 70 70 69 69
56 54 47 44 50 59 60 66 67 65 66 66 64 62 60 68 69 70 71 70 71 71 71 70 71 71 71 72 71 71 71 71 71 71 71 71 71 70 71 71 70 70 70 70 70 70 69 69 69
52 50 44 47 54 57 62 67 65 65 65 63 67 56 61 64 70 71 71 73 71 73 71 70 69 70 70 69 69 69 70 70 70 70 70 70 69 70 70 70 70 70 70 70 70 70 69 69 69
55 52 46 53 55 55 63 67 64 66 61 69 68 55 58 63 70 71 72 72 72 72 73 71 72 71 67 67 68 68 69 69 69 69 69 69 69 70 70 69 69 70 70 70 70 69 69 69 68
56 49 47 55 56 60 67 64 66 67 65 65 65 63 65 66 69 68 67 68 68 69 70 69 69 68 65 65 67 68 69 69 68 68 69 66 63 63 63 67 68 69 68 69 69 68 68 67 66
54 47 52 60 61 64 71 65 66 64 61 60 59 64 65 66 66 65 65 65 66 66 66 66 64 63 63 68 64 64 65 64 64 64 64 63 62 62 65 65 67 68 67 68 67 67 67 65 60
52 52 59 66 66 69 65 63 63 61 55 59 60 60 62 62 62 62 62 63 63 64 63 62 62 62 62 64 62 61 62 62 62 63 62 62 63 62 61 60 60 59 63 60 61 61 60 59 59
53 60 63 63 67 65 64 63 62 59 63 67 66 65 63 62 62 62 62 62 61 62 63 63 62 61 61 61 61 61 61 61 61 62 63 61 60 59 58 58 58 58 57 58 57 57 58 58 58
57 60 63 64 65 62 65 61 62 57 62 66 65 65 63 63 62 63 65 64 62 62 63 63 62 61 61 61 60 60 61 62 62 62 62 60 59 57 57 57 57 58 57 56 56 56 57 56 57
62 59 57 61 61 59 61 57 58 56 60 63 64 63 63 64 64 61 62 62 63 65 64 64 63 61 61 61 61 60 60 61 62 61 61 61 59 58 58 58 57 56 55 55 55 55 55 54 55
61 58 59 59 57 57 62 54 52 55 61 61 62 61 61 63 62 61 63 64 64 65 65 62 61 61 60 60 60 60 60 62 60 59 60 59 59 58 56 56 55 55 54 54 54 54 53 53 54
55 53 49 55 57 56 58 47 54 56 59 56 57 59 59 58 59 61 62 64 61 63 62 62 64 63 61 60 59 59 58 58 57 56 56 57 58 57 55 54 53 53 53 52 52 51 51 50 50
50 43 46 51 56 56 55 45 51 54 57 53 53 55 56 55 56 56 58 59 60 62 62 62 63 62 60 58 57 57 56 55 54 54 55 56 57 56 54 52 52 52 51 50 50 50 49 49 48
45 45 40 47 49 49 47 43 48 50 53 49 48 50 51 52 52 55 55 56 56 58 60 59 59 58 58 57 57 56 54 54 54 54 54 56 58 57 56 53 51 50 49 48 48 48 48 48 47
52 49 46 46 52 47 44 43 46 48 48 47 48 49 50 52 53 54 55 55 56 55 56 57 57 57 57 54 53 53 53 53 55 54 54 54 56 52 50 49 49 48 47 46 47 46 46 46 45
52 48 44 47 52 48 46 44 47 50 48 48 49 49 51 52 53 55 55 54 54 54 55 56 56 55 56 54 52 54 53 53 52 53 51 50 51 51 51 48 47 47 46 45 44 43 44 44 43
48 47 46 45 50 49 47 44 45 51 51 52 52 50 52 52 52 54 54 52 53 53 53 55 55 55 55 54 53 52 52 51 50 48 47 48 49 49 48 48 46 45 44 43 42 42 42 40 41
46 51 50 47 44 39 45 33 41 45 46 49 49 49 49 52 53 54 53 53 53 51 53 54 55 55 55 54 53 53 50 48 46 46 46 46 48 48 48 47 45 44 43 42 42 43 41 41 37
49 54 50 47 43 42 41 37 38 45 44 47 48 50 49 48 52 55 53 53 52 54 52 52 54 55 54 53 51 49 46 45 45 45 46 46 47 47 47 46 44 43 42 41 41 39 39 39 37
55 51 48 44 42 33 40 38 36 40 45 47 49 51 51 50 48 52 53 55 54 51 51 51 52 50 50 49 48 48 46 45 45 46 46 46 46 45 45 45 42 41 41 40 39 39 38 37 36
50 45 34 34 29 30 42 39 41 48 49 51 50 50 50 49 48 50 53 52 48 48 49 50 49 48 48 48 48 47 47 47 47 46 44 44 44 44 42 41 41 40 41 42 40 38 37 36 35
45 44 34 30 25 32 42 35 42 50 52 53 52 51 49 49 50 48 47 47 48 48 48 48 48 48 48 47 47 46 46 45 45 45 44 44 42 41 41 41 41 41 44 41 42 40 36 36 34
45 39 45 34 32 30 34 41 46 47 48 50 50 49 47 45 45 46 47 48 47 47 46 47 47 47 46 46 45 44 44 44 43 43 42 41 41 43 40 40 42 42 40 40 39 37 39 36 35
48 50 38 33 27 25 31 34 36 42 46 48 46 45 44 45 46 46 47 46 46 46 45 47 47 44 44 43 43 44 43 43 41 40 40 40 40 42 43 41 42 42 41 42 40 36 36 35 34
46 43 39 38 31 25 21 31 43 45 48 46 44 44 44 44 44 45 45 45 46 48 48 47 44 44 43 43 42 42 41 41 40 39 39 38 39 41 41 42 42 39 39 38 36 35 35 34 33
46 43 41 29 32 27 24 31 44 44 48 46 44 44 43 45 45 45 46 47 48 46 46 43 44 44 43 42 41 40 40 40 39 38 38 38 39 39 41 40 39 38 37 36 35 34 34 33 32

GFSSGP_sfc_temp_009.txt.gz
Temp
71 72 75 75 66 65 59 63 70 63 63 69 71 69 65 67 64 58 73 74 75 77 79 79 73 74 74 74 74 75 75 75 75 75 75 75 74 74 74 74 74 75 76 76 75 75 74 73 72
74 73 74 69 62 58 61 66 64 67 69 70 69 70 66 60 68 66 69 73 76 76 79 79 73 73 74 74 74 74 75 75 75 74 74 74 74 74 73 73 73 74 75 75 75 74 73 72 71
76 75 72 66 59 58 61 65 67 70 71 68 61 67 66 63 68 68 73 75 76 76 78 78 73 73 73 74 74 74 74 74 74 74 74 74 74 74 73 73 73 74 75 75 74 73 72 70 70
75 75 70 63 58 61 65 68 70 69 72 74 70 63 67 72 69 70 74 76 75 76 76 73 71 72 73 73 73 73 73 72 72 73 74 74 74 73 72 72 73 74 74 74 73 72 70 70 70
72 69 63 59 59 64 68 72 71 67 67 71 71 63 63 68 72 74 73 75 74 75 77 77 70 71 73 73 73 72 72 71 72 72 72 73 72 72 72 72 72 72 72 72 72 71 70 70 70
69 67 60 58 60 65 67 73 69 70 70 69 67 65 63 70 70 72 74 74 74 74 76 77 72 71 71 72 72 71 71 71 71 71 72 72 71 71 71 71 71 71 71 71 70 70 70 70 70
66 63 60 59 61 63 66 72 65 70 68 67 70 60 63 66 70 73 73 74 75 75 74 75 77 74 70 69 70 69 70 70 70 70 70 70 70 70 71 71 71 71 71 71 70 70 70 70 69
67 66 59 61 59 57 68 66 68 69 65 74 72 60 60 67 71 73 74 74 75 73 74 75 76 76 75 75 68 69 69 69 69 70 69 69 69 70 70 69 70 70 70 70 70 70 69 69 67
67 62 59 61 62 57 70 67 71 72 70 71 70 69 71 71 72 71 70 70 70 71 73 73 73 73 73 74 73 70 69 69 69 70 69 69 75 74 74 70 69 69 69 69 69 69 68 67 67
66 60 61 67 66 66 71 69 69 68 68 65 64 67 70 69 69 67 67 67 70 70 70 70 70 70 71 73 73 73 74 76 75 75 73 75 73 74 73 70 67 67 67 68 67 67 67 69 76
63 63 65 69 71 76 71 68 69 68 66 68 65 62 65 66 67 68 68 71 72 72 71 70 69 70 71 73 73 74 74 73 73 72 72 73 73 74 75 75 75 74 69 74 73 73 75 72 73
64 65 68 72 70 70 69 71 67 70 70 72 70 67 66 65 65 67 69 69 69 69 71 70 71 70 70 72 72 72 73 72 72 73 72 72 73 73 72 75 73 71 72 71 71 73 70 70 70
64 67 67 68 70 70 70 69 69 69 68 72 70 69 68 67 68 69 70 70 70 70 71 71 70 69 69 69 70 70 69 70 70 71 70 72 73 72 72 71 72 71 72 71 71 71 71 70 70
68 67 67 67 67 68 67 67 71 66 68 68 68 68 68 68 69 70 71 70 71 72 73 70 69 69 70 69 68 66 66 65 64 64 63 66 67 69 70 69 69 69 69 70 70 69 69 69 69
66 65 66 65 67 66 69 64 59 61 67 66 66 66 67 69 71 71 72 72 72 73 73 68 66 68 68 66 67 65 63 61 60 62 62 62 64 66 66 68 67 66 68 68 69 68 68 68 68
63 61 59 65 67 64 68 58 60 61 65 63 65 66 66 65 66 67 68 72 74 73 71 69 67 67 66 65 63 61 59 60 59 60 61 65 67 66 66 67 66 67 67 67 67 66 67 66 65
58 55 56 60 61 64 64 56 57 60 63 60 62 63 65 65 65 64 64 67 69 72 69 67 67 65 63 60 57 57 60 62 61 61 62 63 62 63 65 65 63 63 64 64 64 64 63 62 62
55 55 56 58 58 59 56 52 55 57 61 58 60 60 61 61 60 61 62 63 64 65 65 64 65 63 61 59 60 61 64 63 64 62 60 63 65 63 64 63 62 64 63 62 63 61 62 60 59
58 57 56 55 56 54 49 51 53 56 57 57 58 60 60 60 60 62 61 63 63 64 65 64 64 63 64 63 63 63 63 62 59 65 63 62 63 63 62 63 63 62 62 60 61 62 59 60 58
58 54 51 53 55 55 53 51 54 56 54 56 58 58 60 59 60 60 61 63 65 64 64 63 64 65 67 68 67 66 64 63 63 62 60 61 60 61 62 61 62 61 61 59 58 58 58 58 56
55 54 50 52 54 56 55 51 51 55 56 57 58 59 60 60 60 60 60 61 62 62 63 64 65 66 66 65 65 64 63 63 62 61 61 61 61 63 62 61 61 60 59 58 56 55 54 54 55
53 56 54 51 52 49 54 48 49 52 53 55 57 58 59 60 61 61 60 60 61 60 62 64 64 65 63 63 64 63 64 62 59 60 61 62 60 60 60 59 58 57 57 54 54 54 53 52 50
54 56 56 54 51 51 50 51 49 53 51 54 57 58 59 60 61 61 61 63 62 61 61 61 61 61 61 61 61 61 59 59 60 60 58 58 58 58 58 57 55 54 55 52 52 51 51 52 51
57 56 54 52 51 44 48 49 48 49 54 55 57 58 58 60 60 60 61 62 60 60 60 59 60 59 59 60 59 59 58 58 58 57 57 57 58 58 57 55 54 53 52 52 52 51 49 50 50
57 53 45 43 42 41 47 46 52 56 56 59 57 59 59 60 58 59 60 59 59 58 58 58 59 57 58 57 57 56 56 56 55 55 55 54 56 57 56 53 52 52 51 50 52 51 50 50 50
53 53 44 35 36 43 47 43 53 56 60 62 62 61 59 58 58 58 57 57 57 56 57 57 58 56 56 56 56 56 56 56 56 54 54 54 53 54 53 52 51 50 51 51 49 50 49 49 48
52 49 52 41 38 40 45 49 56 53 55 57 56 57 57 57 56 56 56 56 56 56 55 56 56 56 56 55 55 53 54 53 52 52 53 52 52 52 51 50 50 51 50 50 50 49 48 48 47
56 54 46 44 35 33 41 42 48 49 52 55 54 56 56 55 54 54 54 54 55 55 55 54 56 55 53 54 54 53 52 52 52 52 51 51 51 51 50 50 50 50 51 50 49 49 48 46 47
52 49 44 45 40 37 34 44 52 53 56 54 57 55 54 53 53 53 54 54 54 54 55 54 53 55 54 54 52 52 52 51 51 51 50 50 49 50 50 50 49 50 49 49 48 47 46 45 46
55 51 48 41 38 35 36 44 52 52 55 56 54 52 53 54 53 54 53 53 53 54 54 51 54 54 53 52 51 51 51 50 50 49 49 49 48 49 48 47 47 47 47 47 47 46 47 45 44

GFSSGP_sfc_temp_012.txt.gz
Temp
76 87 92 87 74 75 70 72 78 72 71 78 78 74 70 72 69 62 80 84 86 84 82 83 73 74 74 75 75 75 75 76 75 75 75 75 75 74 74 74 75 75 76 76 75 75 74 74 72
89 85 88 85 70 67 71 76 74 75 76 78 74 74 72 69 75 75 77 81 84 83 82 84 73 74 74 74 74 75 75 75 75 75 75 75 74 74 74 74 74 75 75 76 75 75 74 72 71
87 87 83 77 73 67 71 75 75 77 79 78 68 71 68 66 76 75 77 80 83 83 83 83 73 73 74 74 74 74 74 74 74 74 75 74 74 74 74 73 74 75 75 75 75 74 72 71 70
86 85 83 71 69 73 73 77 78 77 79 79 68 64 71 74 72 75 79 79 77 78 82 74 72 73 74 74 74 73 73 73 73 74 74 74 74 74 73 73 74 74 74 74 74 72 71 71 70
88 85 72 69 69 73 78 81 81 76 78 77 77 68 69 75 78 79 75 74 73 79 80 78 70 72 73 73 73 73 72 72 72 73 73 73 73 73 72 72 72 73 73 73 72 72 71 71 70
79 81 69 67 69 73 79 83 79 74 78 75 76 75 73 75 77 76 77 79 79 81 80 80 73 72 72 72 72 71 71 71 72 72 72 72 72 72 72 72 72 72 72 71 71 71 71 71 70
77 75 70 70 68 70 74 80 72 65 72 73 79 70 66 70 76 77 78 81 80 82 80 80 81 77 69 70 70 70 71 71 71 71 71 71 71 71 72 72 72 72 72 71 71 71 70 70 69
82 78 69 71 68 66 76 76 77 67 71 82 81 69 62 73 78 78 78 79 78 78 80 79 80 81 79 79 69 70 70 70 70 70 70 70 71 71 71 71 71 71 71 71 71 70 70 69 68
81 72 69 69 69 68 75 72 77 77 75 78 77 78 79 76 79 78 74 75 75 76 77 78 81 81 82 83 76 71 70 70 70 72 70 71 85 83 80 70 69 70 69 69 69 69 68 68 68
76 71 71 78 76 71 72 76 71 69 73 71 74 78 77 78 76 74 74 72 72 74 75 75 75 74 77 82 80 80 81 84 83 83 81 86 80 81 78 73 68 69 68 69 69 68 68 70 84
76 72 76 78 79 79 76 76 81 74 73 75 72 74 72 74 74 72 72 76 78 75 74 74 73 72 78 81 82 83 83 83 81 79 79 81 80 81 83 84 84 83 74 84 81 82 83 79 79
71 75 75 78 79 79 77 79 76 79 79 82 79 77 72 72 71 76 77 80 80 79 79 73 73 74 79 82 83 81 82 82 82 81 79 80 79 79 79 82 82 81 82 79 80 82 78 78 78
72 75 76 77 79 80 78 77 77 76 80 83 80 77 75 75 78 81 82 83 82 80 80 79 79 78 78 78 79 79 79 80 78 79 76 74 74 73 78 79 81 80 81 80 79 79 79 78 78
76 75 75 76 76 77 76 74 79 75 79 79 77 78 78 77 79 80 80 81 80 81 80 79 79 78 79 78 77 77 76 71 70 71 68 66 64 64 75 77 78 78 79 79 79 77 77 77 77
76 71 74 74 77 74 81 72 68 71 75 77 77 78 79 79 81 80 82 81 82 83 82 78 76 77 77 74 72 68 65 63 68 72 70 65 65 67 71 74 74 77 75 75 77 76 76 76 76
72 73 66 71 76 73 74 65 69 71 74 75 76 76 76 77 79 78 79 82 84 84 80 77 75 76 74 67 62 63 62 67 67 66 65 68 70 68 68 71 74 74 74 75 75 73 73 73 72
68 63 65 66 73 74 75 67 68 71 74 74 75 76 76 75 75 76 77 81 82 84 80 76 74 73 70 66 60 60 67 67 67 68 69 68 71 72 74 74 72 72 74 72 72 72 69 69 69
62 63 67 66 68 74 71 66 68 70 73 73 75 75 75 75 73 73 75 77 79 81 79 75 70 69 70 69 66 66 71 73 75 74 74 73 74 72 74 72 70 72 72 71 70 67 69 67 66
70 68 66 67 66 68 66 67 67 69 71 71 73 74 74 74 73 74 73 74 75 75 74 73 70 71 73 74 73 72 72 73 73 74 71 70 71 71 70 72 71 70 69 66 66 67 66 66 66
69 66 64 63 64 67 67 64 66 67 68 71 72 73 73 71 72 71 73 74 74 74 74 74 73 74 76 77 77 77 75 74 73 72 70 70 70 70 70 68 68 68 67 66 64 63 62 65 65
65 65 63 64 63 66 67 63 64 64 66 67 70 72 72 72 70 71 71 72 73 73 73 75 76 76 76 75 75 74 73 72 72 72 73 69 68 70 69 67 66 66 66 65 63 62 59 58 62
61 66 66 62 62 58 66 57 62 63 63 65 66 69 70 71 72 72 71 72 73 72 74 75 74 73 72 73 73 71 73 72 69 71 70 70 66 66 67 67 65 64 64 62 62 62 59 57 56
63 66 66 65 64 61 60 59 61 64 61 63 66 68 69 70 71 71 72 72 73 71 71 72 72 72 72 71 71 71 68 69 69 69 65 66 67 67 66 65 64 63 63 61 59 58 57 58 56
67 65 64 64 63 52 60 59 62 61 65 65 67 68 68 70 71 72 72 72 71 71 69 70 70 69 70 69 68 66 65 65 65 64 64 65 66 66 66 65 62 62 61 59 58 57 56 55 55
67 63 53 50 49 48 57 56 63 68 68 70 67 68 69 69 70 69 69 70 69 68 67 68 68 66 67 66 66 65 64 63 63 62 62 60 61 62 62 61 61 60 59 58 57 54 53 54 53
64 64 54 41 44 53 56 53 65 67 71 73 72 71 70 69 69 70 70 69 68 66 67 67 67 66 66 65 64 64 62 64 64 61 60 60 59 59 59 59 60 58 57 55 52 55 55 54 53
60 57 63 51 48 49 57 61 66 65 66 69 70 70 69 70 69 68 67 67 66 66 65 66 66 66 65 64 61 59 62 60 59 59 59 59 59 59 58 58 57 55 54 53 55 55 54 54 53
64 65 54 56 41 40 54 54 59 59 61 66 67 67 69 70 68 67 66 65 66 66 65 65 66 65 63 60 62 62 61 60 59 59 57 57 57 57 57 57 55 53 51 52 55 54 54 53 52
59 59 56 58 52 46 44 56 64 63 65 64 67 68 69 68 67 65 65 65 65 65 65 64 64 62 58 62 61 60 60 59 59 58 57 56 56 56 56 56 55 52 51 53 53 52 53 51 51
64 61 61 51 47 48 46 54 64 64 65 68 68 69 70 68 67 66 64 64 63 63 64 63 62 62 62 61 60 60 60 59 57 57 56 55 54 55 54 54 53 52 52 52 51 51 52 51 50

GFSSGP_sfc_temp_015.txt.gz
Temp
79 89 95 91 75 77 72 78 86 76 75 80 81 80 76 75 71 63 86 85 85 84 85 82 73 74 74 75 75 75 75 76 75 75 75 75 75 75 75 75 75 76 76 76 76 75 75 74 73
93 93 92 87 72 69 74 84 78 77 72 82 81 79 78 72 81 77 79 84 86 84 81 81 73 73 74 74 74 74 75 75 75 75 75 75 75 74 74 74 74 75 76 76 76 75 74 73 72
90 94 84 79 74 70 73 81 79 79 83 80 75 80 76 74 81 81 87 86 84 82 82 79 73 73 74 74 74 74 74 74 74 75 75 75 75 74 74 74 74 75 75 75 75 74 73 72 71
90 89 86 73 71 78 78 80 76 80 81 84 81 69 74 79 80 85 86 81 82 79 81 72 72 73 74 74 73 73 73 73 73 74 74 74 74 74 73 73 74 74 74 74 74 73 72 71 71
91 88 74 72 73 80 82 81 81 70 71 80 82 71 73 77 82 84 84 81 75 73 75 76 70 72 74 73 73 73 72 72 73 73 73 73 74 73 73 73 73 73 73 73 73 72 72 71 71
82 85 71 69 74 79 82 83 79 76 77 79 76 77 77 85 83 81 75 70 70 72 77 75 71 72 72 73 72 71 71 72 72 72 73 73 72 72 72 72 72 72 72 72 72 72 71 71 70
78 78 71 74 72 74 79 82 71 72 64 77 72 75 76 81 84 80 68 71 68 72 75 78 78 75 69 70 70 70 70 71 71 71 71 71 72 72 72 72 72 72 72 72 72 72 71 71 70
84 81 73 76 70 59 79 80 81 79 72 67 83 72 71 81 82 80 75 73 74 71 77 78 78 81 79 77 69 70 70 70 70 71 71 71 71 72 72 72 72 72 71 71 71 71 70 70 70
88 73 71 73 71 73 81 78 82 82 76 73 81 83 80 81 80 79 76 75 75 75 77 78 78 79 79 77 73 71 70 70 70 72 71 72 82 82 80 71 70 71 70 70 70 70 69 69 69
79 72 75 77 64 75 79 77 77 74 74 75 77 84 84 82 80 76 76 75 75 75 75 76 78 80 82 84 81 82 82 84 83 82 82 85 81 82 81 75 71 71 70 71 71 71 70 70 84
79 73 79 77 83 81 77 74 82 72 61 77 75 77 81 79 77 79 78 81 81 79 76 77 77 78 83 82 84 85 84 83 81 81 82 82 82 83 82 82 84 83 74 83 81 81 83 80 80
74 80 81 80 84 81 78 82 79 60 55 64 84 82 81 79 75 79 82 84 83 82 78 74 75 79 82 84 85 83 83 83 83 82 82 81 81 81 80 82 82 81 82 80 81 81 80 80 80
75 79 79 81 82 81 80 70 78 77 83 86 83 80 81 80 82 84 86 86 84 82 81 78 79 81 80 81 82 81 79 78 78 76 74 75 77 75 75 72 78 80 81 81 80 80 79 78 78
79 79 79 81 80 80 78 79 81 80 86 83 82 82 82 83 84 84 84 84 84 84 82 82 82 81 82 80 78 77 77 75 74 73 74 75 75 73 70 73 76 76 75 77 77 77 75 76 78
79 73 77 77 78 77 79 74 74 81 84 80 81 82 82 83 85 84 85 83 85 85 84 81 80 81 80 79 75 70 64 65 69 73 72 71 72 70 68 71 70 68 73 75 75 75 76 76 77
73 75 66 75 78 79 79 67 75 82 82 80 82 82 82 82 84 86 86 86 87 87 83 82 81 80 79 75 70 65 66 69 69 68 68 70 71 69 70 70 72 75 75 75 74 74 73 72 72
72 62 66 69 80 78 77 69 76 82 81 79 80 80 80 80 82 83 85 87 87 88 84 80 78 77 75 72 69 73 73 75 73 72 74 72 74 75 75 76 74 73 75 74 73 71 70 69 69
62 66 69 68 75 77 74 72 76 80 80 78 80 80 79 79 80 82 82 85 87 87 84 80 78 72 72 71 73 76 76 75 76 77 77 76 76 74 75 75 72 72 73 72 70 67 69 68 68
72 70 68 73 75 73 72 72 74 78 79 78 80 80 80 80 81 81 81 81 83 83 82 72 71 69 72 75 75 74 74 76 76 77 74 74 74 74 72 73 72 72 70 68 68 67 64 65 67
71 68 67 71 74 72 72 72 75 77 78 79 79 79 80 80 78 78 79 79 79 79 79 71 73 73 78 80 79 79 78 77 77 75 73 73 72 73 72 69 69 69 68 66 65 64 62 63 64
70 68 66 67 72 74 73 69 70 74 78 77 80 82 82 79 77 76 77 77 77 76 75 76 77 79 80 79 78 77 76 74 74 73 74 71 70 71 70 69 68 66 66 64 64 63 61 58 61
63 72 71 68 66 60 73 57 68 71 70 72 75 77 78 79 78 77 76 76 77 77 79 79 79 78 77 78 78 75 76 72 72 72 72 72 71 69 70 69 67 65 64 63 63 65 60 58 56
64 72 71 70 68 65 66 62 54 70 68 70 73 75 76 77 77 76 76 77 77 76 76 76 77 76 76 76 75 74 71 71 71 72 68 69 70 69 69 68 65 64 63 63 61 60 59 59 57
73 69 69 70 67 54 64 63 62 67 71 72 73 74 75 75 76 77 77 76 75 75 74 73 74 74 74 73 71 69 67 67 67 66 65 66 66 66 66 65 63 62 62 61 61 60 58 55 54
72 66 54 53 52 50 65 62 65 73 75 77 73 74 74 75 75 75 74 74 73 72 71 72 72 70 71 70 69 68 66 65 64 63 63 62 62 62 62 61 61 61 61 61 60 55 53 52 52
67 67 54 44 47 55 64 56 66 75 78 79 78 76 75 74 74 74 74 74 72 71 71 72 71 70 69 68 67 66 65 61 64 63 62 62 61 61 61 60 60 60 60 56 54 53 52 53 54
67 60 70 58 57 52 59 67 74 72 72 75 76 74 73 73 74 74 75 74 72 71 70 70 71 70 68 66 65 62 61 61 62 62 61 61 60 61 60 59 59 59 56 54 54 51 53 52 54
68 72 57 59 44 43 57 59 63 66 68 71 73 72 73 74 74 74 73 72 72 71 71 70 70 69 67 64 62 61 61 63 63 62 59 59 59 59 58 58 58 58 54 55 52 54 55 52 53
64 62 63 63 57 47 46 57 70 68 70 70 73 74 74 74 74 73 72 71 71 71 69 69 69 67 64 64 63 62 62 62 63 61 60 59 58 58 57 57 56 56 57 55 54 53 52 50 52
70 66 65 52 51 53 50 55 72 71 72 73 74 75 76 76 76 74 72 70 70 68 68 67 67 65 65 64 63 63 63 62 61 60 59 58 57 57 57 56 55 55 55 53 52 51 52 51 50

GFSSGP_sfc_temp_018.txt.gz
Temp
76 82 87 85 69 70 66 72 83 78 75 80 83 81 75 75 69 58 79 84 81 78 77 77 73 74 74 75 75 75 75 75 75 75 75 75 75 74 74 74 74 75 76 76 76 76 75 74 73
86 89 87 80 65 61 67 79 74 73 77 82 81 81 77 69 77 73 77 83 83 80 79 77 73 74 74 74 74 75 75 75 75 75 75 75 75 75 74 74 74 75 76 76 76 75 74 73 72
80 89 78 73 67 62 68 77 75 77 80 79 75 81 77 72 78 77 81 79 83 80 81 76 72 73 73 74 74 74 74 74 74 74 75 75 75 74 74 73 74 75 75 76 75 74 73 71 70
84 84 80 67 65 73 76 77 77 79 71 80 79 71 78 83 82 80 77 75 77 79 77 71 72 73 74 74 73 73 73 73 73 73 74 74 74 74 73 73 74 74 74 74 74 73 72 70 70
85 81 68 66 68 76 81 81 77 66 63 69 68 71 72 80 83 81 77 79 73 69 69 71 69 72 74 73 73 72 72 72 72 72 73 73 73 73 72 72 72 73 73 73 72 72 71 70 70
76 78 64 63 69 78 82 79 75 68 65 66 62 74 74 81 80 75 76 73 72 70 70 70 70 72 72 71 71 71 71 71 71 72 72 72 72 72 72 72 72 72 72 72 72 71 71 71 70
73 72 66 69 70 73 73 79 73 72 70 66 71 62 66 79 79 70 69 71 68 69 69 68 69 72 70 69 69 70 70 70 70 71 71 71 71 71 72 72 72 72 72 71 71 71 71 71 71
79 75 68 71 70 61 72 67 74 73 71 78 73 61 66 70 68 65 66 65 65 67 68 68 70 72 70 71 69 69 69 70 70 70 70 70 71 71 71 71 71 71 71 71 71 71 70 70 70
86 69 65 69 67 56 66 72 81 81 73 74 70 64 78 77 71 66 63 63 64 63 68 71 72 72 71 71 70 70 70 70 70 70 70 69 72 71 72 70 71 71 70 71 71 71 70 70 69
76 67 69 69 66 56 59 65 76 76 72 72 66 61 77 77 73 69 66 63 63 63 70 71 72 72 72 77 71 70 73 72 73 74 70 73 73 73 77 72 71 72 71 71 71 71 70 69 71
76 68 78 65 66 67 64 71 75 71 68 67 60 75 76 75 75 73 72 70 71 72 73 74 73 73 75 75 75 75 76 73 73 74 75 73 74 73 72 70 71 69 70 73 71 72 73 72 70
71 78 79 70 72 70 71 73 72 70 67 68 70 78 78 76 77 78 78 75 74 74 73 74 75 75 74 76 76 75 74 73 70 70 71 70 70 70 70 70 70 70 69 71 69 69 71 69 70
74 77 80 74 69 72 73 70 69 68 74 74 72 73 78 77 79 81 82 80 78 74 73 74 75 75 75 74 73 73 72 72 71 70 71 70 69 67 67 66 68 68 67 67 66 67 67 66 68
79 78 78 78 69 78 68 72 68 69 72 68 72 78 79 79 80 81 81 79 78 77 75 75 76 74 76 73 72 71 70 67 67 68 69 70 69 66 66 66 65 65 66 66 66 65 65 65 66
79 71 76 76 78 75 75 67 71 71 72 76 78 79 79 81 83 81 81 80 80 79 78 75 73 74 73 72 71 68 65 65 66 66 66 66 66 65 64 63 63 63 65 65 65 64 64 63 65
71 72 62 73 76 77 74 63 74 81 78 76 78 79 79 81 82 83 82 82 82 80 77 77 78 75 73 70 67 65 65 67 67 65 65 66 68 66 64 63 63 64 64 64 63 61 61 60 60
68 59 62 67 78 76 74 66 75 80 78 73 77 74 78 80 81 82 83 82 83 80 78 76 74 73 70 68 66 67 68 69 68 66 66 67 69 69 65 63 63 63 63 62 62 59 58 57 58
58 61 65 65 72 74 71 69 74 78 72 76 77 78 77 77 78 80 81 83 83 80 77 74 72 71 69 68 68 70 70 69 68 68 68 69 68 67 64 63 63 63 62 60 59 57 58 56 54
68 66 64 70 76 72 70 70 72 77 77 76 76 76 76 76 80 80 80 79 80 78 75 70 67 66 69 69 69 69 66 68 68 68 68 67 67 67 64 62 62 61 59 58 58 56 54 53 54
69 65 65 71 74 72 71 69 73 76 76 77 77 76 76 78 77 78 78 77 78 76 73 69 67 66 71 72 72 70 69 68 68 66 66 66 65 65 65 61 60 59 58 56 55 53 52 52 52
68 65 64 66 70 73 65 66 70 75 78 79 80 81 80 78 75 76 76 75 75 67 69 70 70 69 72 72 73 71 68 66 65 65 64 63 64 65 63 62 59 57 56 54 53 52 52 48 49
61 69 69 67 63 56 67 52 65 65 72 76 77 77 78 79 78 76 75 71 70 69 71 73 73 74 73 72 70 67 66 63 64 63 63 63 65 63 63 60 57 55 55 53 53 56 50 49 46
63 68 68 69 65 57 54 54 56 61 60 70 73 76 77 78 77 75 76 73 74 73 72 72 72 72 72 70 69 66 63 63 63 61 60 60 59 60 60 58 54 53 53 53 52 51 50 49 46
72 67 69 68 64 44 53 50 55 55 59 67 74 75 76 76 75 75 75 74 73 72 69 69 70 70 69 67 64 61 59 59 58 57 55 57 57 56 56 57 53 53 52 52 52 51 49 47 45
70 64 51 42 43 45 65 55 54 64 66 59 62 73 74 74 73 72 71 71 70 68 67 68 69 67 66 64 62 60 59 58 55 56 56 56 55 53 53 53 52 52 52 52 50 49 47 45 43
64 64 51 32 33 49 59 52 63 72 74 65 74 75 74 73 72 72 71 70 69 67 67 68 68 66 65 62 61 60 59 56 56 56 56 54 53 52 53 52 52 52 53 51 49 47 45 45 44
65 60 69 56 44 49 56 64 71 74 73 75 74 74 72 72 72 72 72 70 68 67 66 66 67 66 64 62 60 57 57 57 56 56 55 53 53 55 52 51 51 51 51 50 48 45 44 45 44
67 71 56 57 41 40 53 57 57 65 68 71 72 71 72 72 72 72 72 70 69 68 68 66 67 65 63 60 58 58 57 57 58 55 54 53 52 52 52 51 51 50 50 51 49 46 46 47 44
63 60 62 62 56 43 41 52 68 67 70 70 72 72 72 71 72 71 72 71 69 68 67 66 66 64 61 60 58 56 57 57 56 55 54 53 52 52 52 51 50 50 49 49 47 46 46 45 43
69 64 64 48 48 50 45 50 72 71 72 73 73 75 74 73 73 73 72 69 68 67 67 65 64 63 61 60 58 57 58 58 56 55 54 53 52 52 51 51 50 51 49 49 47 45 45 44 43

GFSSGP_sfc_temp_021.txt.gz
Temp
65 67 67 67 53 49 46 56 65 64 63 69 76 69 64 65 63 55 70 72 72 72 74 74 73 74 74 75 75 75 75 75 75 75 75 75 74 74 74 74 75 75 76 76 76 75 75 74 73
69 76 69 61 48 40 48 64 61 66 70 73 74 72 68 63 70 68 68 72 72 72 74 74 73 74 74 74 74 74 75 75 75 75 74 74 74 74 74 74 74 75 76 76 76 75 74 73 72
71 77 60 53 47 45 50 63 64 69 70 72 69 72 70 65 71 72 74 74 72 73 74 74 73 73 74 74 74 74 74 74 74 74 75 75 75 74 74 74 74 75 75 75 75 74 73 72 70
72 66 63 51 49 59 62 64 68 67 66 69 66 64 69 73 75 74 74 73 73 72 72 72 72 73 73 73 73 73 73 72 73 73 74 75 74 74 73 73 74 74 74 74 74 73 72 70 70
68 63 49 48 56 65 70 67 65 60 61 65 65 63 64 70 73 72 72 70 69 69 69 71 70 72 72 73 73 72 72 72 72 72 73 73 73 73 72 72 72 73 73 73 73 72 71 71 71
59 61 48 48 58 67 65 65 66 63 63 65 65 63 63 71 67 67 68 67 68 67 68 69 70 69 71 71 71 71 71 71 71 72 72 72 72 72 72 72 72 72 72 71 71 71 71 71 71
58 55 51 55 60 65 60 65 65 62 61 63 66 58 62 61 66 66 67 67 66 65 65 67 68 69 70 69 69 69 70 70 70 70 71 71 71 71 72 72 72 71 71 71 71 71 71 71 71
63 57 52 57 59 53 62 64 65 67 59 70 65 56 57 62 65 66 66 66 65 64 63 65 67 69 68 69 69 69 69 70 70 70 70 70 70 71 71 71 71 71 71 72 71 71 71 70 70
64 51 51 54 56 56 61 61 68 72 65 64 61 63 63 64 65 64 63 63 64 63 63 65 67 67 67 68 70 70 70 70 70 70 70 68 68 68 70 69 70 71 70 70 71 71 70 69 69
60 50 55 62 60 57 62 65 63 65 61 56 61 65 65 64 63 61 61 61 62 61 62 65 67 68 68 73 67 66 70 68 68 68 68 68 67 67 71 69 69 70 69 70 70 70 68 70 67
61 59 61 61 64 62 59 62 66 64 56 57 59 63 64 62 63 61 61 63 62 64 65 67 68 69 70 70 68 68 67 66 68 68 68 68 69 68 67 67 66 68 68 67 69 68 68 66 65
59 70 71 66 67 65 61 66 66 64 63 64 65 66 66 69 62 60 61 63 63 66 69 69 70 70 70 70 67 67 68 67 65 66 68 66 64 63 63 63 62 63 63 63 64 63 65 64 65
66 68 68 66 64 65 70 66 66 63 64 66 66 66 68 69 69 65 66 67 68 68 69 69 69 70 69 69 69 69 66 65 66 66 66 65 64 62 62 62 62 62 62 62 62 62 62 62 63
71 70 68 67 65 66 66 66 64 65 67 67 68 66 71 72 71 70 69 68 68 68 66 67 68 68 70 68 66 64 62 63 63 62 63 64 62 61 61 61 61 61 61 61 60 59 58 58 60
71 67 67 64 65 66 66 57 60 66 69 67 67 71 71 73 73 72 71 69 69 69 69 66 67 67 68 65 63 61 61 61 60 60 62 62 62 61 60 59 58 59 59 59 59 58 57 57 60
63 61 54 65 68 67 65 53 63 66 66 63 66 69 72 72 72 74 73 72 71 71 69 70 72 66 65 62 61 60 61 60 59 59 59 61 62 61 59 58 57 58 58 57 56 55 55 54 54
59 50 57 62 71 68 64 55 64 65 66 66 63 66 69 69 70 71 73 73 72 72 70 69 67 65 63 62 61 62 62 60 59 59 60 62 63 63 59 57 57 59 57 55 56 54 53 51 51
51 54 56 57 64 66 57 56 61 64 64 65 63 62 63 67 68 72 72 72 74 70 68 69 66 64 62 61 61 61 61 60 60 60 60 62 62 62 58 57 56 56 55 54 53 52 52 50 49
63 58 56 60 67 63 59 58 61 60 60 60 61 59 63 67 70 72 71 70 70 69 70 66 64 63 63 60 59 60 59 59 58 59 61 60 60 60 57 56 55 55 53 52 52 50 49 49 48
60 59 56 63 67 61 57 57 62 60 57 61 60 61 65 66 68 70 69 68 70 67 64 64 65 64 64 65 65 62 60 59 59 59 58 59 59 59 59 56 54 54 53 51 50 48 47 47 46
61 56 57 58 62 58 57 53 57 65 68 68 64 63 66 66 67 68 68 65 65 62 62 63 64 65 65 65 63 61 59 57 56 55 56 58 60 60 57 54 52 51 50 49 48 47 47 44 45
56 63 61 61 54 46 57 41 54 58 62 66 66 64 68 68 69 68 66 61 61 61 61 64 65 64 65 64 64 63 58 55 54 55 55 55 56 56 56 53 51 49 48 48 47 51 46 44 41
59 63 60 60 54 52 53 49 49 57 59 62 61 64 64 68 67 66 64 63 63 65 65 63 64 64 63 63 61 59 57 55 53 52 52 53 53 54 54 52 50 48 47 47 47 46 44 43 41
67 61 58 56 51 37 50 48 45 52 61 62 64 68 68 65 64 65 66 67 67 65 65 66 63 60 59 59 56 55 54 52 51 50 49 50 50 50 50 52 49 48 48 46 45 44 44 42 42
61 53 40 37 34 33 53 49 49 59 63 63 65 66 63 65 63 63 61 60 59 60 63 60 59 58 58 56 54 53 52 51 50 49 48 49 48 47 47 48 47 46 47 47 46 44 42 42 40
55 53 38 32 29 39 50 46 53 66 68 66 67 63 63 61 63 62 61 60 58 59 59 58 58 57 56 55 54 53 52 50 50 50 50 48 47 47 47 47 47 47 47 46 45 43 42 42 40
57 50 57 42 42 36 45 54 63 62 59 61 60 60 60 60 59 61 60 60 59 58 58 57 57 56 55 53 52 52 52 51 50 50 50 47 47 51 47 47 47 46 46 46 45 42 42 41 40
60 61 46 43 33 31 42 45 46 56 59 61 56 59 60 62 61 62 62 60 61 60 59 57 57 57 54 52 51 52 51 51 51 50 49 49 47 48 47 46 46 46 46 45 44 43 43 41 40
54 51 53 51 41 33 29 39 56 57 59 59 60 63 63 63 63 63 61 62 61 61 58 57 56 54 52 52 51 50 50 52 52 52 48 50 47 48 47 47 46 46 45 44 43 42 43 41 40
60 54 52 35 40 35 32 38 59 61 61 62 62 65 64 65 64 63 62 61 60 60 59 57 55 55 54 52 52 51 52 54 52 51 51 47 47 48 47 47 47 46 45 43 43 42 43 42 42

GFSSGP_sfc_temp_024.txt.gz
Temp
62 64 64 64 51 46 42 52 60 60 61 68 69 66 61 63 60 54 70 70 71 72 73 74 73 74 74 74 74 74 75 75 75 74 74 74 74 74 74 74 75 75 76 76 76 76 76 75 74
65 70 65 57 45 39 45 55 59 60 66 68 70 67 63 60 67 65 66 71 72 72 73 74 73 74 74 74 74 74 75 75 74 74 74 74 74 74 74 74 74 75 76 76 76 76 75 73 72
69 73 57 51 41 42 45 58 59 62 67 67 66 68 66 62 67 69 70 70 71 71 73 73 72 73 73 74 74 73 74 74 74 74 74 74 74 74 74 74 74 75 76 76 76 75 73 72 71
67 62 58 48 45 51 57 62 61 63 67 67 64 60 65 68 71 70 71 71 70 70 72 71 72 72 73 73 73 73 73 73 73 73 74 74 74 74 74 73 74 75 75 75 74 74 72 71 71
63 57 47 43 51 58 60 61 62 58 58 61 64 59 61 66 70 70 70 70 69 69 71 72 70 72 72 73 73 72 72 72 72 73 73 73 73 73 72 72 73 73 74 73 73 72 72 71 71
57 54 46 43 54 61 62 60 63 60 61 63 61 60 60 66 68 67 68 67 68 68 69 70 70 70 70 72 71 71 71 71 71 72 72 72 72 72 72 72 72 72 72 72 72 71 71 71 71
51 50 45 50 54 57 61 63 61 60 62 61 63 55 60 63 67 66 63 64 65 66 66 66 67 69 69 69 69 69 70 70 71 71 71 71 70 71 71 72 72 72 71 71 72 71 71 71 71
58 55 48 52 52 49 60 63 63 63 59 67 62 54 56 62 65 65 64 63 63 63 64 64 67 67 68 68 68 69 69 69 70 70 70 69 70 71 71 71 71 72 72 72 72 71 71 71 70
62 51 47 52 52 55 60 59 65 68 61 62 60 61 62 64 64 63 62 62 60 61 62 67 66 67 66 67 69 69 70 69 69 69 69 67 66 67 68 69 70 71 70 70 71 71 69 68 68
57 49 52 57 57 54 59 56 62 61 60 59 56 60 63 64 63 61 61 60 60 60 61 64 65 65 66 71 66 64 68 67 67 67 66 66 65 65 69 68 69 70 69 69 69 68 69 67 63
58 54 60 59 61 60 57 59 64 59 54 59 56 58 61 62 62 62 62 63 61 61 63 63 65 67 65 68 64 64 65 64 65 66 66 66 66 65 64 64 63 64 66 65 66 65 63 63 62
56 64 65 62 63 61 60 63 62 60 61 63 61 62 61 61 60 62 62 62 61 62 64 65 66 67 65 66 64 64 64 65 63 65 66 65 62 61 61 61 60 61 60 61 61 60 61 61 62
59 64 64 65 66 65 67 61 60 57 61 63 65 62 59 59 61 64 64 64 63 63 65 66 68 67 66 65 65 64 64 64 63 63 64 63 61 60 60 60 60 60 60 59 59 59 59 58 59
65 65 63 63 66 66 63 61 61 58 63 63 64 62 59 61 61 63 63 63 64 66 67 67 67 65 67 65 62 62 61 62 61 61 61 62 60 59 59 58 59 58 58 58 57 56 56 55 56
66 60 61 61 62 63 63 59 59 62 62 60 63 65 65 61 63 63 64 64 67 68 68 65 64 65 65 61 61 60 60 59 59 60 60 61 60 59 58 57 57 56 56 56 55 55 54 54 56
59 62 50 60 61 65 61 50 58 63 63 60 62 64 65 64 64 66 67 67 67 67 65 66 69 64 62 61 60 60 59 58 58 58 59 60 60 59 57 56 56 55 55 54 53 52 52 51 51
53 46 52 55 64 63 56 53 61 63 63 60 60 62 66 66 66 68 68 68 67 68 67 64 65 63 61 61 60 59 59 58 58 57 58 59 60 59 56 54 54 54 53 52 53 51 50 49 49
48 50 49 54 61 60 55 53 58 62 62 62 61 61 63 66 67 69 69 69 69 67 67 64 64 61 61 60 59 58 57 57 58 57 58 59 58 58 56 54 53 54 52 51 51 50 49 48 46
60 55 52 54 63 59 57 52 57 59 61 62 60 61 60 66 69 70 69 69 67 64 65 64 61 61 61 60 58 56 56 56 56 56 58 57 57 57 55 53 53 52 51 49 50 47 47 46 45
56 55 53 58 62 59 53 51 56 58 62 63 59 59 61 62 66 67 67 67 66 64 64 63 63 61 63 63 59 59 57 56 56 55 56 56 56 57 56 53 51 51 50 49 48 47 45 44 44
55 54 53 53 58 57 55 49 50 57 58 60 61 64 66 66 65 65 65 65 64 63 62 62 61 62 62 63 60 57 56 54 53 52 53 55 56 55 53 51 49 48 48 47 45 45 45 42 42
49 61 58 57 52 45 51 39 51 55 56 59 61 60 63 63 67 65 62 62 63 62 60 62 63 63 62 60 60 60 59 57 52 52 52 53 54 52 52 51 49 47 46 45 44 47 43 42 40
56 59 57 57 50 47 49 45 49 54 54 56 60 62 61 64 66 64 60 62 62 61 61 61 61 61 61 60 60 59 54 52 51 51 50 50 50 50 51 49 47 46 45 44 44 42 42 41 40
64 58 55 50 47 35 46 44 43 50 58 61 62 63 63 63 62 62 61 62 60 61 60 58 59 58 59 59 56 55 52 51 51 48 47 47 47 47 48 48 46 45 45 44 43 42 42 40 40
59 49 38 37 32 32 49 45 48 56 59 60 61 60 63 63 60 60 59 60 60 59 59 62 60 54 54 53 52 53 53 53 51 48 47 47 48 48 45 45 45 44 44 45 43 42 41 40 39
52 50 36 33 29 38 47 41 50 61 63 63 62 59 58 58 61 61 59 57 57 58 59 59 60 55 53 53 52 52 51 49 49 50 49 48 47 47 48 47 46 45 45 44 43 41 40 40 39
52 46 53 40 38 34 40 49 56 58 56 58 56 58 55 55 57 58 57 58 57 56 55 57 58 57 55 52 51 51 50 50 50 50 49 48 49 51 45 45 45 45 45 43 42 40 41 40 39
55 58 44 40 32 30 39 42 45 52 55 56 54 55 55 56 57 58 59 58 59 58 56 55 56 56 53 51 51 52 52 51 50 50 49 49 49 50 47 47 45 44 44 43 42 40 41 40 38
51 49 49 47 38 33 29 38 52 55 57 58 56 56 56 58 59 59 60 60 60 59 56 56 55 53 52 52 50 49 51 51 51 50 50 49 49 49 48 47 45 45 45 44 42 41 40 40 39
54 52 49 34 38 32 30 38 55 57 58 57 57 58 59 61 60 61 60 59 58 58 56 55 55 54 54 52 50 50 51 51 52 50 50 48 49 47 47 46 45 45 44 43 41 41 41 39 38

GFSSGP_sfc_temp_027.txt.gz
Temp
61 62 62 62 50 44 40 48 55 58 58 65 67 63 59 59 60 53 68 68 72 72 73 73 73 74 74 74 74 74 74 75 75 74 74 74 74 74 74 74 75 75 77 77 77 76 76 75 73
63 66 62 54 43 38 43 52 55 57 61 63 65 65 60 59 67 65 67 70 74 73 73 72 73 73 74 73 74 74 75 75 74 74 74 74 74 74 74 74 74 75 76 77 77 76 75 74 72
66 69 56 47 39 40 43 53 56 60 63 62 61 64 63 61 67 67 70 72 73 72 72 72 72 72 73 73 73 74 74 73 74 74 74 74 75 75 74 74 74 75 76 76 76 75 74 72 71
65 61 56 45 42 51 52 56 60 60 63 65 61 57 63 67 67 69 70 71 71 70 72 71 71 72 73 73 73 73 72 72 73 73 74 75 75 75 74 73 74 75 75 75 75 74 72 71 71
60 55 46 42 47 55 57 58 58 58 58 60 61 57 59 65 68 69 69 70 69 69 70 70 70 72 72 73 72 72 72 72 72 73 73 74 74 73 73 72 73 73 74 74 74 73 72 71 71
53 52 43 42 50 58 58 58 60 58 59 62 60 57 59 67 65 64 66 67 67 67 69 70 72 71 72 72 71 71 71 71 72 72 72 73 72 72 72 72 72 72 72 72 72 72 71 71 70
51 48 43 48 49 53 58 59 60 58 58 60 63 54 59 62 63 64 64 64 64 65 65 67 68 70 70 69 69 69 70 70 71 71 71 71 70 71 71 71 72 72 71 71 71 71 71 70 70
55 51 45 46 49 50 57 61 61 60 57 65 62 53 55 61 63 64 63 62 63 63 63 63 64 65 66 69 69 69 69 69 69 70 69 69 70 70 70 70 71 72 72 71 71 70 70 70 69
56 47 44 47 50 54 58 55 61 63 58 58 60 59 61 63 63 61 60 61 61 61 61 63 64 65 65 66 68 69 70 69 69 69 69 67 65 65 66 69 70 70 70 70 70 69 68 67 67
53 46 50 57 57 54 58 57 60 59 56 56 58 61 62 62 62 60 59 58 60 60 61 63 64 64 65 70 65 65 67 65 65 65 65 64 64 65 67 67 69 68 68 68 68 67 67 64 61
52 50 57 59 59 58 58 58 63 58 52 55 56 58 60 60 61 61 61 61 60 60 60 62 65 64 64 66 63 63 63 63 64 64 64 63 63 63 63 63 63 62 65 63 63 62 61 61 59
52 60 61 62 61 59 57 61 60 56 56 60 61 61 60 61 60 61 60 60 60 60 62 63 63 63 63 63 62 62 63 63 63 63 64 62 60 60 60 60 59 59 58 58 58 57 58 58 58
56 60 61 63 62 60 64 59 59 54 59 61 63 61 60 60 60 63 64 62 61 61 63 63 64 63 63 63 62 62 63 62 61 62 63 61 59 58 59 58 58 58 57 57 56 56 56 56 56
61 60 59 60 61 65 60 59 60 56 60 60 60 60 62 61 61 61 62 61 61 63 63 64 64 64 63 62 61 61 61 61 60 60 61 61 59 58 58 56 56 56 56 55 54 54 53 53 54
61 56 58 59 60 60 61 56 55 61 61 58 60 60 61 61 62 61 63 61 63 64 66 64 63 63 62 61 60 61 59 59 59 59 60 60 59 58 56 55 54 54 54 54 53 53 52 52 54
57 55 51 57 61 61 58 49 56 59 59 57 58 58 59 60 62 63 64 64 65 66 65 64 67 63 60 59 59 58 58 58 57 57 57 58 59 57 55 54 53 53 53 52 51 51 50 49 49
51 46 48 55 62 60 56 50 57 59 59 57 58 59 59 59 61 63 65 65 65 65 65 63 63 61 60 59 58 58 57 57 57 57 57 58 58 57 54 52 52 52 51 51 52 48 48 47 46
44 47 47 49 58 56 52 51 55 58 58 58 56 58 60 59 61 65 65 66 65 63 63 62 61 59 59 58 58 56 55 56 56 56 56 57 56 56 53 52 51 51 50 49 49 48 47 45 44
53 50 49 52 60 55 53 53 54 56 57 54 55 56 58 61 65 66 67 65 63 61 61 61 59 59 60 58 57 54 54 54 54 55 56 55 55 54 52 51 51 50 49 47 48 45 45 44 43
57 51 51 56 58 57 51 49 50 54 58 57 57 56 60 62 64 65 64 63 61 62 61 61 61 59 61 62 57 57 55 54 54 54 54 54 54 54 53 50 49 49 47 47 46 45 43 42 42
52 50 50 52 54 53 51 47 50 56 56 58 60 59 61 62 62 63 63 62 61 61 61 61 61 60 61 60 58 54 53 53 52 51 51 52 53 52 50 49 47 46 46 44 43 43 43 41 40
48 56 55 53 49 43 49 39 47 52 55 56 58 58 59 62 65 64 63 62 62 61 61 62 62 61 61 60 59 58 55 55 51 50 50 50 50 50 50 48 47 45 44 44 43 45 41 40 39
52 57 54 52 48 44 45 42 45 50 50 56 60 59 58 60 65 64 63 64 63 61 60 60 61 60 61 59 57 55 53 51 50 49 48 47 47 49 49 48 46 45 44 43 43 42 41 40 39
59 54 51 47 44 34 43 42 41 45 54 59 63 62 61 57 58 59 59 61 61 60 59 59 60 60 59 60 56 54 52 50 49 46 46 45 45 45 47 47 46 48 47 43 42 41 41 39 39
55 47 37 36 32 32 46 42 45 55 57 57 58 62 62 59 58 56 58 59 58 58 59 59 58 55 57 58 53 52 52 53 52 49 47 45 45 45 45 48 48 47 47 44 43 43 40 39 38
49 47 35 32 28 36 44 38 47 57 60 60 60 59 58 56 60 58 59 59 59 59 58 59 56 53 53 52 51 50 51 52 52 51 47 47 48 47 48 48 48 46 45 43 42 41 39 39 38
52 45 49 37 34 33 38 46 54 56 54 53 53 54 53 53 56 58 59 59 58 57 55 55 55 53 52 51 52 51 51 53 51 50 50 49 48 49 48 48 47 45 44 42 42 39 39 39 38
54 55 42 38 32 31 36 39 42 52 55 53 51 54 53 52 54 55 56 55 56 56 55 53 55 54 54 53 54 54 53 52 51 49 49 49 49 50 47 47 47 44 43 43 42 40 41 39 38
50 47 46 45 36 31 28 37 49 53 55 56 53 54 53 52 54 56 57 57 56 56 54 54 54 52 52 53 51 49 49 49 49 50 50 49 49 48 48 47 45 43 43 43 41 40 40 39 38
51 49 47 34 37 31 29 36 53 55 56 54 58 55 54 54 56 57 57 56 56 55 55 55 55 54 54 51 50 49 49 49 48 48 49 48 48 47 45 44 43 43 44 43 41 39 40 38 37

GFSSGP_sfc_temp_030.txt.gz
Temp
60 60 61 60 50 43 38 47 51 54 55 60 64 61 57 61 58 51 68 69 72 71 72 72 73 74 74 74 74 74 74 75 75 75 75 75 75 75 75 75 75 76 77 77 77 76 76 75 73
61 64 61 52 42 36 42 49 51 52 59 61 63 63 60 59 66 64 66 70 73 73 72 72 73 73 74 74 74 74 75 75 75 75 75 75 75 74 74 74 75 76 77 77 77 77 75 74 72
64 66 56 46 38 39 41 50 53 57 61 61 60 64 61 60 66 66 70 71 72 72 71 71 72 73 73 73 73 74 74 74 74 74 75 75 75 75 74 74 75 76 76 77 77 76 74 72 71
62 59 54 47 38 47 50 54 55 57 60 62 59 56 62 65 65 68 71 71 70 70 70 70 71 72 73 73 73 73 73 72 73 74 74 75 75 75 74 74 75 76 76 76 75 74 73 71 70
57 52 44 41 44 50 57 56 57 56 55 58 59 56 59 65 67 69 69 69 68 69 70 71 70 72 73 73 73 72 72 72 73 73 74 74 74 74 73 73 73 74 74 75 74 73 72 71 70
52 50 40 38 45 55 56 57 58 57 57 59 57 56 59 65 65 64 66 65 66 66 67 70 72 71 71 72 71 71 71 72 72 72 73 73 72 72 72 72 72 72 72 72 72 71 71 71 70
50 45 38 41 47 52 55 57 57 57 55 55 58 55 59 61 63 64 64 63 63 64 65 65 68 69 69 69 69 69 70 70 71 71 71 71 70 71 71 72 71 72 71 71 71 71 70 71 69
52 48 39 43 47 49 56 59 58 57 52 61 58 54 56 60 62 63 63 62 62 62 63 62 62 65 64 67 68 69 69 69 69 70 69 69 70 70 70 71 71 71 71 71 71 70 69 69 68
53 45 40 44 48 52 56 54 59 60 56 59 60 59 61 62 63 62 60 60 60 61 61 62 62 63 64 66 68 69 69 69 69 69 69 66 65 65 66 69 70 70 69 69 69 68 67 66 66
50 44 47 55 55 53 55 55 58 56 53 57 58 61 62 61 60 59 58 57 59 59 60 61 61 62 63 68 65 64 67 65 64 64 64 64 63 63 66 67 68 68 68 67 67 66 65 63 59
48 49 55 59 58 56 54 55 59 56 51 57 57 59 60 60 60 59 59 59 59 60 60 60 61 61 62 64 62 62 62 62 63 64 63 62 62 62 61 61 61 60 64 61 61 60 59 58 57
49 57 59 57 59 57 56 58 56 54 54 61 61 61 60 60 60 60 60 60 59 60 60 62 63 64 63 63 62 61 62 62 60 61 63 61 60 60 59 59 57 57 57 57 56 56 56 55 56
53 57 59 61 60 59 61 56 54 53 57 61 60 60 60 60 60 62 63 61 60 61 62 62 62 62 62 61 60 60 61 60 61 61 61 59 59 58 57 57 56 55 56 55 54 54 55 54 54
59 58 57 59 59 61 56 55 57 56 59 59 59 59 60 60 60 60 60 59 60 62 62 62 62 63 62 59 60 60 60 60 60 60 59 60 58 56 56 55 55 54 54 53 53 52 52 51 52
59 55 58 56 58 59 61 54 53 58 60 57 58 60 61 61 61 60 60 60 62 62 63 61 62 63 61 60 60 60 59 59 59 59 59 59 58 57 55 53 53 53 53 53 52 51 51 50 52
53 53 48 56 58 59 59 46 52 58 58 56 57 58 59 60 61 61 62 62 61 61 61 62 66 61 59 59 59 58 58 58 57 57 57 58 58 56 54 53 52 52 52 51 50 50 49 48 48
49 42 48 51 60 58 54 48 54 57 57 57 56 56 56 57 59 60 62 61 62 62 62 62 62 60 59 58 58 57 57 56 56 55 56 57 56 56 53 52 51 51 50 50 51 47 48 46 46
43 44 41 47 56 54 48 49 52 56 56 55 55 56 56 57 59 62 62 62 61 61 62 61 60 59 58 57 56 55 54 55 55 55 56 56 55 54 52 51 50 50 49 48 48 46 45 45 44
51 47 45 50 57 54 52 50 52 53 55 53 55 56 57 58 62 62 62 61 61 60 60 60 58 57 58 57 55 53 53 53 53 54 55 55 54 53 51 49 49 49 48 47 47 45 44 42 42
52 48 48 53 56 53 46 46 49 52 54 57 55 56 58 59 59 61 60 60 61 61 61 60 59 58 60 61 56 55 54 53 53 53 53 53 52 51 51 48 47 47 46 45 45 45 42 41 41
50 48 48 50 51 48 46 45 46 53 55 57 57 58 60 59 59 61 61 60 60 60 60 60 59 59 60 60 56 52 53 52 51 50 50 51 51 50 49 48 46 45 45 44 43 43 43 41 40
45 53 50 51 46 40 46 38 44 48 52 54 56 55 57 59 61 62 61 59 59 60 60 61 60 59 60 59 58 56 55 52 50 49 48 48 49 48 48 47 45 45 44 43 44 44 42 41 39
51 54 50 50 46 43 43 41 44 46 49 54 57 56 58 58 60 60 61 62 61 58 59 60 59 59 59 59 59 55 53 52 50 48 46 46 46 47 47 46 46 44 44 46 46 43 41 40 39
56 51 49 46 43 34 41 39 40 43 52 58 61 60 60 57 58 59 60 60 58 57 57 58 59 59 59 59 56 54 51 51 50 46 45 45 44 45 46 46 44 46 47 45 44 41 41 40 39
51 45 36 35 32 32 43 39 44 53 53 54 57 58 60 60 56 55 56 58 58 57 58 59 60 59 58 57 55 54 55 53 52 49 46 44 44 44 44 45 46 46 47 46 43 41 41 39 38
46 46 34 31 28 35 42 37 47 54 57 57 57 56 57 55 59 57 58 59 58 58 58 59 59 59 56 57 55 55 55 53 54 49 48 48 48 47 48 48 46 47 46 43 43 42 39 39 38
47 42 48 36 33 32 37 44 52 52 53 53 54 53 52 51 55 58 57 58 58 58 58 59 57 58 55 54 53 53 52 53 50 48 48 47 49 49 48 48 47 47 45 45 43 42 40 39 38
50 52 40 36 32 30 34 36 40 50 52 52 52 53 52 51 52 54 56 57 58 59 59 57 56 54 54 52 51 51 50 50 50 49 47 47 48 49 48 47 47 45 45 44 43 41 40 38 37
46 44 43 43 35 31 27 35 47 51 52 51 53 53 53 52 52 53 55 56 56 55 53 53 52 51 50 50 49 48 48 48 49 49 49 49 49 48 48 47 46 45 44 43 41 40 39 38 37
49 47 44 33 36 30 29 34 52 52 52 53 54 55 52 52 52 52 53 53 52 53 52 52 50 50 49 48 47 47 48 49 48 48 50 49 49 47 47 46 45 44 44 43 41 39 40 38 37

GFSSGP_sfc_temp_033.txt.gz
Temp
70 71 74 73 64 60 56 58 62 63 64 66 68 68 65 66 63 61 70 72 76 74 79 78 73 74 74 74 74 74 75 75 75 75 75 75 75 75 75 75 76 76 77 77 77 77 77 75 74
71 72 73 66 60 54 58 60 61 64 66 67 66 66 66 59 67 65 67 72 75 75 78 79 73 73 74 74 74 74 75 75 75 75 75 75 75 75 75 75 75 76 77 77 77 77 76 74 73
73 72 70 63 56 54 57 61 63 65 66 66 64 66 65 60 68 68 72 74 74 75 78 78 72 73 73 73 74 74 74 74 74 74 75 75 75 75 75 75 75 76 77 77 77 76 74 72 71
72 72 66 59 53 57 59 64 62 64 67 68 66 60 65 67 66 70 73 73 72 75 77 73 71 72 73 73 74 73 73 73 73 74 74 75 75 75 75 74 75 76 76 76 75 74 72 71 70
69 66 58 55 54 59 63 64 64 62 63 64 65 58 61 65 67 69 70 72 69 71 75 74 70 72 73 73 73 73 72 72 73 73 74 74 74 74 73 73 74 74 75 75 74 73 71 71 70
66 64 56 54 56 61 64 64 65 63 63 64 63 63 59 66 65 64 65 65 66 67 69 72 72 71 71 72 71 71 71 72 72 73 73 73 73 72 72 72 72 72 72 72 72 71 71 71 70
63 60 55 54 56 59 62 65 63 62 62 61 65 60 59 61 63 63 63 63 64 64 65 67 67 68 69 69 69 70 70 71 71 71 71 71 71 71 71 72 72 72 71 71 71 71 70 70 69
64 63 55 55 56 57 63 64 64 61 58 65 65 59 56 60 62 63 62 62 62 62 63 63 63 64 65 67 68 69 69 69 70 70 70 69 70 71 71 71 71 71 71 71 70 70 69 68 67
65 60 55 56 57 61 63 62 62 64 61 62 63 62 61 61 64 62 60 60 60 60 60 61 61 62 66 68 70 70 70 69 69 70 68 69 76 75 75 70 70 70 68 68 68 67 66 66 66
65 57 57 63 64 62 62 63 62 61 59 58 58 60 61 62 63 60 59 57 58 57 59 60 61 61 67 70 67 69 69 69 70 72 72 74 73 73 74 71 67 67 67 66 66 66 66 69 73
61 59 62 65 65 65 63 62 65 60 57 60 58 58 59 60 61 59 59 59 59 60 60 61 61 61 63 66 66 68 67 68 68 68 70 69 71 72 73 72 72 71 68 71 70 70 71 68 71
59 63 65 65 64 63 62 66 59 60 63 65 64 62 60 59 60 60 59 59 59 61 60 60 61 61 64 66 67 66 70 67 67 68 70 71 71 70 70 70 69 69 68 67 68 68 66 67 67
60 64 65 65 64 63 64 59 59 58 61 64 63 61 60 61 62 62 62 62 63 61 63 62 63 64 66 65 66 66 68 70 71 71 72 72 70 68 69 67 68 68 69 68 68 68 68 66 66
64 64 63 62 64 64 60 58 61 59 62 60 61 62 62 62 63 63 62 61 63 64 64 65 66 68 67 66 67 69 69 70 69 70 70 69 69 66 67 67 68 68 69 69 69 68 67 66 66
65 61 62 63 63 62 63 59 57 61 62 60 60 62 61 62 63 63 63 63 65 67 68 66 66 68 67 66 67 66 68 68 69 69 68 68 68 67 66 67 66 66 66 66 66 65 65 65 64
61 60 56 61 61 61 63 53 55 61 60 59 61 61 61 61 65 67 65 66 67 67 66 67 68 68 67 67 68 67 67 68 67 66 66 67 67 66 66 66 65 65 66 66 65 64 64 64 64
57 54 55 58 64 62 61 55 57 61 60 59 61 62 63 62 64 66 68 68 68 68 68 68 68 67 66 67 68 67 67 67 67 65 66 66 66 66 66 66 64 64 64 63 64 62 64 63 63
52 53 56 56 62 62 58 57 57 59 59 59 61 63 62 63 65 66 67 69 69 69 68 69 68 68 67 67 65 66 65 65 65 66 68 66 66 65 64 63 62 63 63 62 63 61 61 61 62
58 55 54 59 63 60 58 57 55 57 57 58 59 61 62 64 68 68 67 68 68 67 68 68 67 66 66 64 65 64 61 62 63 66 65 64 65 64 63 63 62 63 63 61 61 60 58 59 59
57 55 55 58 59 59 56 55 58 57 58 60 61 61 62 65 66 66 67 67 67 68 68 67 68 66 67 69 68 67 64 63 65 65 64 64 63 63 62 61 62 62 61 59 59 58 57 59 57
56 55 54 55 57 57 56 54 54 58 61 62 63 65 66 66 66 67 65 66 67 68 67 68 68 67 67 68 67 63 61 60 61 62 62 63 62 63 62 61 60 59 60 59 58 57 56 55 54
54 59 56 54 54 50 56 50 54 55 57 59 63 63 64 66 67 69 68 67 66 67 68 68 68 67 67 66 66 63 63 62 62 60 61 61 60 60 61 60 59 58 58 57 57 55 52 55 54
57 59 57 57 53 52 51 51 56 54 54 59 62 64 65 67 67 68 69 70 70 68 66 67 67 66 66 64 64 62 62 62 59 58 57 57 58 59 59 59 57 57 57 56 55 53 53 55 55
61 57 54 52 51 44 48 50 54 56 60 62 66 66 66 67 67 69 70 70 70 67 66 66 64 65 64 63 64 62 61 58 56 53 53 55 57 56 57 58 57 57 56 54 54 49 49 54 54
59 53 46 44 42 42 49 47 55 61 62 63 65 67 68 68 68 68 67 67 68 64 64 65 63 62 60 61 61 62 60 59 58 53 50 51 54 55 55 56 56 55 53 51 47 49 53 53 53
55 54 45 36 37 44 47 44 57 63 64 64 64 65 66 67 68 69 70 69 68 64 65 65 64 63 61 61 62 61 61 61 58 54 52 53 56 57 56 56 56 55 52 51 53 54 53 52 52
54 50 54 42 39 40 46 52 60 62 63 62 61 61 64 65 65 67 69 69 68 65 64 65 66 66 64 61 62 61 61 60 57 55 57 56 57 56 54 54 49 54 54 49 50 53 52 52 51
57 58 47 45 37 35 43 44 51 58 61 62 63 64 64 63 62 64 66 66 67 66 66 65 67 67 67 63 62 62 62 60 60 57 55 54 55 56 54 53 54 53 49 53 51 53 52 51 52
52 51 49 50 45 40 37 45 56 59 62 62 62 62 63 63 63 64 64 65 66 66 66 65 66 66 64 64 62 61 60 59 57 55 53 54 55 55 54 51 53 48 48 50 50 51 51 50 51
56 54 52 44 41 40 39 45 60 60 60 60 63 62 63 64 64 64 64 63 63 63 64 63 63 63 62 60 58 59 58 56 54 54 55 55 55 54 52 51 48 50 49 49 48 47 50 49 49

GFSSGP_sfc_temp_036.txt.gz
Temp
77 87 90 85 71 71 66 69 75 73 74 76 77 76 77 74 72 66 76 78 81 82 85 81 73 74 74 74 74 74 75 75 75 75 75 75 75 75 75 75 76 76 77 78 77 77 77 75 74
88 84 86 83 67 62 66 72 71 74 76 76 73 75 75 66 75 72 70 73 81 81 84 83 72 73 74 74 74 74 75 75 75 75 75 75 75 75 75 75 75 76 77 78 78 77 76 74 72
84 84 79 75 69 63 67 71 73 75 76 75 73 76 70 64 72 71 79 75 79 79 82 83 72 73 73 74 74 74 74 74 74 75 75 75 75 75 75 75 75 76 77 77 77 76 74 72 71
87 84 81 68 65 70 69 73 74 72 74 76 77 69 68 66 70 75 76 73 74 76 81 74 71 72 73 74 74 74 74 73 74 74 75 75 75 75 75 74 75 76 76 76 75 74 72 71 70
88 81 69 65 65 70 74 75 73 71 72 72 75 67 66 67 70 73 75 75 72 75 77 77 71 72 73 74 73 73 73 73 73 74 74 74 75 75 74 74 74 75 75 75 74 73 71 71 70
78 79 66 65 65 71 74 74 73 71 71 72 73 72 63 65 65 65 69 69 74 72 75 74 72 72 72 72 72 72 72 72 73 73 73 74 73 72 73 72 72 73 73 72 72 71 71 70 70
73 72 66 65 65 68 69 75 71 70 71 69 74 67 61 61 63 63 64 65 67 70 69 68 68 70 70 68 69 70 71 71 72 72 72 72 71 72 72 72 72 72 72 72 71 71 70 70 69
78 74 65 68 66 65 71 71 72 71 69 73 74 66 58 60 63 64 64 63 63 65 66 65 64 65 67 69 68 69 69 70 70 70 70 70 70 71 71 71 72 72 71 71 70 69 69 68 67
79 69 70 65 66 69 73 70 71 73 69 69 68 71 66 62 64 62 61 60 60 61 62 63 62 63 65 69 68 70 69 69 69 70 69 71 81 81 80 71 69 69 68 69 68 68 67 66 66
74 70 66 73 74 72 72 72 70 68 69 65 59 62 63 63 64 63 59 58 58 59 60 61 61 62 63 67 69 72 74 75 75 76 78 81 79 79 81 72 67 67 67 67 67 67 68 74 82
74 70 73 75 74 76 73 71 72 67 66 70 58 58 61 63 64 62 60 58 57 58 59 60 61 62 63 64 67 73 74 72 72 71 74 75 76 75 78 77 78 76 73 78 77 77 81 78 79
68 74 74 75 74 73 71 73 69 68 65 71 63 61 62 62 63 62 60 57 58 59 59 60 61 61 63 64 71 70 72 72 71 72 72 73 76 77 78 79 78 77 79 77 78 77 75 75 75
69 73 74 74 72 72 72 69 68 65 71 66 63 61 61 63 63 61 60 60 60 59 59 59 60 61 63 65 70 71 71 73 74 75 79 80 79 77 79 77 79 79 78 78 77 76 76 74 74
73 72 71 72 71 71 69 68 69 68 70 63 66 60 62 64 61 60 60 62 61 62 61 63 65 67 68 71 71 73 74 76 75 77 79 78 80 76 76 76 77 77 79 78 78 77 76 76 75
73 68 73 72 70 69 72 67 67 71 70 66 70 69 65 66 66 63 65 68 66 66 65 65 67 72 72 73 76 76 76 76 79 79 75 77 77 74 75 77 76 76 76 75 74 74 75 75 75
69 70 59 67 70 71 70 62 67 71 69 68 67 67 66 66 69 70 71 72 72 70 69 71 72 71 71 71 74 77 77 77 79 77 76 76 77 75 75 75 75 75 75 75 75 74 74 75 75
68 62 61 63 72 69 69 65 70 71 70 65 69 68 67 67 71 72 74 75 75 74 73 73 74 74 74 74 75 73 76 74 79 74 75 74 75 75 76 76 74 73 74 73 73 72 74 73 73
60 62 65 63 69 69 67 68 69 69 69 67 70 70 71 71 73 73 74 75 75 75 74 74 74 74 73 75 74 77 75 75 76 76 76 75 77 74 75 74 71 73 73 72 72 70 71 72 72
67 64 63 68 71 68 68 70 69 68 67 67 68 71 72 73 77 77 76 75 74 74 73 74 73 73 72 75 74 75 73 74 75 76 76 74 75 74 73 73 71 72 72 71 69 69 67 68 69
65 63 63 67 67 67 67 68 72 70 68 69 70 71 73 74 76 75 76 76 74 75 74 74 75 74 74 78 77 77 75 75 76 76 74 74 73 74 73 71 71 72 70 68 67 67 67 69 67
65 63 63 62 66 67 66 64 65 70 72 71 72 75 76 76 76 76 75 75 76 75 74 75 77 77 76 78 78 76 75 71 70 72 72 72 72 73 72 71 71 70 70 68 66 66 64 64 64
60 68 64 63 61 57 65 57 65 69 67 70 72 73 75 77 79 80 78 77 76 76 77 77 78 78 78 77 76 72 72 69 68 69 72 69 67 70 72 70 68 68 69 67 66 66 65 63 62
64 67 65 64 62 59 60 59 63 65 66 70 72 74 77 78 80 80 81 80 80 79 77 77 78 78 78 76 74 71 70 72 71 70 69 67 66 68 70 67 65 65 67 66 65 63 62 64 58
69 66 64 63 62 51 59 58 63 66 69 73 77 77 77 79 80 81 83 83 81 80 77 75 75 77 76 71 66 66 68 69 66 67 66 65 65 64 63 62 63 66 66 64 62 60 61 59 62
67 63 52 50 49 48 58 56 63 71 74 74 75 79 80 80 80 80 80 81 81 80 76 75 75 69 71 67 63 65 67 67 63 65 64 60 55 55 56 61 64 65 65 62 61 60 57 60 61
64 64 53 41 43 53 56 52 66 73 75 76 77 78 79 81 81 81 82 82 82 80 78 76 74 67 63 62 65 66 67 68 66 68 59 54 53 55 60 62 65 65 56 59 58 59 54 57 60
61 57 65 52 50 50 57 61 70 73 72 74 74 73 76 79 81 81 83 83 81 80 77 75 74 72 69 64 63 64 65 66 68 68 58 57 58 61 62 63 61 58 59 57 59 56 58 59 59
65 68 54 57 43 41 52 54 60 66 69 72 74 75 76 77 77 78 79 80 82 81 79 76 77 76 73 69 66 67 66 67 68 68 62 61 60 64 62 61 60 56 55 57 57 52 59 58 58
60 59 59 60 55 46 44 54 69 68 71 72 74 74 77 78 77 76 77 78 78 79 78 76 76 77 77 75 70 67 68 68 67 66 62 61 61 62 57 60 58 55 57 56 54 59 58 56 56
68 64 63 52 50 52 49 52 73 74 72 72 74 73 75 76 77 78 76 75 75 75 77 76 76 77 78 77 74 70 68 66 64 62 61 60 59 60 60 61 57 52 56 58 55 55 55 53 52

GFSSGP_sfc_temp_039.txt.gz
Temp
78 87 94 89 72 73 68 73 82 77 79 85 85 82 82 81 74 65 79 79 85 83 83 80 74 74 74 74 74 74 75 75 75 75 75 75 75 75 75 76 76 77 78 78 78 77 76 75 74
93 92 90 83 68 65 69 79 74 80 82 83 80 83 80 74 81 76 77 81 81 81 85 82 73 74 74 74 74 74 75 75 75 75 75 75 75 75 75 75 75 76 77 78 77 77 75 74 72
87 92 81 76 71 66 66 77 79 80 82 81 79 83 77 69 74 78 85 83 81 77 84 78 72 73 73 74 74 74 74 74 74 75 75 75 75 75 75 75 76 77 77 78 77 76 74 72 71
89 88 84 70 67 74 74 78 79 80 82 83 84 73 75 73 66 67 80 83 78 71 74 72 71 72 73 73 74 74 73 73 74 74 75 75 75 75 75 75 76 76 77 77 76 74 72 71 70
90 85 72 70 70 75 79 81 80 78 78 78 81 71 72 69 71 72 73 77 72 68 71 73 70 72 73 74 73 73 73 73 73 74 74 74 75 74 74 74 74 75 75 75 74 72 71 71 70
80 83 69 65 70 75 79 81 80 77 77 78 78 73 68 66 67 67 73 73 74 72 71 70 72 72 72 72 72 72 72 72 73 73 74 74 73 73 73 73 73 73 72 72 72 71 71 70 70
77 75 69 69 69 69 73 80 77 78 77 77 81 71 67 63 65 65 66 68 70 68 68 69 70 71 69 69 69 70 71 71 72 72 71 71 71 71 72 72 72 72 71 71 71 71 70 70 69
82 78 70 72 65 58 77 77 79 77 76 80 81 70 68 62 64 64 64 63 66 66 66 67 67 71 70 70 68 69 69 70 70 70 70 70 71 71 71 71 72 71 71 71 70 69 69 69 68
86 72 68 69 69 68 79 76 79 78 76 76 76 72 69 63 65 65 62 62 61 63 64 64 64 66 69 68 69 69 70 69 69 70 69 71 80 81 79 70 70 70 69 69 69 68 67 67 67
78 73 71 78 78 76 79 78 77 74 75 71 63 64 65 64 64 62 60 59 60 59 60 61 62 63 64 70 70 70 74 77 75 76 73 79 78 80 76 69 67 67 67 67 68 68 67 69 81
79 72 77 79 79 80 78 77 78 74 71 70 63 59 62 63 64 61 60 60 59 59 59 60 62 62 63 65 66 67 73 75 75 75 76 75 75 73 72 70 74 73 72 78 75 74 81 79 80
72 78 79 80 80 78 76 80 75 74 71 75 69 66 64 64 64 62 58 57 57 58 59 59 61 60 61 61 63 66 66 71 72 74 74 73 72 73 73 76 78 77 80 78 79 79 76 76 77
74 77 79 80 78 78 78 74 73 71 71 70 66 63 62 63 64 66 61 59 58 57 58 57 59 60 61 61 61 64 69 72 72 73 74 74 74 74 79 79 79 80 80 79 78 76 77 76 76
77 77 77 78 77 77 74 73 76 74 74 69 66 63 60 63 62 59 59 58 58 57 57 59 60 61 62 62 62 63 71 76 76 75 76 78 80 78 79 78 79 79 80 80 79 77 77 78 77
78 72 76 77 77 76 77 62 72 75 73 72 72 67 59 60 61 62 63 60 59 58 59 59 59 61 62 63 65 72 76 78 76 77 77 78 80 77 78 79 78 79 79 78 76 76 76 76 76
74 74 65 72 76 77 62 48 72 76 73 73 73 69 63 66 69 66 64 65 64 65 65 65 68 63 67 70 75 77 77 75 77 79 78 77 80 77 76 77 77 78 77 78 76 76 75 75 75
72 63 65 66 76 76 70 51 73 77 71 69 72 72 70 69 74 75 74 71 70 70 70 68 70 70 71 74 75 77 78 78 80 80 78 77 79 78 78 78 77 76 77 76 75 74 75 72 73
63 65 67 57 72 74 72 69 74 76 73 70 70 72 68 67 70 73 74 74 75 73 72 72 72 71 72 73 72 76 77 76 78 78 77 76 78 77 77 78 75 75 76 74 74 72 73 73 73
71 68 66 67 75 71 69 71 68 74 74 71 70 72 73 74 77 76 76 75 74 74 73 72 73 74 73 74 76 76 74 76 74 75 77 77 79 77 76 77 74 74 74 73 72 71 69 69 71
70 67 67 71 74 71 71 71 76 76 74 75 74 74 76 78 77 76 76 75 75 74 74 74 74 75 75 78 78 78 78 79 79 78 76 78 77 77 76 75 74 73 74 71 70 70 69 71 70
68 66 67 66 71 74 71 68 72 77 77 76 77 78 78 78 78 78 77 76 75 75 75 76 78 76 75 78 80 80 79 78 77 77 77 77 76 77 76 74 73 72 73 69 69 68 68 67 68
62 73 69 67 65 59 72 55 63 74 73 75 76 77 79 80 81 81 80 78 77 77 78 78 79 78 76 77 76 77 76 71 73 74 76 76 74 73 74 72 72 71 72 70 69 70 68 65 63
66 72 69 69 66 64 65 60 63 74 70 73 77 77 79 81 82 82 82 82 82 80 79 79 80 80 81 76 77 78 75 76 75 74 73 73 70 71 69 71 70 69 70 68 67 67 64 63 62
75 69 69 69 65 53 62 62 59 67 72 76 79 80 80 81 83 84 86 85 84 83 81 79 79 80 81 79 76 74 74 72 69 71 69 69 69 69 69 70 67 67 64 63 67 65 63 63 62
70 64 52 51 50 49 65 61 65 64 77 77 78 82 82 83 83 84 84 85 84 82 81 80 80 79 80 78 74 67 65 67 67 67 66 66 67 67 67 61 58 60 61 67 67 63 55 58 60
66 65 53 33 45 52 63 55 65 78 80 81 82 83 85 84 84 85 86 86 85 84 82 80 79 78 78 74 69 66 65 66 67 69 66 67 68 66 58 56 58 60 65 66 61 55 60 60 60
65 60 70 56 58 53 60 66 73 77 76 78 79 79 81 84 86 85 87 87 86 86 84 81 80 78 76 72 66 65 67 68 69 67 68 66 62 57 54 56 58 61 63 57 57 57 54 57 57
69 72 57 59 44 42 55 59 62 68 72 75 77 78 80 83 84 86 87 87 88 88 87 83 82 80 75 68 71 66 69 69 70 69 66 65 61 59 59 59 60 60 58 59 59 56 58 56 58
64 62 64 63 58 46 45 56 72 71 74 74 78 79 81 81 81 82 84 86 87 89 87 84 82 81 74 72 72 69 70 69 68 67 65 63 61 60 61 62 61 57 56 58 58 55 54 57 56
70 65 65 53 52 56 53 55 76 76 77 77 78 79 81 82 83 83 83 82 83 83 84 83 81 81 81 75 74 72 72 69 66 65 64 63 62 62 62 61 58 56 58 58 53 50 56 55 49

GFSSGP_sfc_temp_042.txt.gz
Temp
74 83 85 82 66 67 62 67 78 77 76 72 71 64 66 65 74 61 71 68 67 72 77 78 74 74 74 74 74 74 75 75 75 75 75 75 75 75 75 75 76 77 77 77 77 76 76 75 74
86 88 87 77 62 58 63 74 74 77 73 77 73 64 63 59 65 74 74 74 73 77 79 77 73 74 74 74 74 74 75 75 75 75 75 75 75 75 75 75 75 76 77 77 77 76 75 74 72
81 88 76 70 65 59 64 74 75 80 81 73 69 77 73 57 65 73 77 75 75 77 78 76 73 73 73 73 74 74 74 74 74 75 75 75 75 75 75 75 75 76 77 77 76 75 73 72 71
84 84 79 66 63 71 73 76 79 79 64 73 81 68 69 72 68 71 75 73 70 70 75 70 72 72 73 73 74 73 73 73 73 74 75 75 75 75 75 75 76 77 77 76 75 74 72 71 71
87 80 67 65 67 75 78 79 81 77 61 64 71 59 60 68 71 71 73 75 70 70 71 71 69 71 72 73 73 73 73 73 73 74 74 74 75 74 74 74 75 75 75 74 73 72 71 70 70
76 79 64 62 68 69 66 66 74 78 68 66 68 58 58 67 67 65 68 73 72 69 70 70 71 72 72 72 72 72 72 72 72 73 73 73 73 73 73 73 73 73 72 72 71 71 70 70 70
73 71 66 68 68 65 59 62 62 65 63 59 63 53 61 62 64 65 65 68 68 68 69 68 68 70 69 69 70 70 71 71 71 71 71 71 71 71 72 72 72 72 71 71 70 70 69 70 69
80 74 67 71 66 64 66 66 69 77 59 64 69 66 61 61 64 64 63 64 66 65 66 65 66 67 68 69 69 70 70 69 70 70 70 70 70 71 71 71 71 71 71 70 70 69 69 69 69
85 68 64 69 70 70 77 69 63 66 76 69 66 64 62 64 67 65 62 61 62 64 64 65 65 64 66 68 69 70 70 69 69 70 69 70 71 72 73 69 69 70 69 69 69 68 68 68 68
76 68 70 77 78 74 78 76 59 64 76 61 62 64 65 66 65 61 60 59 59 60 61 62 64 65 67 70 69 69 70 71 71 71 70 71 70 71 70 68 67 67 67 68 68 68 68 68 67
77 69 76 78 78 79 77 67 63 73 64 59 57 61 63 63 61 59 58 59 58 59 60 61 61 62 63 66 67 67 68 71 70 68 70 69 69 68 66 65 66 65 67 68 68 66 67 69 68
71 78 79 79 80 77 75 76 67 68 66 69 66 65 64 63 61 58 56 57 57 57 58 59 61 61 61 62 63 64 64 65 68 70 69 69 68 67 66 66 67 66 68 66 67 66 67 68 69
74 76 79 81 79 78 79 75 73 70 69 68 66 65 63 64 60 59 58 57 57 56 57 57 59 59 59 59 60 62 63 65 67 69 69 69 68 68 67 67 68 68 69 68 67 67 67 67 67
78 77 77 80 78 79 74 57 60 64 71 66 66 62 59 59 59 57 57 56 56 56 56 57 57 58 59 59 60 59 61 64 65 67 68 70 68 68 69 69 70 69 69 69 68 67 66 65 65
78 71 75 76 78 74 70 59 52 60 72 69 67 63 60 57 59 60 59 56 57 57 58 57 58 59 58 59 60 61 63 67 68 69 69 70 71 70 70 69 68 68 69 69 67 67 66 64 66
71 72 63 72 75 71 67 50 63 68 69 66 66 64 61 59 63 64 60 59 59 59 59 60 61 59 58 59 58 59 62 68 72 70 69 71 73 71 69 68 68 69 68 67 65 64 64 63 63
68 60 64 68 75 71 67 51 60 67 73 67 65 65 65 62 63 63 63 62 62 62 62 61 60 59 58 59 60 63 67 69 70 69 70 70 72 71 69 69 69 68 67 65 66 64 63 61 61
60 61 65 63 69 73 59 55 56 57 71 68 70 68 67 68 66 65 67 66 67 65 64 63 61 61 61 60 62 68 69 70 70 69 68 70 72 72 69 68 67 67 65 64 64 62 62 61 60
69 66 63 68 71 68 65 61 57 65 70 68 68 64 66 66 70 70 69 67 67 67 65 66 62 62 64 65 66 66 64 67 67 68 70 70 70 70 68 67 66 65 65 63 63 61 59 58 59
69 65 65 71 74 71 69 69 69 72 71 70 67 67 67 68 69 70 68 68 67 66 66 66 67 68 68 68 68 68 68 68 70 69 69 70 69 71 69 67 63 65 64 63 61 60 57 58 58
66 64 65 63 68 72 69 65 70 72 75 75 73 73 74 72 68 70 70 68 68 66 66 68 69 69 69 71 72 72 70 69 70 70 67 69 69 70 69 67 65 64 63 60 60 59 58 55 55
61 72 69 66 63 56 70 52 65 69 70 72 74 73 74 76 74 72 72 69 69 69 69 70 71 72 72 72 72 70 70 68 68 68 69 69 69 69 68 68 65 64 63 61 60 62 60 57 54
65 70 67 67 63 62 63 58 65 71 68 70 72 74 76 77 77 74 73 73 72 72 71 71 72 74 72 71 71 69 69 68 68 67 68 68 66 66 65 65 63 62 61 62 59 60 59 58 53
75 68 67 66 62 49 60 60 58 62 64 72 75 76 77 77 78 79 78 77 75 73 72 71 72 74 74 72 71 69 65 68 65 64 63 64 62 63 63 65 61 61 61 59 58 58 58 54 53
70 63 50 47 47 46 63 60 63 66 71 73 76 78 77 78 78 78 79 77 77 74 72 73 73 73 74 71 70 69 68 66 65 63 63 60 60 60 60 61 60 57 58 58 58 57 55 54 51
64 63 50 34 34 46 59 54 63 75 79 80 81 81 81 79 78 79 80 79 78 76 75 74 73 73 74 72 70 70 69 67 65 65 63 61 61 61 61 61 57 57 57 56 57 56 54 53 53
64 57 67 46 45 41 47 62 73 76 76 77 78 79 78 80 80 80 81 81 80 78 76 74 75 75 74 73 70 68 68 67 66 64 64 62 62 60 56 56 55 55 56 57 54 52 52 53 52
67 71 55 56 40 38 53 56 58 65 70 75 75 76 78 81 81 81 81 81 82 81 80 76 77 74 77 74 71 67 67 64 64 65 63 62 61 57 55 54 54 55 55 54 53 52 53 52 51
63 60 61 61 56 43 42 52 62 60 61 73 76 77 78 78 79 80 80 81 81 82 82 77 77 77 75 73 68 67 66 65 65 64 63 63 57 57 56 55 55 56 54 54 52 52 52 51 51
68 63 62 50 50 53 47 50 74 72 70 76 76 78 79 79 80 80 79 79 79 79 81 77 78 75 73 70 69 68 65 65 64 63 62 59 58 58 58 57 56 57 54 53 51 51 52 49 46

GFSSGP_sfc_temp_045.txt.gz
Temp
64 70 68 66 51 47 45 53 64 65 66 68 67 67 61 61 59 53 66 65 66 67 67 74 73 74 74 74 74 75 75 75 75 75 75 75 75 75 75 75 75 76 77 77 77 77 76 75 74
70 77 69 60 46 39 48 62 62 67 71 67 67 67 64 57 66 67 65 68 69 70 71 71 73 74 74 74 74 75 75 75 75 75 75 75 75 75 75 75 75 76 76 77 77 77 75 73 72
70 76 59 52 45 45 47 62 70 68 72 71 68 65 64 57 66 67 68 69 71 73 74 73 73 73 73 74 74 74 74 74 75 75 75 75 75 75 75 75 75 76 76 77 77 75 73 72 71
71 65 62 49 48 56 59 60 61 71 69 67 66 58 63 67 67 68 71 70 69 70 72 71 72 73 73 73 74 73 73 73 73 74 75 75 75 75 75 75 75 76 76 76 75 74 72 71 70
67 60 49 47 52 62 60 63 65 65 62 59 64 56 60 65 68 69 69 71 68 68 69 70 69 72 73 73 73 73 72 73 73 74 74 74 75 75 74 74 75 75 75 74 73 72 71 70 71
59 60 47 48 57 62 61 62 67 66 64 62 58 58 59 64 65 65 66 69 67 68 69 69 70 70 71 71 71 71 72 72 72 73 73 73 73 73 73 73 73 73 72 71 71 70 70 71 71
56 51 48 53 58 58 60 65 63 63 63 59 64 57 59 61 64 64 65 65 65 67 67 67 69 70 69 69 69 70 71 71 71 71 71 71 71 71 72 72 72 71 71 71 70 70 70 70 70
63 56 52 57 58 53 62 67 65 64 60 64 66 58 57 60 63 63 65 65 64 66 65 65 66 66 67 68 68 69 69 69 70 70 70 69 70 70 71 71 71 71 71 70 70 69 70 70 70
65 52 50 56 61 60 67 59 64 66 61 61 64 62 62 63 64 62 62 62 63 64 64 64 63 64 65 66 69 70 70 70 69 70 69 68 68 68 69 69 70 70 69 69 69 69 69 69 68
59 49 56 69 65 64 64 59 60 59 58 57 58 61 63 63 62 60 59 58 61 61 62 63 62 63 64 67 66 68 69 70 69 69 67 68 66 67 68 68 68 68 68 68 68 68 68 68 64
63 55 67 71 71 69 65 62 64 59 52 59 57 57 61 60 59 58 58 57 58 60 61 63 63 63 64 65 66 67 65 67 67 67 67 67 65 65 65 65 65 64 66 66 66 66 66 65 63
59 69 70 69 69 67 62 63 62 61 59 63 61 63 62 59 57 57 56 57 57 57 58 61 62 63 63 63 64 64 63 66 65 67 68 66 64 64 64 65 64 64 64 64 63 63 63 63 65
64 67 71 72 71 68 64 56 57 57 62 64 64 62 60 58 57 57 57 57 57 55 56 58 59 60 60 61 62 62 63 64 64 66 67 66 66 64 64 64 64 64 63 62 62 63 64 63 64
69 68 69 71 71 70 63 59 60 59 64 62 61 56 58 57 56 55 55 55 56 56 55 57 57 58 60 60 61 60 60 61 62 65 66 67 66 65 64 64 64 63 64 64 64 63 63 62 62
70 62 66 69 71 67 65 60 58 62 63 64 59 56 56 57 57 56 56 55 56 56 57 56 56 58 57 58 60 60 61 64 64 67 68 67 67 66 66 66 64 65 64 65 63 63 61 59 61
61 60 51 66 69 64 61 48 61 63 60 60 57 56 56 55 57 57 58 57 57 57 56 57 59 58 57 58 58 59 59 59 64 66 66 67 68 66 65 63 64 66 63 63 62 61 60 58 58
54 49 53 62 68 63 57 50 61 63 62 59 57 56 55 55 57 57 57 56 57 57 58 57 58 58 58 58 58 60 61 60 66 65 64 66 68 68 65 62 62 64 63 62 63 60 59 57 56
49 51 49 54 60 59 53 53 59 61 60 59 57 58 57 57 57 57 57 57 57 57 58 58 59 60 60 60 62 63 62 65 64 63 63 65 66 67 65 62 62 64 62 60 59 59 57 56 56
60 58 56 57 64 61 57 54 55 58 53 58 57 59 59 58 60 60 58 58 57 57 57 57 57 58 59 59 57 60 59 62 65 63 66 65 64 66 64 62 63 63 61 60 60 58 57 55 54
61 57 55 62 69 60 57 55 56 55 55 60 59 59 59 60 59 60 59 59 58 58 58 57 58 58 59 61 62 62 63 65 67 65 64 64 64 64 63 61 60 60 60 58 57 57 54 54 54
60 56 56 57 62 64 58 51 53 59 61 65 62 62 63 62 58 61 60 59 60 59 60 58 59 60 60 62 64 64 62 60 61 63 62 65 66 66 64 62 61 59 59 57 56 56 55 52 52
53 63 63 60 54 46 56 45 55 58 59 63 63 62 62 63 64 63 61 60 61 61 62 63 62 62 63 65 65 64 63 63 63 62 65 64 66 65 64 63 61 59 60 58 58 59 57 56 54
58 65 61 59 53 49 52 50 54 63 57 60 62 64 64 65 65 64 62 63 64 64 63 64 65 66 67 66 66 63 64 63 62 62 62 62 62 63 62 61 59 59 58 58 58 57 56 56 54
68 61 58 56 51 38 50 47 48 57 62 64 66 67 67 66 65 66 66 66 64 64 64 64 64 66 67 66 65 63 61 63 60 60 61 59 60 58 60 60 59 58 58 57 57 57 56 54 54
62 53 40 37 35 34 53 48 51 60 65 67 68 68 69 69 66 66 66 65 66 65 64 65 65 65 67 67 66 65 63 62 63 63 60 59 58 57 58 58 57 57 56 57 57 55 55 53 52
57 53 38 30 29 38 50 45 52 68 67 68 70 72 71 70 71 68 68 67 66 67 67 66 66 66 67 67 66 67 67 66 63 63 61 61 60 60 60 58 57 57 56 55 55 54 52 53 51
57 50 56 42 42 35 43 50 58 68 65 68 68 69 66 70 71 71 71 70 69 68 68 68 68 68 69 67 67 67 67 64 64 60 59 59 58 57 57 56 54 54 55 55 54 52 53 52 51
62 63 48 45 32 29 43 44 50 59 63 64 66 66 65 67 71 72 72 71 72 72 71 69 70 68 70 69 67 67 67 62 60 59 58 57 57 55 55 54 54 53 55 54 53 51 52 51 50
55 54 54 53 47 35 32 42 55 58 60 62 63 66 67 68 67 67 67 69 68 68 68 69 69 68 67 67 68 66 64 61 60 60 58 58 54 54 54 54 53 54 53 52 52 51 51 50 49
62 56 54 40 42 41 35 40 60 61 62 66 68 68 66 67 69 67 65 64 62 65 68 71 71 67 67 68 68 65 62 60 60 60 59 58 57 56 55 54 54 53 53 52 51 50 51 49 45

GFSSGP_sfc_temp_048.txt.gz
Temp
63 66 65 64 50 44 40 49 57 59 61 63 65 65 58 60 58 53 65 66 66 69 72 72 72 73 74 74 74 75 75 75 75 75 75 75 75 75 75 75 75 76 77 77 77 76 75 75 73
66 73 65 56 43 36 41 53 56 59 64 67 66 65 60 56 65 64 63 65 66 68 71 72 72 72 74 74 74 74 75 75 75 75 75 75 75 75 75 75 75 76 77 77 77 76 75 74 72
69 72 58 49 40 38 42 53 59 62 64 66 62 65 61 58 65 65 68 67 67 67 68 69 68 69 72 74 74 74 74 74 74 75 75 75 75 75 75 74 75 76 77 77 76 75 73 72 71
67 62 58 47 43 50 54 58 61 63 62 65 61 57 63 64 62 67 69 71 69 69 70 70 69 70 72 73 73 73 73 73 73 74 75 75 75 75 74 74 75 76 76 76 75 74 72 71 71
63 56 46 41 47 54 59 60 62 60 57 60 62 57 59 64 66 68 66 70 68 67 69 68 70 72 71 73 73 73 72 73 73 74 74 74 75 74 74 74 74 74 74 74 73 72 71 71 71
57 54 42 39 47 59 61 62 64 64 62 60 59 58 58 63 62 63 66 66 66 66 67 69 70 70 70 71 72 72 72 72 72 73 73 74 73 73 73 73 73 72 72 71 71 71 71 71 71
53 49 43 45 53 55 60 62 60 59 59 57 62 57 57 61 62 64 65 65 66 67 67 67 67 69 66 66 69 70 71 71 71 72 72 72 72 72 72 72 72 71 71 71 71 70 70 71 70
57 52 45 49 51 52 60 63 62 61 54 65 65 55 54 61 63 64 65 65 65 64 66 65 66 66 64 63 66 68 69 69 70 70 70 70 70 71 71 71 71 71 71 70 71 70 70 69 69
61 48 44 50 54 58 63 58 60 63 61 62 62 59 62 63 64 63 62 62 63 63 63 64 65 64 64 63 66 70 69 69 69 69 68 67 68 68 68 69 69 70 69 69 70 69 68 67 67
56 45 51 60 61 60 61 58 58 57 59 60 57 62 63 63 62 60 60 60 61 61 61 63 63 63 63 63 63 66 69 70 68 67 66 66 66 67 68 68 68 68 68 68 69 68 68 66 61
54 52 62 65 68 61 57 56 61 59 56 59 55 57 59 59 59 59 59 58 59 61 61 62 63 62 62 61 62 64 65 66 66 66 66 66 65 65 65 66 66 65 66 65 66 65 64 65 62
54 64 65 66 67 61 58 59 58 60 60 62 60 62 60 58 58 58 57 57 57 59 61 62 62 63 62 62 64 65 64 66 65 66 65 64 63 64 63 61 62 63 63 61 62 61 62 62 62
59 63 67 68 63 58 63 58 58 57 60 61 61 61 58 57 57 57 57 57 57 56 60 61 63 63 63 63 64 63 64 63 64 66 64 64 64 62 60 59 61 63 62 60 61 61 61 61 61
63 64 64 68 64 63 57 56 59 58 60 58 57 55 55 56 56 55 56 55 55 56 56 59 61 62 63 64 62 62 63 63 64 66 65 64 63 62 63 61 62 62 61 61 62 61 60 60 60
65 58 62 64 63 60 60 52 56 60 60 57 56 58 55 56 57 55 57 55 56 55 56 57 58 59 60 60 60 60 62 63 66 65 65 64 65 63 63 62 60 61 62 62 61 61 60 59 60
58 55 49 61 62 61 58 48 57 58 58 54 52 53 55 55 54 57 57 57 57 56 56 58 59 57 58 59 59 59 59 60 64 64 63 63 65 64 62 61 61 62 61 61 60 59 57 56 56
49 45 49 55 63 61 56 49 57 58 58 53 52 52 54 52 54 54 58 57 57 57 57 56 57 57 58 58 58 60 60 61 64 64 63 65 66 65 63 61 60 62 62 60 61 58 58 55 54
44 46 42 49 58 58 52 52 56 56 57 54 52 52 53 53 53 55 56 57 57 58 58 58 57 56 58 60 60 60 59 61 63 64 63 64 64 65 62 61 61 61 60 59 58 58 55 55 54
54 51 50 55 62 57 54 53 55 53 54 53 52 53 53 54 55 55 55 55 53 55 58 58 57 57 59 60 59 59 59 61 62 62 60 62 62 64 62 60 60 60 60 60 58 56 55 52 53
54 52 52 57 62 59 53 53 52 54 54 55 55 54 54 55 54 55 54 53 54 54 55 55 56 57 60 61 62 62 61 61 63 63 61 63 61 62 63 61 60 59 58 57 56 56 52 53 52
55 52 53 54 58 56 51 48 52 56 57 58 59 59 58 55 53 54 54 54 53 54 54 55 56 57 58 59 59 59 57 60 61 63 62 61 62 63 63 61 60 59 59 58 55 54 55 54 53
50 60 59 57 50 43 53 39 48 54 54 57 58 58 58 57 57 57 55 54 54 55 57 57 57 57 58 59 59 58 58 57 61 63 64 62 62 62 63 62 60 59 57 56 57 57 54 54 53
55 60 59 57 50 45 48 43 47 55 51 55 57 58 59 58 57 57 57 57 57 57 57 57 58 59 60 59 60 60 59 61 59 58 59 61 60 61 61 61 59 58 59 57 55 54 54 54 54
64 58 55 52 47 37 45 44 42 47 55 59 61 61 61 60 59 60 60 60 59 59 59 58 57 59 60 60 59 59 59 60 57 57 59 60 61 61 60 60 59 59 59 56 55 55 54 54 52
58 49 39 36 34 33 48 44 46 55 62 64 63 63 63 63 62 60 59 59 59 59 59 60 59 59 61 61 61 61 61 60 58 60 60 59 59 57 59 60 58 58 57 55 55 55 53 53 52
53 50 37 30 30 37 46 41 49 60 61 66 67 67 66 64 64 63 61 61 61 61 60 61 60 61 62 62 62 63 63 63 61 62 61 60 60 59 60 59 58 56 57 55 54 54 54 53 52
53 46 54 40 39 33 40 46 56 61 61 61 63 63 64 65 64 64 64 63 63 62 61 61 62 62 63 63 64 63 64 64 64 63 60 61 60 57 56 57 56 55 55 54 53 54 53 53 51
58 58 45 41 32 30 38 40 43 55 58 61 61 61 63 66 65 65 66 64 64 64 64 63 63 63 64 64 65 65 64 65 64 60 60 60 58 57 55 55 56 54 53 55 54 52 52 52 50
52 50 50 48 41 32 30 38 52 57 60 59 61 63 64 65 66 67 66 67 66 65 65 64 64 63 63 64 66 66 65 65 62 61 61 60 57 56 56 55 54 53 54 54 53 52 51 50 49
57 53 52 40 39 39 33 41 59 58 59 61 63 64 61 63 65 69 68 69 67 66 66 66 66 65 65 66 66 66 64 59 59 59 59 58 57 56 55 54 53 54 53 52 51 50 51 49 45

GFSSGP_sfc_temp_051.txt.gz
Temp
62 63 62 62 49 43 38 45 52 55 57 60 63 61 57 56 58 54 63 64 68 71 72 73 73 73 74 74 74 74 75 76 76 75 75 75 75 75 75 75 75 76 76 76 76 76 75 74 73
65 67 62 53 42 35 41 49 53 55 60 63 63 61 58 57 63 63 61 65 65 71 71 71 73 73 74 74 74 74 75 75 75 75 75 75 75 75 75 75 75 76 76 76 76 76 74 73 72
66 68 57 47 37 37 41 51 55 61 63 62 60 62 60 56 63 64 66 67 67 68 70 70 71 72 73 73 74 74 74 74 75 75 75 75 75 75 75 75 75 76 76 76 76 75 73 72 71
65 61 55 45 40 48 51 56 57 59 63 62 58 57 61 63 62 65 68 67 65 66 68 69 71 72 72 72 73 74 73 73 74 74 75 75 75 75 74 74 75 76 75 75 75 73 72 71 70
60 54 45 39 43 51 56 59 59 58 57 59 59 55 56 60 65 67 65 67 65 65 65 68 69 71 71 72 71 72 73 73 73 73 74 74 74 74 74 74 74 74 74 74 73 71 71 70 70
54 51 41 37 45 54 57 57 61 61 59 60 58 57 58 62 61 64 66 66 67 67 66 68 70 70 71 71 70 70 72 72 72 73 73 74 73 73 73 72 72 72 72 72 72 71 71 70 70
52 47 41 41 47 51 55 58 58 56 57 56 60 56 58 59 62 64 65 66 65 66 67 67 67 67 67 67 67 69 71 72 71 72 72 72 72 72 72 72 71 71 71 71 71 71 70 70 69
54 50 40 45 46 50 57 60 60 58 56 64 62 56 55 58 63 64 65 64 65 65 66 66 63 63 63 63 64 69 70 71 71 71 70 70 70 71 71 71 71 71 71 71 70 69 69 69 68
56 46 40 46 48 55 59 54 58 61 58 60 60 58 60 63 64 63 62 62 63 63 65 65 62 61 61 62 63 66 69 69 68 69 69 68 68 68 67 69 70 70 69 69 69 68 67 68 67
52 44 48 56 58 59 60 56 57 55 57 56 54 59 60 60 61 61 60 60 61 61 63 64 62 61 60 61 60 60 63 67 67 68 66 66 64 65 67 68 68 68 68 68 68 67 66 65 61
51 50 56 63 63 60 56 54 58 56 55 57 54 56 57 58 57 58 59 59 60 61 61 62 62 63 62 60 58 59 61 63 62 63 66 65 65 65 64 65 65 64 65 63 63 63 63 62 60
51 59 60 62 62 57 54 56 56 57 58 60 58 57 56 56 56 59 58 58 58 60 61 61 62 61 61 63 62 61 62 63 61 63 65 64 63 62 60 62 61 60 61 60 59 58 59 60 60
56 59 62 63 62 58 60 56 57 55 57 58 58 58 56 55 55 57 57 57 57 58 60 61 61 61 61 62 62 63 63 64 63 65 64 64 63 62 60 60 60 59 58 59 58 58 58 58 58
60 60 61 61 59 60 57 54 54 57 57 55 56 54 57 57 56 56 56 55 56 57 59 61 61 61 60 62 63 63 63 63 62 65 64 63 63 61 62 59 58 58 58 59 59 58 57 57 57
61 55 58 60 59 57 57 49 52 57 57 54 54 53 54 55 57 56 57 56 56 56 57 60 62 63 62 62 62 63 62 65 64 64 64 61 62 61 61 58 57 58 58 59 58 58 56 55 57
55 51 46 56 59 60 57 48 55 55 54 52 52 54 55 56 55 58 58 57 57 56 57 58 61 60 60 59 59 60 59 63 66 65 63 64 63 61 58 59 59 60 59 59 58 56 54 54 54
47 42 46 53 58 55 53 49 55 55 54 51 50 51 52 54 51 53 58 57 57 57 57 56 58 59 58 58 57 58 61 62 64 64 64 63 65 63 61 59 59 59 58 57 58 55 54 53 52
41 43 39 45 54 53 49 51 51 53 53 52 49 49 51 51 51 52 58 58 58 58 58 57 57 58 58 59 57 57 56 61 63 62 62 64 64 63 61 59 58 59 57 56 56 55 54 53 53
49 47 45 49 57 53 54 50 51 51 50 49 48 49 50 51 53 52 54 56 56 57 57 57 56 56 58 58 57 55 56 58 62 63 62 62 62 63 60 59 59 58 59 58 58 54 53 51 51
50 46 47 53 58 54 52 51 51 51 53 53 51 49 51 51 51 52 51 54 54 55 56 57 57 58 59 59 61 60 58 58 63 63 62 61 61 61 60 59 58 59 57 56 55 55 52 52 51
49 46 48 49 55 53 49 49 49 53 54 54 54 54 54 53 51 51 51 52 51 53 52 57 56 58 60 62 63 60 58 58 57 60 59 60 60 60 60 60 59 57 57 57 54 54 54 53 52
45 54 54 52 47 42 50 37 48 49 50 53 54 53 54 54 55 53 51 50 50 51 53 54 55 56 57 59 59 57 59 57 59 58 59 59 59 59 60 60 59 58 57 56 56 55 54 54 50
50 56 53 52 47 44 44 40 46 50 49 52 54 56 55 56 55 53 53 53 52 53 52 54 55 56 57 56 56 53 53 54 55 56 56 57 59 59 61 60 59 58 57 57 56 54 53 53 53
60 54 51 48 44 35 44 42 40 46 53 55 58 57 57 56 56 56 56 55 53 52 52 53 54 55 57 56 55 54 55 56 55 54 56 58 59 59 59 60 58 58 58 57 57 56 54 54 53
53 45 35 34 32 33 46 41 44 53 57 60 58 59 58 59 57 56 55 54 54 53 53 53 54 54 56 56 56 56 56 56 56 56 56 57 58 58 60 58 57 57 58 58 57 55 54 53 53
49 47 35 28 28 36 44 38 47 57 60 61 62 63 60 59 58 57 57 56 56 56 55 55 55 55 56 56 56 58 58 59 59 60 58 57 58 60 60 59 59 59 59 58 57 56 55 54 54
49 43 51 38 36 32 38 45 53 57 57 59 60 59 59 60 60 59 60 58 58 58 57 56 57 57 58 58 58 58 59 59 60 61 59 60 59 59 57 60 58 58 57 56 54 54 53 54 53
54 54 42 38 31 29 36 38 42 52 55 57 57 57 59 62 61 62 61 60 60 60 59 58 59 59 59 59 59 60 60 62 61 62 60 58 60 57 55 57 56 56 55 54 53 52 53 53 51
48 45 46 45 38 32 31 37 49 52 55 56 56 58 58 59 62 62 63 62 62 61 60 59 59 59 60 61 61 61 61 62 61 61 61 60 58 58 57 56 56 55 54 53 52 52 52 52 50
52 49 48 39 37 36 33 41 55 55 56 57 58 59 60 59 62 63 64 64 62 61 61 60 60 60 61 61 61 61 62 62 61 60 60 60 60 58 58 57 56 55 54 53 52 51 52 51 49

GFSSGP_sfc_temp_054.txt.gz
Temp
61 61 60 60 49 43 37 44 48 52 53 58 60 57 55 56 58 51 62 64 68 70 72 72 73 74 74 75 75 75 75 75 76 75 75 75 75 75 75 75 75 76 77 77 76 75 75 74 73
62 64 61 52 42 35 40 46 49 54 58 61 61 59 57 56 62 61 61 66 67 71 71 71 73 73 74 74 74 75 75 75 75 75 75 75 75 75 75 75 75 75 76 77 76 76 74 73 71
65 65 56 45 36 37 39 50 54 58 61 59 58 60 58 56 62 62 65 66 68 70 69 70 72 73 73 74 74 74 75 74 74 74 75 75 75 75 75 74 75 75 76 76 75 74 73 71 70
63 59 53 44 38 46 49 55 56 57 59 59 57 55 59 61 60 63 65 66 66 67 68 69 72 72 73 74 74 74 74 73 74 74 75 75 75 75 75 74 75 75 76 75 75 73 71 70 70
58 52 43 38 41 48 52 56 57 56 56 57 57 54 56 60 63 65 63 65 65 66 66 68 70 71 72 73 73 73 73 73 73 73 74 74 75 75 74 74 74 74 74 74 73 72 70 70 69
53 50 40 37 42 52 54 57 59 59 58 57 55 55 56 60 61 63 64 65 65 65 64 67 70 71 71 71 71 72 72 72 73 73 73 74 74 73 73 73 73 73 72 71 71 70 70 70 69
51 45 40 39 44 49 54 55 57 56 54 55 58 54 55 58 61 64 65 64 65 65 64 64 65 67 69 68 68 70 70 71 72 72 72 72 71 72 72 72 72 71 71 71 70 70 70 69 69
53 48 39 42 44 47 56 58 57 55 54 62 60 54 53 57 64 64 65 65 65 65 65 64 64 64 63 63 67 68 70 70 71 71 71 70 70 71 71 71 71 71 71 71 70 70 70 69 68
53 44 39 44 46 53 57 53 56 58 56 58 59 56 59 63 64 63 62 63 63 64 61 62 61 61 61 61 63 66 71 71 70 70 69 67 66 66 66 69 70 70 69 69 69 69 68 68 67
51 42 47 53 55 57 57 55 56 53 55 56 53 57 59 61 62 61 60 60 61 62 61 61 60 60 60 62 62 61 63 69 69 69 68 67 64 64 68 68 69 68 68 68 67 68 67 66 63
49 48 53 58 60 58 54 53 58 54 53 56 53 55 58 57 60 59 59 60 60 61 61 61 60 60 60 61 61 60 59 62 68 66 66 64 63 64 63 64 65 64 65 64 64 63 61 59 59
48 56 57 60 58 54 53 55 54 54 56 59 58 57 56 55 57 59 58 58 59 60 61 61 60 60 61 62 63 59 59 60 60 64 65 64 63 62 61 61 61 61 58 59 60 59 57 57 58
52 56 59 61 60 56 57 54 55 55 57 57 56 56 55 54 57 57 57 57 59 59 60 61 61 60 59 61 62 59 60 59 61 61 64 65 62 62 61 60 59 59 59 59 56 57 58 56 57
58 58 58 58 57 58 55 52 53 56 57 55 55 52 55 54 55 56 56 56 57 58 60 60 60 60 61 62 62 61 63 61 61 62 61 63 62 61 61 60 59 58 59 57 57 58 55 55 55
58 52 55 57 55 55 56 49 49 55 55 54 53 56 57 57 57 56 57 56 57 58 58 60 60 59 60 61 61 62 63 64 62 63 62 62 61 60 60 59 57 59 58 57 57 56 55 54 56
51 49 44 54 54 55 55 47 54 53 53 52 51 51 55 56 56 58 58 57 57 57 58 59 61 59 59 60 61 62 62 63 64 63 61 62 63 60 58 58 58 59 58 58 57 55 54 53 53
45 39 43 50 56 52 49 48 51 52 52 50 50 54 55 55 54 58 54 56 56 58 58 57 59 60 60 59 59 60 60 63 64 60 62 62 62 61 62 58 57 59 58 57 57 54 55 53 52
40 40 38 43 48 50 46 48 53 52 50 51 50 49 50 51 53 52 53 57 57 57 58 57 58 59 59 58 57 57 57 59 61 62 61 62 64 62 60 58 58 58 57 55 55 54 53 53 53
48 45 43 46 52 50 50 49 55 49 48 48 49 48 49 49 52 52 53 54 55 56 57 57 57 57 57 56 56 56 56 57 59 61 61 62 63 62 60 59 59 58 57 56 56 54 53 52 52
48 44 43 49 54 52 48 49 50 49 49 51 50 48 49 50 49 50 51 55 54 56 57 57 57 57 58 57 60 60 58 57 57 60 60 61 61 61 60 59 58 57 55 55 54 54 51 52 51
45 43 44 46 49 50 46 46 48 52 50 52 52 52 52 51 49 49 51 54 54 55 55 57 57 58 59 61 58 56 57 57 56 58 59 60 61 61 61 59 58 57 56 55 53 54 53 51 50
42 50 50 48 44 38 46 35 46 49 50 51 51 51 52 52 52 50 49 53 54 55 55 56 58 58 58 61 59 58 56 58 59 59 60 60 60 60 60 60 58 57 56 55 55 54 53 52 50
48 53 50 48 43 39 42 37 44 47 49 51 52 53 53 54 53 50 50 50 53 51 52 51 56 58 59 60 60 59 59 59 59 57 57 57 59 59 59 58 57 57 56 56 55 54 52 53 52
55 50 48 45 41 32 42 40 38 45 51 54 55 55 55 54 53 53 52 51 50 50 51 51 52 54 55 54 55 55 56 55 55 53 54 53 55 55 57 57 56 57 56 55 54 54 53 54 53
50 43 34 32 30 31 43 38 43 52 55 57 58 56 56 56 55 53 50 50 49 49 50 52 52 53 55 53 53 53 54 55 54 55 54 52 54 55 57 55 55 55 56 56 56 55 55 54 53
45 44 33 28 28 34 41 36 46 55 59 58 58 58 56 55 56 55 54 52 51 51 51 52 52 53 54 54 54 54 55 55 57 56 57 56 56 57 57 57 57 56 57 56 57 57 56 55 54
46 41 48 36 34 31 36 43 52 56 56 57 55 56 53 55 56 56 57 55 54 53 53 52 53 53 54 54 55 55 55 56 57 57 56 57 56 56 55 56 57 58 58 58 57 57 56 54 54
51 52 39 36 30 28 34 35 41 51 56 55 55 54 55 55 56 57 58 56 57 56 55 54 55 54 55 55 55 56 55 56 56 56 57 57 58 55 55 55 56 58 59 59 58 57 55 52 51
46 43 43 43 36 31 29 34 47 52 53 54 56 58 55 55 55 57 58 59 58 57 56 55 55 55 55 56 57 56 56 56 56 57 57 56 57 56 56 56 56 57 56 56 55 55 53 52 51
50 46 45 35 36 34 31 37 53 54 55 55 57 58 58 56 57 58 59 58 57 57 57 57 56 56 57 58 57 56 57 58 56 57 58 58 58 58 59 58 57 57 55 55 54 53 52 52 49

GFSSGP_sfc_temp_057.txt.gz
Temp
70 71 74 73 64 61 55 58 60 61 63 67 66 64 65 64 63 61 70 72 72 75 76 77 73 74 74 75 75 75 76 76 76 76 75 75 75 76 75 75 76 76 77 77 77 76 76 74 73
71 72 73 66 60 56 58 59 59 65 67 67 66 65 64 64 67 68 69 72 70 77 78 77 73 73 74 74 75 75 76 76 76 75 75 75 75 75 75 75 75 76 76 77 76 76 75 73 72
73 73 70 61 54 56 56 60 65 66 68 66 65 67 65 65 67 68 71 72 68 75 77 77 72 73 74 74 74 75 75 75 75 75 75 75 75 75 75 75 75 76 77 77 76 75 73 71 71
73 72 66 60 55 58 60 66 64 66 67 68 65 63 66 67 66 68 70 71 67 70 73 73 71 72 73 74 74 74 74 73 74 74 75 75 75 75 75 74 75 76 76 76 75 73 71 70 70
70 67 59 55 55 58 61 64 65 65 65 64 64 63 63 66 69 70 69 70 68 66 71 74 70 72 73 74 74 74 73 73 73 74 74 74 75 74 74 74 74 75 75 75 73 72 70 70 69
66 64 56 54 55 60 64 66 65 65 66 64 63 62 64 65 67 68 69 69 69 65 66 71 72 72 72 73 73 72 72 73 73 73 73 74 73 73 73 74 74 74 73 72 71 70 70 70 69
64 61 55 53 55 57 63 66 64 64 64 64 65 61 64 64 67 68 69 69 70 67 65 67 67 71 69 68 70 70 71 72 72 72 73 72 72 72 73 73 72 72 72 71 70 70 70 69 69
65 64 52 54 55 58 65 65 66 65 66 66 67 61 61 64 67 68 68 67 66 67 67 67 66 64 64 68 67 68 70 71 71 71 71 71 71 71 71 71 71 71 71 71 70 70 69 69 68
65 59 54 56 56 63 66 64 64 66 65 64 65 62 64 66 67 66 66 64 64 64 65 64 64 62 63 64 64 68 68 70 70 71 70 70 75 75 74 72 70 70 69 70 70 69 68 67 67
64 57 58 63 64 65 66 65 64 63 62 62 62 62 63 65 66 64 64 61 61 61 62 62 62 62 62 63 63 64 66 69 69 71 72 73 72 74 74 71 68 68 69 69 69 68 67 70 73
60 59 62 65 66 68 65 62 67 63 61 64 62 62 61 62 62 62 62 63 60 61 62 62 61 61 63 62 63 62 61 64 68 70 71 71 72 72 71 72 73 72 70 74 71 70 74 72 73
59 63 64 68 66 64 63 64 61 63 67 66 65 64 60 60 61 62 60 61 60 60 62 61 61 62 64 65 63 60 61 63 65 69 70 70 70 68 70 71 72 71 72 70 71 71 68 70 71
59 64 64 67 65 64 63 62 63 61 65 64 63 62 61 60 61 61 59 59 60 60 60 60 62 63 64 63 64 60 61 62 63 67 69 68 67 67 70 70 71 72 71 71 69 70 70 70 70
64 64 66 66 66 65 62 61 61 64 65 61 61 60 60 59 60 59 58 58 59 60 60 60 61 62 63 63 64 62 61 61 63 66 67 67 67 67 70 70 70 70 71 71 71 69 70 70 70
65 60 62 64 65 63 63 60 57 64 62 61 60 62 62 61 58 58 60 60 60 61 60 60 60 62 60 63 61 64 61 61 61 66 68 68 69 67 69 70 68 70 70 70 68 68 69 69 70
61 58 54 62 61 59 63 57 64 62 61 61 59 58 58 60 60 61 62 61 62 59 60 61 61 60 60 60 60 63 62 61 61 65 67 68 70 68 67 69 69 70 69 70 69 68 68 68 69
53 52 51 57 62 59 59 58 63 59 60 61 59 59 59 59 61 61 61 60 61 62 59 60 59 59 62 62 60 63 64 64 63 64 64 66 67 67 70 70 67 68 69 68 68 67 67 65 66
49 49 50 54 59 59 57 58 64 61 59 59 60 58 59 58 60 61 61 61 61 61 61 59 60 59 61 60 60 61 62 64 65 64 67 68 69 69 68 67 67 68 68 67 67 65 66 66 66
55 52 51 55 59 58 57 58 64 64 58 58 59 59 58 58 61 61 60 61 60 61 61 59 58 59 59 58 58 58 58 60 64 68 68 66 69 68 66 66 66 67 67 65 66 66 64 63 63
55 51 52 56 58 57 60 59 64 62 62 61 61 60 60 59 58 58 59 59 59 59 60 60 58 59 59 59 60 61 60 57 63 67 67 68 68 69 67 66 65 65 66 64 64 65 63 65 63
53 51 50 53 55 58 55 56 60 64 60 60 60 62 63 61 57 55 56 58 59 59 59 60 59 59 60 61 60 59 59 57 57 61 64 67 66 68 68 67 65 64 64 65 62 64 64 63 62
48 54 55 52 51 47 57 45 55 63 62 61 62 60 62 61 61 57 55 55 58 60 62 61 61 59 60 60 60 57 59 57 62 60 62 63 63 64 66 64 62 61 61 63 62 64 63 63 62
53 56 54 54 50 49 50 48 54 56 59 65 67 64 62 63 62 59 55 57 60 61 61 61 61 59 60 61 63 60 59 59 62 60 58 63 64 63 64 62 63 63 62 64 63 62 61 62 62
58 55 53 51 49 41 49 49 51 56 61 65 67 68 64 62 62 62 61 59 60 61 60 59 61 60 60 60 61 60 59 58 57 57 57 57 59 60 60 60 60 63 65 65 65 64 63 62 63
56 51 42 40 39 40 48 46 53 61 63 64 67 70 66 63 63 61 59 57 56 54 56 58 60 60 61 61 62 62 61 60 58 59 59 59 58 60 61 62 61 65 65 65 65 64 63 63 62
51 51 43 34 36 43 47 44 54 64 66 65 66 67 67 64 63 63 61 60 57 55 56 57 59 60 61 61 61 62 64 64 64 64 65 64 63 65 67 63 64 64 65 66 65 65 64 63 62
49 45 54 43 40 39 45 51 59 66 65 67 65 65 67 66 63 64 63 61 60 59 58 58 60 61 61 61 62 61 62 63 63 64 64 65 65 64 64 65 66 66 66 66 67 65 64 62 61
56 57 45 43 36 34 41 44 51 59 63 64 64 64 66 67 64 64 64 61 62 61 61 59 61 61 62 61 62 62 62 62 63 63 63 63 64 65 64 64 66 67 67 67 65 65 64 60 59
51 50 49 50 43 38 37 45 57 60 63 63 65 65 66 66 65 64 65 64 63 62 61 59 60 60 61 61 62 62 62 62 62 62 63 63 64 64 64 64 65 65 65 65 65 64 62 58 58
56 51 52 42 40 40 39 46 62 61 63 62 65 66 68 67 67 66 66 65 63 62 62 61 61 61 61 61 61 61 61 62 61 61 62 63 63 64 64 65 64 65 65 63 62 61 59 57 55

GFSSGP_sfc_temp_060.txt.gz
Temp
75 86 90 85 72 73 69 68 74 72 73 77 77 74 75 77 73 68 81 79 79 81 85 81 74 74 75 76 75 75 76 76 76 76 76 76 76 76 76 76 76 76 77 77 77 76 76 75 74
88 84 86 84 69 65 69 72 70 75 77 76 75 76 74 73 79 78 80 80 79 82 85 82 73 74 75 75 75 75 76 76 76 76 76 76 76 76 76 75 75 76 77 77 77 76 75 73 72
85 85 81 76 71 66 69 72 75 76 78 76 74 78 76 73 76 77 79 79 74 79 86 85 72 73 74 74 75 75 75 75 75 75 76 76 76 76 75 75 75 76 76 76 76 75 73 72 71
85 84 81 70 67 70 71 76 77 76 78 79 78 73 77 77 76 77 79 79 78 71 83 78 71 73 74 74 74 74 74 74 74 74 75 76 76 76 75 74 75 76 76 76 75 74 72 70 70
87 83 71 68 68 71 75 77 77 75 74 74 75 74 73 76 78 78 78 78 78 71 79 80 70 72 74 74 74 74 74 73 74 74 74 75 75 75 74 74 75 75 75 74 73 72 70 70 70
78 80 68 66 68 72 75 78 76 76 77 75 73 74 75 76 76 77 77 77 78 72 70 75 72 73 72 73 73 72 72 73 73 74 74 74 74 74 74 74 74 74 73 72 71 70 70 70 69
76 74 69 68 67 69 73 77 75 76 76 76 76 70 76 75 76 76 77 77 76 74 69 72 70 71 71 72 71 71 72 72 72 73 73 73 72 72 73 73 73 72 72 71 70 70 70 69 69
80 76 68 70 67 68 75 75 78 77 77 76 78 72 73 74 76 76 76 72 73 72 67 69 67 68 66 66 67 71 72 71 71 72 72 71 71 72 72 72 72 71 71 70 70 69 69 69 68
81 70 67 69 68 72 76 74 79 78 77 75 76 77 76 74 76 75 74 69 66 70 70 70 67 67 65 65 67 71 71 70 71 71 70 70 78 77 74 74 70 70 69 69 69 69 68 67 67
74 70 71 76 77 73 77 76 78 74 78 74 74 75 73 74 74 74 73 69 63 64 64 67 65 66 65 64 64 67 68 69 71 72 76 80 77 76 78 73 69 69 69 69 68 67 67 71 77
74 69 76 74 77 78 76 76 77 74 72 79 75 76 73 72 72 72 73 70 65 67 63 67 66 66 66 64 64 63 65 64 66 68 73 75 75 75 77 76 75 75 71 76 74 73 80 79 79
69 75 76 77 78 76 74 78 74 76 76 76 77 76 73 71 70 72 71 68 65 65 67 65 70 67 66 65 63 63 63 64 64 66 71 71 72 72 76 78 78 76 79 77 77 79 79 78 78
69 75 76 78 77 76 77 74 75 76 79 77 74 73 70 69 71 70 70 68 63 64 65 65 65 65 65 63 62 61 61 63 64 65 70 73 74 71 77 78 78 79 81 79 79 79 77 77 77
75 74 76 77 76 77 71 76 70 78 80 73 72 72 71 69 70 70 68 65 62 65 65 63 63 65 67 66 64 61 61 63 63 64 72 73 73 73 76 75 78 79 80 81 80 78 78 78 78
74 68 72 74 75 74 75 70 67 80 75 72 73 73 71 67 69 67 68 66 63 65 66 63 62 65 68 67 63 63 61 62 62 64 72 72 72 72 74 76 76 79 80 79 79 78 79 79 79
68 69 63 74 74 73 72 64 77 78 74 74 74 74 72 71 70 69 66 66 68 64 62 64 63 63 67 68 62 64 61 61 63 65 72 71 70 70 71 73 75 77 78 78 78 78 77 77 78
65 60 63 68 74 71 69 68 74 74 74 74 75 74 72 73 72 72 70 69 67 64 64 61 62 61 61 61 61 63 61 61 61 65 74 74 72 72 72 73 73 76 77 76 77 76 77 75 76
59 60 65 64 70 70 69 68 76 76 73 72 75 75 73 72 72 73 70 70 70 70 62 62 61 61 62 61 60 62 62 61 61 62 68 73 76 74 74 75 73 76 76 76 76 74 75 75 75
67 63 63 69 70 65 66 69 74 79 75 74 75 74 74 73 76 74 71 71 70 67 66 60 59 60 60 58 59 59 60 61 60 62 66 70 75 74 74 75 74 76 76 75 73 72 71 72 74
63 60 62 68 68 65 67 68 74 78 76 77 77 75 74 74 73 71 70 70 68 69 67 62 59 60 59 63 61 62 64 63 62 63 65 70 73 74 72 70 73 74 75 73 71 70 71 73 72
61 59 61 61 65 67 64 63 69 76 76 76 75 78 78 76 73 71 69 69 69 66 63 68 65 60 60 61 63 62 61 58 60 61 65 68 74 74 73 69 74 73 73 71 70 70 69 69 69
56 65 63 61 59 55 64 53 67 71 73 76 78 75 76 76 76 74 71 70 69 69 68 69 67 64 62 62 61 61 58 60 61 65 66 71 71 72 73 70 73 71 71 71 71 71 69 71 68
59 66 61 62 59 59 59 56 64 70 67 73 78 80 76 78 76 74 72 72 72 71 68 66 68 65 61 62 62 60 59 61 64 64 66 69 66 69 69 69 71 69 69 69 69 67 65 69 68
66 61 60 61 59 48 57 58 60 67 70 73 77 80 79 78 77 76 74 72 72 72 70 66 65 65 61 61 62 61 61 60 60 60 60 61 65 67 67 70 70 70 69 67 62 65 68 69 69
62 57 48 45 45 45 60 56 60 70 74 75 76 79 79 77 77 75 73 71 72 70 69 68 63 63 64 61 62 63 66 65 59 58 61 64 66 66 66 67 68 69 68 66 66 67 70 69 68
56 58 51 38 42 51 58 51 62 73 76 77 78 79 80 78 77 76 75 72 72 70 70 69 67 64 62 62 63 64 67 68 62 62 63 63 65 68 65 63 70 72 68 68 72 71 71 70 69
56 51 62 51 51 48 55 60 68 73 74 77 78 79 79 81 78 77 76 74 72 71 69 68 69 70 67 65 65 64 67 68 69 68 65 65 68 66 63 63 65 69 71 70 71 71 70 70 69
61 65 49 52 40 39 51 52 58 65 70 73 74 76 78 79 79 77 77 74 74 72 71 69 71 71 71 69 69 69 69 70 71 71 70 70 72 72 70 69 68 69 70 71 70 70 71 70 71
56 54 57 58 53 44 43 52 67 68 70 71 75 77 78 78 78 78 78 77 76 75 73 70 70 71 71 70 70 70 70 70 71 71 72 72 72 72 72 71 71 71 71 72 72 72 72 72 71
63 58 58 48 47 51 50 53 70 69 72 72 75 78 80 79 79 79 78 77 75 74 73 72 71 72 72 71 70 69 69 70 69 69 70 71 71 72 72 72 71 71 72 73 72 71 71 71 70

GFSSGP_sfc_temp_063.txt.gz
Temp
77 88 93 89 73 76 73 75 81 78 78 84 84 80 79 81 77 70 88 86 85 87 86 82 74 75 75 75 75 75 75 76 76 76 76 76 76 76 76 76 76 77 77 77 77 76 76 75 73
92 92 90 84 70 70 75 79 75 80 82 83 82 82 80 77 86 86 87 86 86 87 86 86 73 75 75 75 75 75 76 76 76 76 76 76 76 76 76 75 75 76 77 77 77 76 75 73 73
86 92 81 78 74 70 73 79 80 82 83 82 80 85 82 78 83 84 85 84 84 84 86 83 73 73 75 75 74 75 75 75 75 75 76 76 76 76 75 75 75 76 77 77 77 75 73 72 71
89 88 84 71 71 78 76 80 82 81 84 84 84 78 85 85 82 84 86 84 83 83 86 74 72 73 74 74 74 75 74 74 74 75 75 75 76 76 75 75 75 76 76 76 75 73 72 71 71
90 85 73 72 73 79 81 83 82 80 80 80 82 77 79 84 85 85 84 84 82 82 82 76 71 72 73 75 75 75 74 73 74 74 74 75 75 75 74 74 75 75 75 75 73 71 71 70 71
79 83 70 69 75 80 81 84 82 80 82 82 79 79 80 84 83 84 83 82 82 79 76 79 74 72 72 72 74 75 73 73 73 73 74 74 74 74 74 74 74 73 73 72 71 70 70 70 70
77 77 71 74 75 75 78 84 80 81 81 81 84 75 82 82 83 83 83 82 80 78 73 75 76 70 67 66 67 69 71 72 72 73 73 73 72 73 73 73 73 72 71 70 70 70 70 70 69
82 79 72 75 73 73 81 80 84 82 80 85 86 75 78 81 82 82 83 79 76 74 70 72 72 68 69 67 66 66 68 70 71 72 72 71 72 72 72 72 71 71 70 70 70 69 69 69 68
88 71 69 73 75 77 83 79 86 87 82 85 84 84 84 82 82 81 81 74 73 73 73 72 70 70 68 68 66 66 68 69 70 71 70 70 79 76 76 73 70 70 69 69 69 68 68 67 67
77 71 72 83 83 79 82 82 82 81 81 81 83 86 83 82 82 80 80 79 70 68 71 70 70 69 70 69 68 66 66 68 71 76 77 82 78 79 79 72 69 68 68 68 68 67 66 70 76
78 70 80 83 82 85 82 81 85 79 76 82 79 84 85 81 80 79 78 79 77 71 67 70 70 72 70 66 66 66 64 67 71 72 77 79 76 77 74 73 73 71 71 74 72 71 76 78 78
73 79 80 82 84 81 79 84 80 81 80 86 84 84 83 79 79 79 79 78 71 70 64 72 73 73 70 67 63 64 63 64 66 68 70 69 71 73 76 73 75 74 76 74 74 76 80 79 79
75 78 81 83 82 82 82 79 78 80 86 88 84 80 80 78 80 80 78 77 73 69 65 67 71 70 71 69 67 64 64 62 63 64 66 68 69 75 75 73 75 76 78 76 76 79 79 79 79
79 79 79 82 81 81 77 78 80 82 87 85 81 80 79 78 80 80 77 75 70 70 68 69 68 70 69 67 67 66 63 64 64 63 64 65 71 71 73 72 75 77 79 79 79 80 79 79 79
79 72 76 78 80 78 81 73 74 84 86 81 80 81 80 76 79 78 78 75 70 71 68 66 66 65 65 65 63 62 62 62 62 63 64 65 70 71 75 77 78 79 81 80 81 79 79 79 80
71 72 65 76 79 79 78 66 80 87 82 80 82 81 80 78 78 79 77 76 73 71 66 65 66 64 66 66 64 63 61 62 62 62 63 67 71 72 73 76 77 79 79 80 79 79 78 79 78
68 62 65 70 81 79 75 69 81 84 81 80 82 82 81 80 80 80 78 76 76 72 72 65 64 65 65 66 65 63 61 61 61 62 64 70 73 72 73 75 77 78 78 77 78 78 78 76 77
60 63 67 68 76 75 73 71 79 82 80 79 82 83 81 79 80 80 79 78 78 73 69 65 64 64 63 63 62 63 61 61 61 62 66 71 71 71 71 74 74 76 73 71 75 76 77 77 77
66 68 67 72 78 72 71 72 77 82 82 80 80 81 82 81 83 82 78 77 76 74 69 64 62 61 60 60 61 60 59 59 60 62 67 71 71 73 73 73 71 72 71 71 73 75 73 74 76
64 64 65 71 75 69 70 71 77 80 81 82 82 82 82 82 82 79 77 76 75 74 68 62 61 60 59 61 62 64 61 59 61 61 63 70 72 75 74 74 71 71 74 73 72 71 72 74 74
64 62 64 64 72 71 68 66 72 79 82 83 83 84 85 83 81 79 76 75 75 74 70 68 62 60 60 60 61 62 61 60 58 59 60 64 67 75 74 72 72 71 73 70 70 72 72 71 72
58 68 67 66 64 57 71 55 69 75 77 79 81 82 83 84 84 82 77 76 75 74 73 72 68 62 62 62 62 61 63 60 64 61 61 62 63 72 72 67 66 71 72 71 70 73 71 71 68
60 68 66 65 62 62 62 59 66 75 73 77 80 83 84 85 84 82 80 78 78 76 72 72 68 66 64 64 62 62 62 64 65 64 63 64 64 67 66 68 66 65 71 70 69 69 69 71 65
68 65 64 64 61 50 59 59 62 70 73 77 80 83 85 84 84 84 83 81 79 77 74 72 68 67 65 62 62 62 61 64 61 62 62 64 66 67 68 68 66 64 65 67 68 68 68 68 69
64 59 48 47 48 46 63 60 62 73 77 78 79 82 84 85 84 83 81 79 79 76 73 72 70 66 65 62 62 63 63 63 63 63 62 62 64 66 68 68 68 67 65 66 68 68 68 69 67
60 59 50 39 43 52 63 54 65 77 80 80 82 82 85 83 83 83 82 79 79 76 75 74 70 70 65 62 62 62 64 65 66 64 64 63 65 68 68 68 69 70 69 65 67 69 69 69 68
59 54 63 53 54 50 58 63 72 75 77 79 80 82 82 84 84 83 83 81 79 77 75 74 73 72 69 64 62 62 64 64 65 67 65 63 67 70 69 69 69 70 70 70 70 68 66 68 65
59 67 52 55 40 39 52 55 60 67 71 76 77 78 80 84 86 84 84 81 80 80 79 75 75 74 72 70 66 64 64 67 66 67 66 66 67 71 71 70 68 68 68 68 71 69 69 68 69
55 55 57 58 54 44 43 53 70 68 72 73 77 79 81 82 83 84 84 83 81 81 79 76 75 75 74 72 69 66 66 69 67 68 70 70 70 71 71 69 69 69 69 70 68 70 71 70 69
62 57 58 48 44 53 50 52 72 68 71 75 76 80 82 83 84 85 84 84 81 80 79 77 76 76 76 75 73 70 70 70 68 70 71 72 71 72 73 73 71 71 71 71 70 69 71 70 69

GFSSGP_sfc_temp_066.txt.gz
Temp
76 82 86 84 67 69 66 73 82 77 78 84 84 80 77 80 75 64 86 85 85 85 78 78 74 75 75 75 75 75 75 76 76 76 75 75 76 75 76 76 76 76 77 77 77 77 76 75 74
86 89 86 79 64 60 67 80 75 80 83 84 83 82 79 76 84 85 82 86 87 87 81 80 74 75 75 74 74 75 75 76 76 75 75 75 76 75 75 75 75 76 76 77 76 76 75 74 73
80 88 77 71 66 62 67 79 79 83 84 82 80 86 82 78 83 84 85 85 85 84 86 81 73 74 74 74 74 74 75 75 75 75 75 76 76 76 75 75 75 76 76 76 76 75 74 72 72
83 83 79 66 63 73 76 81 82 81 84 85 83 77 85 87 84 85 86 85 84 83 85 72 73 73 74 74 74 74 74 74 74 75 75 76 76 75 75 74 75 76 76 76 75 74 72 71 71
84 81 67 65 68 76 83 83 83 80 81 81 82 76 78 83 87 86 85 84 82 82 80 75 71 72 73 73 74 74 74 73 73 74 75 75 75 75 74 74 75 75 75 74 73 72 71 71 71
75 77 63 62 69 79 84 84 82 81 82 83 80 78 79 85 85 83 83 82 82 80 77 77 73 72 72 71 70 70 72 73 74 73 74 74 74 73 74 74 74 73 73 72 71 70 71 71 70
73 70 65 68 70 75 81 85 80 80 80 80 84 75 80 81 83 82 83 81 79 77 75 74 74 72 68 67 67 66 65 67 73 72 73 73 72 72 73 73 73 72 71 70 70 70 70 70 70
78 73 66 69 69 71 83 82 84 82 79 87 87 74 74 79 82 82 82 78 76 74 72 71 71 69 68 67 67 66 63 64 69 71 71 71 71 72 72 71 71 71 70 70 70 69 69 69 68
83 67 63 67 71 75 83 78 85 88 82 84 85 83 82 82 84 80 79 73 72 72 72 71 70 69 69 67 67 66 67 66 66 71 70 69 73 72 71 71 69 69 69 69 69 68 67 67 68
74 67 67 77 79 79 83 81 82 81 80 80 82 87 83 83 82 79 79 74 71 70 69 70 69 68 68 68 66 65 64 64 62 71 71 73 72 71 72 69 68 68 68 68 67 67 67 69 66
74 67 75 78 83 83 80 81 85 79 75 80 79 82 84 81 80 78 78 78 74 71 69 69 69 69 69 68 67 65 63 64 66 69 71 72 72 69 67 67 67 66 67 67 67 66 68 67 67
69 75 77 79 82 81 77 82 79 81 79 86 86 85 84 81 79 79 79 79 72 69 68 69 69 68 67 66 65 65 63 64 65 67 70 69 68 67 67 68 68 67 67 66 66 66 67 67 69
71 75 79 81 81 81 82 78 78 79 84 87 88 83 80 80 80 81 79 77 74 69 66 68 70 70 68 67 64 63 63 63 64 66 67 67 69 67 69 68 68 69 68 68 67 67 69 68 69
75 76 77 80 79 81 77 77 78 79 85 85 85 81 80 80 80 81 77 76 72 69 67 67 68 69 69 67 66 64 63 62 62 63 64 66 67 67 69 68 69 69 69 70 69 71 68 68 69
75 69 74 76 78 76 80 71 72 82 84 82 83 82 81 78 80 79 79 75 71 69 69 66 66 67 66 67 66 64 63 63 62 62 63 64 66 67 68 67 67 70 70 70 69 72 68 67 70
68 68 60 72 76 78 76 63 76 84 82 80 81 81 80 79 78 80 79 77 72 71 67 65 66 64 64 64 63 63 63 63 62 62 62 63 66 68 66 66 68 71 71 71 69 68 67 66 66
61 55 60 65 77 76 74 66 77 83 82 79 80 81 81 80 78 79 78 76 74 73 69 65 65 65 63 63 62 62 61 62 61 62 62 63 65 67 66 64 66 72 69 70 70 67 67 65 65
52 55 60 62 73 75 72 71 76 80 80 78 79 81 80 79 80 80 77 76 75 73 66 64 64 64 63 63 61 61 60 61 62 61 61 63 66 67 67 66 65 66 66 67 67 66 66 66 65
61 58 57 65 75 73 70 70 74 79 80 77 78 79 80 79 82 80 77 75 74 70 69 64 62 61 60 60 59 58 57 58 59 60 61 63 67 68 67 66 67 67 66 66 66 65 65 64 66
59 53 55 65 74 71 70 69 74 78 79 81 80 79 79 81 81 79 75 73 72 69 65 62 61 60 61 61 62 62 60 59 60 60 62 64 66 67 67 66 65 66 66 64 64 64 63 64 65
57 55 57 59 68 72 68 64 68 75 79 82 83 83 83 81 79 77 74 72 71 69 66 64 61 60 60 62 60 60 59 59 58 59 60 65 66 67 67 66 66 64 65 63 64 64 64 61 62
53 63 62 62 60 54 69 51 66 72 74 78 80 79 80 82 82 78 75 72 71 71 66 65 62 60 61 61 61 59 58 57 60 60 61 64 65 67 69 68 66 66 65 63 63 66 64 63 61
55 63 60 61 59 58 59 55 62 71 70 74 78 80 80 81 82 79 75 75 74 72 68 65 63 60 61 61 62 61 60 60 62 61 61 61 61 64 64 68 64 64 66 63 63 63 64 63 60
61 55 56 59 57 46 55 56 57 64 70 76 80 81 82 81 82 82 79 77 75 73 69 67 64 62 62 61 62 61 61 61 60 60 59 60 62 63 62 66 63 62 62 63 62 63 61 61 62
58 48 40 40 42 41 58 55 59 69 76 77 78 80 82 81 80 80 78 76 74 71 68 67 65 63 63 61 61 62 62 62 61 60 60 61 61 62 63 62 61 62 63 63 63 62 61 62 61
52 48 42 32 37 45 60 51 60 75 79 80 81 82 83 81 80 80 80 77 75 71 70 69 67 65 63 61 61 62 63 63 63 62 63 62 62 64 65 63 62 62 64 64 62 61 60 60 60
50 42 55 48 49 43 52 61 71 75 75 77 78 79 79 80 80 79 81 77 76 73 70 68 68 67 65 63 62 61 62 62 63 63 63 63 64 64 64 63 62 62 63 64 65 63 62 62 62
56 60 44 49 34 34 50 54 56 67 69 75 76 77 79 81 81 80 80 77 77 75 73 70 70 69 65 64 62 62 62 64 64 64 63 63 63 64 65 64 64 64 64 65 64 63 63 62 63
52 50 50 50 48 40 39 47 66 66 71 71 74 76 78 79 80 81 80 79 78 76 75 71 71 70 68 64 63 62 62 63 64 63 64 64 63 64 65 65 65 64 64 65 64 64 64 63 63
57 51 52 41 42 48 45 48 69 67 68 71 74 76 77 79 80 81 80 79 77 76 76 73 72 72 71 69 65 63 63 63 63 63 64 65 64 64 65 66 66 66 65 65 64 63 66 64 63

GFSSGP_sfc_temp_069.txt.gz
Temp
65 67 66 66 52 49 45 55 64 64 65 71 76 74 69 69 67 56 74 79 77 74 73 75 74 74 75 75 74 74 75 76 76 75 75 75 75 75 75 76 76 76 77 78 78 77 77 75 74
70 75 68 61 47 40 47 62 64 68 73 77 77 76 71 68 76 73 73 80 79 75 74 73 74 74 74 74 74 74 75 76 75 75 75 75 75 75 75 75 75 76 76 77 77 77 76 74 74
72 76 59 53 47 44 48 61 65 72 76 76 73 76 75 69 78 74 77 79 78 77 76 74 73 73 74 74 74 74 75 75 75 75 75 75 75 75 75 74 75 76 76 77 77 76 74 73 72
69 65 62 49 47 56 61 69 72 73 73 77 74 70 75 78 77 77 78 79 76 76 79 72 72 73 73 74 74 74 74 74 74 74 75 76 75 75 75 74 75 76 76 76 76 74 73 71 71
65 59 49 45 51 62 69 72 72 72 74 75 76 70 69 76 79 78 76 78 74 72 71 71 71 72 73 73 74 74 73 73 73 74 74 74 75 75 74 74 75 75 75 75 74 73 72 71 71
56 58 44 43 54 65 71 75 75 74 74 74 70 71 68 77 76 74 75 74 74 70 70 71 71 72 73 74 73 72 73 73 73 73 74 73 74 74 74 74 74 74 73 72 72 72 71 71 71
53 50 46 50 56 63 71 73 72 72 71 70 77 69 67 73 73 74 74 71 70 69 69 69 69 68 68 68 68 67 68 67 67 73 72 72 72 72 73 73 73 72 71 71 71 71 70 70 70
61 54 50 55 56 60 73 74 76 74 69 80 78 67 63 70 74 73 71 69 68 67 67 67 66 65 64 65 66 66 67 68 65 65 70 70 71 72 72 71 71 71 70 70 70 70 70 69 69
64 54 50 54 58 64 74 66 72 78 74 75 77 75 75 75 75 71 65 65 65 66 65 66 65 65 64 64 65 67 68 68 67 67 64 67 72 71 70 70 70 69 69 69 69 69 68 68 69
60 51 55 65 67 67 73 69 72 70 71 72 72 73 75 75 72 69 65 63 63 64 64 65 65 64 64 65 63 62 64 64 64 64 64 68 70 69 69 69 68 68 68 68 68 68 67 67 64
60 55 63 67 72 72 69 70 72 71 66 72 70 69 72 72 70 69 70 66 63 64 64 64 64 64 62 62 62 61 61 61 60 61 61 68 69 66 67 66 67 65 67 65 66 66 65 65 64
56 65 67 69 73 71 69 71 69 68 71 77 75 74 72 71 69 70 68 64 62 62 63 64 64 64 63 64 62 62 61 61 60 60 61 67 66 66 65 64 64 65 64 62 61 62 64 64 65
61 65 70 73 73 73 74 69 69 69 73 76 76 76 72 69 70 71 67 64 62 61 62 63 64 65 64 62 61 61 62 62 62 65 66 66 66 65 65 63 64 64 64 61 60 61 65 64 64
66 67 68 71 71 73 71 68 66 71 75 75 76 71 72 71 72 67 66 62 61 61 61 63 65 66 63 61 61 62 61 62 63 64 64 66 66 65 65 63 64 64 65 64 62 61 62 64 64
68 61 66 68 68 68 72 63 64 70 74 73 72 71 70 71 73 68 67 62 61 61 62 61 64 65 64 63 60 60 61 63 63 63 64 66 66 65 65 64 63 64 64 64 62 62 64 63 65
58 58 51 64 68 70 65 57 67 71 71 69 70 69 70 70 72 70 66 64 61 62 62 63 65 62 62 61 61 60 61 62 63 62 63 64 67 67 65 64 65 65 65 65 64 63 65 62 63
53 44 50 58 69 68 62 60 69 72 72 69 70 68 68 69 68 69 66 64 63 62 64 62 62 61 61 59 61 60 61 62 62 62 63 63 65 67 66 64 65 67 65 63 65 65 65 63 61
43 47 50 53 63 66 62 62 69 72 69 68 67 68 67 68 69 70 68 66 64 62 62 61 62 62 60 60 60 61 61 60 61 62 62 63 64 65 65 65 63 63 64 61 66 67 62 63 64
54 53 51 55 62 58 59 63 64 72 66 64 65 67 66 68 71 70 69 67 64 61 60 62 61 61 60 59 58 58 58 60 60 61 62 62 63 65 66 65 63 63 64 61 66 65 63 60 62
53 51 50 58 63 61 61 63 63 68 66 66 67 65 67 68 69 69 66 65 64 60 60 61 60 60 60 60 60 60 59 60 61 61 61 62 63 65 65 64 63 64 62 60 61 62 59 62 61
49 51 52 53 59 61 60 57 59 69 69 70 70 72 72 69 67 67 65 64 61 60 59 60 60 60 60 61 60 59 58 58 58 58 59 61 63 66 66 65 64 63 63 61 61 62 62 60 60
42 57 58 56 53 42 59 44 55 64 67 69 69 65 70 68 69 68 66 64 61 60 59 60 60 60 61 61 60 58 57 55 58 59 60 63 62 63 64 65 65 64 62 60 59 62 61 60 59
46 55 53 51 46 46 50 44 51 61 60 65 69 67 67 69 69 67 66 65 65 62 59 58 59 60 61 60 60 59 59 60 60 60 61 62 61 61 62 62 61 60 60 59 60 60 60 61 57
54 50 51 50 45 34 48 46 46 55 63 66 70 72 70 68 70 69 68 67 65 61 59 58 58 59 60 60 60 59 58 58 56 56 58 59 58 59 61 62 61 61 60 60 59 60 60 59 59
51 42 34 34 33 32 53 48 52 61 68 70 68 69 70 69 69 67 66 66 65 59 58 57 57 58 59 59 60 59 58 58 57 57 57 58 58 60 60 60 60 59 60 60 59 60 59 59 58
46 42 35 28 29 38 53 43 53 67 72 74 72 70 68 67 70 68 67 67 65 62 61 59 57 57 60 59 60 61 62 60 60 59 59 60 60 61 63 59 61 61 60 59 60 59 58 59 58
42 39 49 35 40 33 42 53 63 67 69 70 71 72 66 64 66 69 69 68 66 63 62 62 59 58 59 59 60 61 62 62 60 61 61 62 62 63 62 61 61 61 61 60 59 58 59 60 60
47 51 35 34 29 28 41 46 49 56 64 69 66 65 67 66 65 69 70 69 67 65 64 63 62 61 60 59 61 61 62 62 62 62 62 62 62 64 63 62 62 61 62 62 62 61 61 60 60
46 39 39 40 40 33 32 40 56 58 61 64 66 66 65 67 67 67 71 70 68 67 65 64 63 62 61 60 62 61 61 62 62 62 62 63 62 62 63 63 62 62 62 62 62 62 62 61 61
51 47 42 34 35 41 36 39 61 61 62 63 63 67 68 68 68 67 69 69 67 66 65 64 64 64 62 62 60 62 62 62 61 62 62 62 62 63 62 63 62 63 63 62 62 62 63 60 59

GFSSGP_sfc_temp_072.txt.gz
Temp
64 64 65 64 50 45 41 50 59 61 61 68 72 71 66 66 65 55 72 73 73 72 73 73 73 74 74 74 74 74 75 75 75 75 75 75 75 75 75 75 76 77 77 78 78 77 77 76 74
66 71 65 56 44 36 43 54 59 64 69 72 73 71 67 64 71 71 71 75 74 73 72 73 73 74 74 74 74 74 75 75 75 75 75 75 75 75 75 75 75 76 77 78 78 77 76 74 73
69 73 57 50 41 39 45 57 66 69 72 72 70 72 69 67 72 72 74 75 73 72 73 73 73 73 74 73 74 74 75 74 74 75 75 75 75 75 75 75 75 76 77 77 78 77 74 73 72
66 61 57 46 44 50 54 60 66 66 71 70 70 66 71 75 74 75 76 75 72 72 73 71 72 72 73 73 73 74 74 73 73 74 75 75 75 75 75 74 75 76 76 77 76 75 73 72 71
61 54 44 40 46 55 61 64 66 68 69 71 72 66 66 71 75 75 74 75 72 69 71 71 71 72 73 73 74 73 73 73 73 74 74 75 75 75 74 74 74 75 75 75 75 73 71 71 71
54 52 40 39 47 59 62 66 69 71 71 70 67 65 65 73 73 71 72 71 70 68 68 69 71 71 72 73 73 73 72 73 73 73 74 74 74 73 73 74 74 74 73 73 73 71 71 71 70
52 44 40 42 49 55 64 68 70 69 69 69 73 63 64 68 71 71 70 68 68 68 68 68 68 69 69 69 69 69 71 71 69 69 71 72 71 72 73 73 73 73 72 72 71 71 70 71 70
55 49 42 45 49 51 64 69 71 69 67 76 74 62 60 69 70 69 68 66 66 66 66 66 66 64 64 65 67 67 69 67 67 67 66 67 69 70 71 72 72 71 71 71 71 70 70 69 69
58 44 40 46 51 57 67 63 71 76 71 71 73 69 72 72 70 66 63 62 63 65 64 64 64 65 64 64 66 68 68 68 67 67 66 66 66 70 71 70 70 70 69 69 69 69 69 68 69
52 46 47 57 59 61 66 61 67 69 68 68 66 68 71 72 69 65 62 61 61 62 62 63 63 63 64 65 65 64 66 65 65 64 65 63 61 68 69 69 69 68 68 68 68 68 68 67 67
52 51 57 60 65 65 61 63 70 68 64 68 68 65 68 69 68 66 64 63 62 62 62 63 62 62 64 63 63 62 61 62 61 63 63 61 63 66 67 66 67 66 67 65 66 66 65 63 62
50 59 61 63 65 64 63 68 65 66 69 73 70 70 69 67 66 66 64 61 61 62 62 62 62 62 60 61 61 60 61 60 60 61 63 62 64 65 66 66 65 65 65 62 62 61 61 61 63
55 59 63 65 66 66 68 65 66 67 72 74 71 70 68 67 66 66 63 62 62 60 61 62 62 63 63 62 60 60 59 60 60 61 62 65 66 66 66 65 63 64 63 63 60 60 60 62 64
60 61 62 65 65 67 65 65 62 70 71 70 69 67 67 66 66 61 61 60 60 60 60 61 62 64 64 60 60 61 61 62 61 60 62 64 67 66 65 64 61 61 61 62 63 60 60 61 63
61 55 60 62 61 62 64 60 60 72 69 69 69 67 67 67 66 63 62 60 60 60 60 60 61 64 62 60 60 61 60 62 62 63 63 64 66 63 62 61 61 61 61 59 58 58 59 60 62
54 52 46 58 62 65 61 53 65 70 66 66 66 64 66 66 68 66 63 61 60 60 60 60 63 60 60 60 60 61 62 62 63 64 64 64 65 64 62 61 61 63 61 62 61 58 58 59 59
48 41 45 51 63 63 59 55 65 70 67 65 64 62 65 65 64 64 63 62 60 60 60 60 62 61 59 61 61 61 61 62 62 63 63 64 65 64 63 62 62 62 62 61 61 57 58 57 57
40 42 41 46 58 60 56 54 64 67 64 67 66 60 66 66 66 64 63 63 60 60 61 62 62 61 57 58 60 61 60 60 60 62 63 64 65 66 63 63 62 61 63 60 61 58 58 60 58
48 46 45 50 59 54 53 55 60 65 67 64 62 60 65 66 69 65 63 62 60 59 59 60 60 60 59 59 59 59 59 59 60 61 62 61 64 66 65 65 62 63 61 62 63 60 61 59 58
47 44 43 52 60 56 51 52 59 64 64 66 64 62 62 64 63 63 61 60 59 58 59 59 59 60 60 60 60 60 59 60 61 61 61 62 63 65 66 66 63 64 62 59 60 59 59 59 60
46 44 45 47 56 55 51 48 54 62 65 65 64 66 64 65 63 63 61 60 59 58 58 59 59 60 60 60 59 57 58 58 58 59 59 60 61 63 64 65 64 62 63 60 59 59 61 56 57
41 52 51 49 48 38 51 34 50 59 61 64 64 62 62 66 66 65 63 59 57 58 59 59 59 59 60 60 59 57 57 56 59 59 60 60 60 61 62 63 63 61 62 60 59 60 60 59 59
44 52 47 48 42 40 45 39 48 58 57 60 63 62 60 66 66 64 64 61 60 60 59 58 58 58 59 60 59 58 57 59 59 59 59 60 59 60 60 61 62 60 60 59 59 59 59 58 55
52 46 46 47 43 32 44 44 44 51 58 62 65 67 63 66 66 66 66 62 59 58 60 57 57 57 58 60 59 59 57 58 57 57 57 58 60 59 60 61 61 60 60 59 59 60 59 59 58
46 39 33 33 32 30 49 45 48 58 63 64 64 67 65 67 66 63 61 60 57 57 58 59 57 56 57 58 59 59 59 59 58 58 58 58 58 59 61 60 60 60 61 61 62 60 60 58 57
43 39 33 26 27 33 48 39 49 63 69 69 69 67 63 65 65 63 62 62 58 57 58 59 59 59 58 59 59 60 60 60 57 56 58 59 60 61 62 61 61 61 62 62 60 60 59 57 56
42 36 45 35 36 32 40 47 59 63 65 67 67 65 60 64 63 63 63 64 59 57 57 57 58 59 58 58 59 59 59 58 57 57 57 58 61 62 60 61 61 61 61 61 60 57 59 58 58
47 49 34 35 27 27 39 43 45 54 59 62 60 59 59 60 63 64 65 64 62 60 58 57 57 58 58 60 59 60 60 61 60 58 57 58 59 60 61 60 61 60 61 61 61 60 59 59 59
41 38 39 39 38 31 30 36 53 51 57 57 58 60 60 60 61 64 65 65 63 61 60 57 57 57 58 61 60 60 60 61 61 60 58 59 59 60 61 61 61 61 61 61 61 62 61 59 60
48 42 39 34 33 37 33 35 50 51 56 59 59 60 60 60 62 63 62 62 61 60 60 59 59 58 58 59 59 59 60 61 61 61 61 61 60 61 60 61 61 61 61 62 61 60 62 60 59

GFSSGP_sfc_temp_075.txt.gz
Temp
64 63 62 62 50 43 38 47 53 57 62 66 69 67 65 63 63 55 68 72 72 71 72 72 73 73 74 74 74 74 75 75 75 75 75 76 76 76 75 75 76 77 77 78 78 78 77 76 74
63 67 62 53 43 35 40 50 54 59 67 69 68 66 63 63 68 68 68 72 72 72 71 72 73 73 73 74 74 74 75 75 75 75 75 75 75 75 75 75 75 76 77 78 78 77 76 74 73
67 68 56 48 38 37 42 53 58 64 68 65 66 67 67 65 70 69 73 73 71 70 73 72 72 72 73 73 73 74 74 74 74 75 75 75 75 75 75 75 75 76 77 78 78 76 74 72 72
64 60 54 44 41 45 50 56 58 63 69 67 65 62 68 72 70 73 73 73 70 69 72 71 71 72 73 73 73 73 73 73 73 74 75 75 75 75 75 74 75 76 78 78 77 75 73 71 71
58 52 42 37 43 49 55 59 61 63 64 68 66 64 64 71 73 72 71 72 69 67 69 70 70 72 73 73 73 73 73 73 73 74 74 74 75 75 74 74 75 76 76 76 74 72 72 71 70
51 50 37 36 44 54 58 60 63 64 67 68 63 63 63 70 70 70 70 69 69 67 68 69 71 71 72 72 72 71 71 72 73 73 73 74 74 73 73 73 74 74 74 73 72 71 71 70 70
49 43 39 41 44 51 58 63 62 63 64 64 69 60 62 65 68 68 68 67 67 67 66 67 68 71 71 70 70 70 70 72 72 71 70 70 70 71 72 73 73 73 72 72 71 71 70 70 69
52 47 38 43 46 49 61 63 63 61 63 72 70 60 58 66 68 66 65 65 65 65 65 65 65 65 66 67 67 68 69 68 68 67 65 65 68 70 71 72 72 71 71 71 70 70 70 70 68
55 42 36 43 48 53 61 57 63 66 64 68 70 66 69 69 67 63 62 61 62 63 64 64 63 63 63 66 67 68 69 67 68 67 66 65 66 67 68 69 70 70 69 70 70 69 69 68 68
49 40 44 52 58 56 58 54 61 63 64 65 64 67 67 69 66 63 61 60 60 61 61 64 64 62 62 65 66 66 66 66 66 66 66 66 66 66 68 67 69 68 68 68 69 68 68 68 66
49 48 52 56 60 58 54 59 62 61 61 65 64 65 64 66 65 64 62 62 62 61 61 63 64 63 63 63 63 64 65 64 64 64 64 64 63 65 66 66 66 65 68 67 67 65 66 66 64
48 53 58 57 59 56 56 59 60 60 65 70 69 67 65 65 64 64 62 61 60 61 61 63 62 63 63 63 62 61 63 63 62 62 64 61 60 63 66 65 64 64 64 62 64 62 64 64 64
51 54 58 60 60 59 61 58 60 62 68 71 69 66 65 66 66 64 62 61 61 61 60 63 63 61 60 60 61 60 61 61 62 62 62 61 62 63 65 65 64 64 64 62 62 61 64 63 63
55 56 57 59 59 59 59 60 57 65 70 67 66 64 65 65 64 59 60 59 61 61 60 62 63 64 61 62 60 61 60 61 61 61 62 62 64 65 66 65 63 63 63 61 61 61 61 63 63
57 51 54 56 56 55 59 54 55 65 68 65 64 66 66 65 63 63 62 61 61 61 60 60 63 62 61 61 60 61 61 62 60 61 61 63 64 65 65 65 61 60 60 60 58 59 60 61 63
50 49 43 53 57 58 58 49 59 64 63 62 64 63 65 62 66 64 61 61 60 59 59 60 62 60 59 58 60 61 61 61 62 61 61 62 64 66 64 63 60 60 58 58 60 59 59 59 62
43 39 42 47 58 57 54 52 59 63 63 61 62 60 63 63 63 61 61 60 60 60 59 59 59 58 59 58 60 61 61 62 62 63 62 63 63 64 62 61 61 59 59 59 59 55 59 57 58
36 38 37 42 49 53 50 49 56 62 60 60 60 61 61 63 65 63 60 60 59 59 60 59 59 59 60 60 60 60 60 61 62 63 63 61 62 62 61 61 59 59 60 55 56 57 56 57 59
45 43 40 43 52 50 49 50 54 57 56 56 61 64 58 62 69 61 60 59 58 59 59 59 58 57 59 59 59 58 58 59 60 62 63 62 61 61 62 62 59 61 59 59 58 56 57 54 55
44 41 41 47 53 53 47 48 55 58 57 61 63 65 61 59 58 58 58 58 58 59 59 59 58 58 60 60 60 60 59 59 60 61 61 63 61 61 63 63 61 62 61 57 57 58 56 58 58
43 41 41 43 50 53 46 46 51 58 59 62 64 66 63 61 59 58 57 57 58 57 57 58 57 57 59 61 59 58 58 59 58 59 60 61 63 62 61 64 63 62 62 60 60 59 61 57 55
37 48 48 45 43 36 47 33 46 52 55 59 61 59 59 61 63 61 59 56 58 58 59 59 60 58 58 59 59 58 58 57 59 60 60 60 62 63 62 62 62 63 61 60 59 59 61 60 58
41 48 45 45 41 40 41 35 43 52 53 58 61 62 60 62 63 61 60 58 58 60 60 61 60 61 59 57 59 58 57 58 58 59 59 59 59 60 61 61 59 59 60 60 59 57 57 57 58
51 44 43 43 42 30 39 39 37 46 55 60 63 63 62 60 63 64 63 60 58 61 60 59 58 58 58 57 57 57 58 57 55 57 58 58 58 57 59 59 60 60 59 58 58 58 58 56 57
47 39 31 29 29 29 44 40 44 53 59 62 64 66 64 60 62 61 59 57 58 59 59 58 57 57 58 57 56 55 56 57 57 57 58 57 58 58 57 59 59 59 60 59 58 57 57 57 56
41 39 32 25 26 30 46 37 46 60 65 63 64 64 64 61 64 62 60 58 57 59 59 59 57 57 59 59 58 56 56 59 59 58 58 58 59 60 61 59 59 60 60 59 59 58 58 57 56
39 34 44 34 35 29 36 45 55 59 59 59 57 60 59 57 63 61 60 58 57 59 59 59 58 56 59 59 59 56 56 57 58 56 58 59 60 61 61 59 59 60 60 59 59 58 58 58 58
44 48 33 35 27 25 35 41 40 45 48 54 55 54 55 57 59 60 60 58 58 58 60 60 60 56 59 59 60 59 57 57 55 54 54 56 58 59 57 59 59 58 60 60 59 59 60 59 59
40 38 38 39 36 29 28 35 47 44 48 50 53 54 54 56 58 60 60 58 57 57 59 59 59 57 59 58 60 59 56 57 59 56 55 55 55 56 56 59 60 60 60 61 60 61 61 59 59
44 41 39 33 31 34 33 35 50 48 50 52 52 54 53 55 58 59 58 57 57 55 57 57 57 58 59 57 59 59 56 59 59 59 57 56 56 56 58 57 59 61 61 61 60 60 61 59 59

GFSSGP_sfc_temp_078.txt.gz
Temp
62 61 60 60 49 42 36 44 49 54 58 62 66 64 63 63 61 54 67 70 71 70 71 72 73 74 74 74 74 74 75 76 76 76 76 76 76 76 76 76 76 77 78 78 78 78 78 76 74
61 64 60 52 42 35 39 46 51 56 63 66 65 64 61 62 66 66 67 72 71 70 72 71 72 73 74 74 74 74 75 76 76 76 76 76 76 76 75 75 75 77 78 78 78 78 76 74 73
64 65 55 47 36 38 40 49 56 59 65 64 63 65 64 64 68 67 71 72 70 69 72 70 72 72 73 73 74 74 75 75 75 75 76 76 76 76 75 75 75 76 77 78 78 77 75 73 72
62 58 52 42 37 44 48 54 56 59 64 63 61 61 67 70 69 71 72 70 69 70 71 70 71 72 73 73 73 74 74 73 74 74 75 75 75 75 75 74 75 76 77 77 77 75 73 71 71
55 50 39 34 39 47 51 56 55 59 61 64 64 62 63 69 71 71 69 70 68 68 71 71 70 71 73 73 73 73 73 72 73 74 74 75 75 75 74 74 75 75 76 76 75 73 71 71 70
50 48 35 33 39 52 55 58 58 60 61 64 61 62 64 66 68 67 68 68 68 66 67 69 71 71 72 72 72 71 72 72 72 73 73 74 74 73 73 74 74 75 75 73 72 71 71 70 70
48 42 36 36 41 48 59 60 59 59 60 61 64 61 62 63 67 67 67 67 66 66 66 67 70 71 70 70 70 70 70 71 71 71 71 69 70 71 73 73 74 73 73 71 71 70 70 70 69
49 45 34 40 44 47 59 60 59 59 60 68 65 59 60 63 66 65 65 65 64 64 65 65 69 70 70 70 69 67 69 69 68 68 67 67 66 69 71 70 71 73 71 71 70 70 70 69 68
51 40 34 40 45 51 58 51 59 62 61 62 66 63 66 66 65 62 61 62 62 63 63 63 64 66 67 68 68 68 69 68 68 68 67 66 66 66 68 68 70 71 69 70 70 70 69 68 67
48 37 43 49 53 53 55 51 58 58 57 61 61 66 65 65 63 62 60 61 62 62 62 64 64 62 62 65 65 67 67 66 66 65 65 64 65 65 67 67 68 69 68 69 69 68 67 66 64
45 43 48 52 57 55 51 55 59 58 55 61 62 61 61 62 62 61 62 62 62 62 60 64 64 62 63 64 65 66 65 64 65 64 64 64 64 66 66 65 66 66 67 66 66 66 65 63 63
43 50 53 53 57 55 54 53 57 58 60 66 65 66 63 62 62 62 61 61 60 60 60 63 64 64 63 63 64 63 64 64 64 65 64 63 64 65 64 64 64 64 65 63 62 64 62 62 62
47 50 54 56 57 55 58 55 57 58 62 66 65 64 62 62 64 65 63 61 59 59 60 63 63 64 63 63 62 62 63 63 64 64 64 63 63 63 64 64 63 64 62 62 59 61 61 60 61
52 53 52 54 55 57 56 57 54 57 63 63 63 63 63 61 64 59 60 61 59 61 60 63 63 64 61 61 61 61 62 62 62 62 64 62 62 62 63 63 63 62 62 61 60 62 62 61 61
53 47 51 51 52 52 56 50 52 60 62 61 62 62 62 62 64 61 65 62 61 61 60 63 63 62 59 60 61 61 60 61 60 61 62 62 62 62 65 64 62 62 63 61 58 59 61 61 62
46 44 38 49 51 55 54 46 56 59 59 59 59 59 60 62 64 66 64 60 59 59 59 64 65 61 58 59 61 61 61 61 60 60 62 62 63 65 65 64 62 61 62 62 60 59 59 59 58
39 33 39 44 55 53 50 49 55 59 57 57 58 58 59 59 61 65 60 59 59 60 59 61 62 60 57 57 60 61 61 61 62 61 61 62 64 65 64 63 61 60 61 62 60 58 60 59 58
33 35 34 37 46 47 47 47 53 57 55 56 56 56 57 60 63 67 59 59 59 58 59 61 61 59 58 59 60 60 60 61 61 62 61 62 62 64 62 61 59 60 61 58 59 57 55 58 58
42 39 37 39 49 46 47 46 50 52 52 53 55 55 56 60 68 64 59 58 57 57 58 59 59 59 59 58 58 58 58 59 60 62 63 62 63 64 61 59 59 60 58 59 59 57 56 53 56
41 37 37 44 49 48 44 45 52 53 53 56 58 58 58 58 59 57 57 57 57 59 60 59 59 59 59 60 59 60 59 59 60 61 61 60 60 60 60 59 59 60 59 57 58 59 55 54 58
39 37 38 39 46 47 44 43 48 54 55 56 58 60 61 61 57 55 56 57 57 60 60 59 59 59 58 60 59 58 58 59 58 59 60 60 60 59 59 59 60 60 60 58 59 59 57 56 56
34 44 44 42 39 32 42 30 42 48 53 55 58 58 59 58 60 58 56 56 57 60 61 59 57 59 61 61 59 57 57 56 58 59 60 61 60 59 59 60 59 60 59 58 59 60 60 58 57
40 46 43 42 37 35 37 32 38 47 47 52 57 59 60 57 60 58 58 58 58 60 58 57 57 58 59 60 60 54 56 57 58 58 59 59 60 60 59 60 60 59 59 59 59 57 57 58 58
48 43 41 39 36 29 37 34 35 44 50 54 59 61 62 58 60 60 58 57 60 61 58 58 60 60 59 58 60 54 56 57 55 56 57 58 58 59 59 60 59 59 59 59 58 57 57 57 57
42 38 28 27 28 28 41 35 40 52 56 57 57 57 60 61 57 58 55 55 59 58 60 61 59 59 59 57 58 57 54 55 54 57 57 57 57 57 59 59 59 60 60 58 58 57 57 56 56
37 37 28 23 25 28 43 33 43 54 55 57 56 55 55 58 59 59 57 56 57 59 60 59 58 58 58 57 57 55 54 54 55 56 57 58 58 58 58 59 59 60 59 59 58 57 57 57 56
40 35 40 33 34 30 35 41 50 51 50 53 52 53 52 53 59 59 59 57 57 59 59 59 58 58 58 58 58 56 54 55 58 57 57 58 58 59 58 58 58 59 59 59 59 59 58 57 57
43 46 33 34 25 25 32 35 37 44 46 49 49 48 50 54 57 59 57 56 59 60 60 59 59 58 59 59 59 58 57 55 56 54 55 58 58 58 56 58 59 58 59 59 59 59 59 58 58
39 37 37 37 35 27 26 31 47 45 47 48 50 50 50 53 57 56 54 55 60 60 59 58 59 57 59 58 59 58 57 56 54 55 54 54 57 58 58 59 59 58 58 59 58 59 58 57 57
45 38 37 32 30 33 32 32 48 48 50 51 48 49 50 50 53 54 55 57 58 58 57 57 57 59 59 58 58 58 57 57 54 56 55 55 54 57 58 58 59 59 59 59 59 58 59 58 57

GFSSGP_sfc_temp_081.txt.gz
Temp
70 71 74 73 63 60 55 59 61 63 66 72 73 73 74 74 69 67 79 80 78 77 76 77 74 74 74 75 74 75 76 76 76 76 76 76 76 76 76 76 76 77 78 78 78 78 78 77 75
71 71 72 66 58 54 59 59 61 67 72 73 73 72 72 73 75 76 79 79 80 78 76 77 74 74 74 74 74 75 76 76 76 76 76 76 76 76 76 75 76 77 78 78 79 78 77 75 74
73 72 69 64 55 55 59 60 68 69 71 71 73 75 75 74 76 78 82 80 78 77 75 76 73 73 74 74 74 74 76 75 75 76 76 76 76 76 76 75 75 77 78 78 79 78 76 73 72
72 72 65 57 53 58 62 65 65 67 71 73 74 73 77 79 77 80 81 79 77 77 75 73 71 73 73 73 74 74 74 74 75 75 75 76 76 76 76 75 76 77 77 78 78 76 73 72 71
68 65 57 52 52 57 60 65 66 66 68 70 74 71 73 78 79 79 78 78 77 76 76 76 70 72 73 74 74 73 73 73 73 74 75 75 75 75 75 74 75 76 76 76 75 73 72 71 71
64 62 52 50 52 59 65 67 67 68 69 73 69 70 74 77 78 77 77 77 76 72 73 73 72 72 72 73 73 72 72 71 73 73 74 74 75 74 75 75 74 75 74 74 72 71 71 71 70
61 57 54 51 51 56 65 67 67 69 70 71 73 68 74 74 78 76 76 76 75 74 72 71 73 74 71 70 70 70 71 71 71 71 72 71 69 70 71 72 73 73 73 71 71 71 70 70 70
62 60 49 51 53 56 65 66 71 69 71 76 75 68 71 76 74 75 75 74 74 73 73 71 72 73 75 74 69 69 70 69 69 70 69 68 68 69 69 70 73 72 72 71 71 70 70 69 68
61 55 50 52 53 59 65 64 70 72 70 71 75 74 75 73 72 72 71 69 69 71 72 73 71 72 73 72 71 69 70 69 69 69 68 67 71 71 71 70 70 71 70 69 69 69 69 68 67
59 51 53 58 61 61 65 64 68 67 68 69 71 75 72 70 71 71 72 70 68 66 67 69 68 69 70 69 71 71 71 72 68 68 69 70 70 71 69 68 68 69 67 68 68 68 67 70 75
56 52 55 59 62 64 63 63 67 65 62 68 67 72 75 71 70 71 71 73 73 68 66 67 67 67 68 69 68 67 68 68 66 66 66 69 69 69 69 68 68 67 67 68 72 71 75 75 75
53 55 59 60 64 63 62 67 63 65 66 73 73 74 73 73 72 72 73 74 70 69 68 67 67 67 67 69 66 67 66 67 65 65 66 68 68 68 69 70 67 65 65 66 73 74 73 72 73
52 56 59 61 62 62 63 60 61 63 69 73 72 70 71 71 75 76 76 75 72 69 69 67 67 68 68 67 66 66 66 65 66 66 66 68 69 68 69 68 67 64 64 64 72 73 72 71 71
56 57 58 59 60 61 59 60 62 65 70 69 68 70 72 72 74 75 73 71 70 71 69 67 67 68 69 68 66 65 65 66 65 66 66 65 66 68 69 68 67 66 63 65 73 72 71 71 72
57 52 56 58 58 58 61 55 56 67 69 67 69 71 73 70 73 72 73 72 72 71 70 66 66 69 67 65 67 65 63 63 63 64 66 65 66 66 67 67 66 66 63 63 70 71 71 70 71
52 52 46 56 57 60 58 50 63 69 66 66 69 70 70 73 74 75 74 74 73 71 68 66 67 67 67 65 65 64 63 62 62 63 63 64 66 67 66 66 65 65 63 62 68 70 69 70 69
46 43 44 49 59 59 57 53 62 66 65 64 67 68 70 71 74 74 73 73 71 71 67 66 66 67 64 63 64 65 64 64 62 62 62 63 64 66 65 65 65 65 61 63 67 68 68 67 68
40 41 44 44 54 56 53 53 59 63 63 62 65 67 67 69 73 77 74 72 71 69 67 66 65 67 63 62 63 63 63 63 64 62 64 65 65 64 64 63 62 62 61 62 66 66 68 68 68
47 44 43 47 53 50 51 52 57 61 62 63 64 67 68 70 75 76 73 68 67 67 65 63 63 62 61 60 60 60 60 62 63 63 65 64 64 64 62 62 60 61 60 62 65 66 65 66 69
45 42 42 48 52 51 50 50 56 59 60 63 65 67 69 71 73 72 69 66 66 65 64 62 62 62 60 62 63 62 63 62 63 65 64 64 62 63 63 60 60 61 61 63 64 64 65 66 66
44 41 42 42 49 51 49 47 53 59 62 64 65 67 69 69 70 71 65 64 66 65 63 62 62 62 61 63 65 62 61 61 60 60 60 59 61 62 61 60 59 60 63 62 64 65 65 63 65
39 48 46 44 42 37 50 36 49 55 57 61 64 66 68 70 70 71 66 64 65 66 66 63 62 62 62 66 65 60 60 59 61 60 62 60 60 59 59 59 59 59 62 62 63 64 66 66 62
43 49 46 45 42 40 42 38 46 53 53 58 63 65 68 70 69 68 66 66 66 67 65 62 61 62 62 66 66 61 60 62 61 60 60 60 59 60 59 58 57 59 61 61 61 61 63 66 66
50 46 45 44 41 31 41 40 43 49 54 59 63 66 66 67 67 67 67 66 65 66 62 60 59 60 61 64 64 61 64 61 58 59 59 58 59 60 60 59 58 58 59 60 61 61 62 62 63
46 40 33 30 30 33 45 39 45 53 53 55 56 59 61 62 65 64 63 63 63 62 59 59 60 59 60 60 61 61 64 62 60 60 60 59 58 58 58 59 58 58 59 61 63 62 62 62 63
42 42 35 25 30 34 44 38 46 53 56 57 57 57 58 59 61 64 64 63 64 62 60 62 64 62 59 59 60 60 64 65 63 64 63 62 62 61 60 60 59 60 60 60 60 59 61 62 61
40 36 44 33 37 31 41 47 51 55 54 55 55 55 53 56 61 63 65 63 64 62 62 64 62 61 59 59 60 59 62 64 63 62 63 61 61 61 59 59 59 59 59 60 59 58 58 58 58
45 47 34 35 27 27 38 40 41 45 48 50 50 50 50 53 58 62 63 61 62 63 62 60 61 60 60 60 59 59 60 62 63 61 60 60 60 62 59 58 59 58 58 59 59 58 60 58 58
40 37 38 37 35 31 30 38 48 46 46 46 47 48 48 49 54 58 60 62 61 62 59 59 59 59 59 61 60 59 59 59 60 61 63 62 61 60 61 60 60 59 59 59 59 60 59 59 59
46 41 41 33 31 35 33 37 50 48 48 48 46 46 48 48 48 53 58 59 58 58 58 58 58 59 60 62 61 60 59 59 58 61 61 60 62 63 61 60 60 60 59 60 59 59 59 58 58

GFSSGP_sfc_temp_084.txt.gz
Temp
75 86 89 85 71 72 70 72 79 75 76 82 82 82 82 84 80 76 91 92 91 89 88 81 74 75 75 75 75 75 76 77 77 76 76 76 76 76 76 76 77 77 78 79 78 78 78 77 75
87 84 86 84 68 66 71 77 74 79 81 82 81 82 80 80 87 87 88 91 93 91 90 85 74 74 74 74 75 75 76 77 76 76 76 76 76 76 76 76 76 77 78 78 79 79 78 75 74
85 86 80 74 70 66 71 77 79 80 81 80 80 85 84 81 86 90 94 90 90 89 90 87 73 73 74 74 74 75 76 76 76 76 76 76 76 76 76 75 76 77 78 78 79 78 76 73 73
82 82 80 67 67 71 75 80 79 78 80 82 82 79 86 89 88 92 93 90 89 88 87 76 72 73 73 74 74 75 76 74 74 75 76 76 76 76 76 75 76 77 77 78 78 76 73 72 71
84 82 69 66 69 75 78 79 79 77 77 78 82 79 81 89 92 91 91 90 88 86 86 82 71 73 73 74 74 74 74 74 74 75 75 76 75 75 74 74 76 76 77 77 76 73 72 71 71
74 77 65 64 69 73 76 83 79 77 80 81 80 79 82 89 90 90 91 89 88 86 83 83 74 73 73 73 73 72 73 73 73 73 74 75 75 75 75 75 75 75 75 74 73 72 71 71 71
70 69 65 68 69 69 73 82 75 77 79 81 83 75 84 88 88 88 89 88 85 84 82 79 79 78 71 71 71 71 71 72 72 72 72 73 73 73 72 72 73 72 73 73 72 71 71 71 70
75 72 65 68 64 66 76 76 80 78 78 83 85 76 78 85 87 85 88 86 84 82 79 75 75 77 77 77 70 70 71 71 69 71 68 69 71 70 70 70 70 69 71 72 71 70 70 69 69
77 65 62 65 64 68 76 73 79 82 78 82 83 82 84 85 84 83 84 83 83 81 82 79 75 75 76 78 77 71 71 70 70 70 69 69 78 75 69 70 70 71 70 71 70 69 69 67 67
69 64 65 73 71 69 73 75 76 76 76 75 80 85 85 84 84 82 83 82 81 81 80 82 75 76 76 78 77 77 79 78 78 78 75 79 78 75 74 72 69 70 69 69 68 68 67 69 77
69 63 71 70 70 73 72 73 77 72 69 76 75 81 84 84 84 82 83 86 85 84 80 78 74 75 80 77 75 73 71 73 75 76 73 74 77 76 75 77 71 74 71 69 68 69 76 76 77
62 68 69 71 72 71 69 75 72 74 73 80 82 83 83 82 82 84 84 86 87 84 79 75 74 74 77 75 73 72 69 69 71 74 75 72 73 77 78 73 77 72 68 68 67 75 75 76 78
63 67 71 71 70 71 72 70 70 72 78 81 82 81 80 80 84 87 88 89 89 84 82 75 76 75 72 71 71 69 68 68 70 73 74 72 73 76 77 77 75 70 66 66 66 73 74 75 77
68 65 67 69 68 69 66 68 71 72 78 77 77 78 80 81 85 88 88 87 87 86 83 78 77 76 78 78 72 68 69 69 70 72 74 71 71 74 74 74 70 69 66 66 67 71 73 76 79
65 59 65 67 68 65 69 62 64 74 77 75 77 79 81 81 85 86 87 87 87 86 84 77 75 75 77 78 77 73 69 71 69 69 70 69 71 71 73 73 71 68 69 64 66 71 75 78 80
55 60 53 65 66 66 65 56 69 75 74 74 77 79 80 83 85 88 89 88 89 87 83 78 75 74 74 76 76 75 69 69 69 69 69 68 68 68 67 67 68 69 66 66 64 71 76 76 77
54 48 53 57 67 66 64 59 69 74 73 72 75 78 80 82 85 87 89 89 88 87 83 77 73 74 74 74 73 73 68 66 66 66 67 67 68 67 66 69 69 68 65 68 63 68 76 75 76
48 48 54 52 61 62 60 60 67 72 72 71 73 77 78 79 82 87 89 88 87 85 83 78 74 75 73 68 69 71 68 66 65 64 64 64 65 67 67 66 66 65 65 63 63 67 73 76 75
55 51 48 55 60 56 56 59 65 71 72 71 72 74 77 78 84 87 88 86 84 82 80 77 71 73 69 67 67 66 67 66 65 67 66 67 65 64 65 64 64 63 62 62 63 69 70 71 74
52 50 51 56 59 56 57 57 65 68 69 71 72 73 76 78 82 85 86 84 80 80 78 75 71 70 71 73 72 69 67 67 70 71 73 72 69 68 64 62 62 62 62 61 61 66 67 70 73
50 48 50 50 55 58 56 56 62 67 70 71 73 75 77 77 79 82 84 83 79 78 77 72 70 72 71 74 70 71 69 66 65 68 70 67 65 64 64 63 61 62 61 59 60 65 68 68 72
46 55 51 50 48 46 57 44 59 63 65 68 71 73 75 77 80 83 84 84 79 78 77 72 71 74 70 72 70 69 70 64 70 65 65 67 65 63 62 62 62 61 61 60 60 66 70 72 68
49 54 51 51 48 48 50 47 58 63 60 65 70 73 75 78 80 82 84 86 83 79 76 72 69 71 70 68 73 71 70 69 72 64 63 62 60 61 60 60 60 60 60 60 61 65 69 71 70
55 50 50 51 48 37 49 49 57 59 57 61 66 69 71 74 75 78 82 84 81 79 75 67 66 67 68 68 73 70 69 69 68 62 60 60 60 60 59 58 59 59 59 59 61 68 68 69 70
53 46 40 37 34 40 51 48 55 58 60 61 62 65 68 71 73 74 76 77 76 74 68 63 64 64 65 72 73 69 69 69 66 62 59 59 59 58 59 59 57 58 59 60 60 63 66 67 68
49 48 41 31 37 44 51 44 54 60 64 65 65 65 66 66 69 73 75 74 74 73 63 62 63 63 64 72 70 66 70 69 66 65 65 63 61 60 60 59 60 59 59 59 61 61 63 66 66
46 42 51 39 44 38 48 54 58 60 61 60 60 60 60 60 62 69 74 73 72 71 61 62 63 64 63 69 65 64 69 67 65 65 68 68 68 65 60 61 59 59 59 59 59 59 60 62 64
50 54 37 41 31 33 46 48 49 51 52 55 57 57 55 54 54 60 70 70 72 68 63 64 69 64 64 65 64 63 67 69 68 68 66 67 67 64 63 60 60 58 59 59 60 58 60 60 60
44 41 42 41 39 36 38 46 54 49 49 53 57 53 51 49 49 52 65 68 68 66 65 64 67 63 63 66 65 64 65 66 66 66 67 67 67 65 64 60 59 58 58 58 59 59 59 59 59
52 47 46 39 35 39 37 44 58 55 55 57 50 51 49 47 47 48 51 62 62 62 61 61 63 62 63 65 65 65 67 65 63 64 68 69 68 67 66 63 59 59 59 58 58 58 59 60 60

GFSSGP_sfc_temp_087.txt.gz
Temp
76 86 93 89 73 76 72 79 87 82 82 89 89 87 86 91 84 77 99 97 96 94 90 82 74 75 75 75 76 76 76 76 77 76 76 76 76 75 76 76 76 77 78 79 79 79 79 77 75
90 91 90 83 70 68 74 85 82 85 89 87 86 86 85 83 94 93 94 96 97 96 92 87 73 74 75 75 75 75 76 77 76 76 76 76 76 76 76 76 76 77 78 79 79 79 78 75 74
83 92 82 76 72 67 73 86 84 88 87 86 86 90 89 85 93 95 98 97 97 97 94 88 73 73 74 74 75 75 75 76 76 76 76 76 76 76 77 76 75 77 78 79 79 78 75 73 72
87 85 82 71 70 78 80 86 86 85 86 88 89 82 90 95 92 97 98 97 95 96 95 74 72 73 74 74 74 75 74 74 75 75 76 76 77 77 76 76 75 77 77 78 78 77 73 72 71
89 84 70 70 71 79 86 87 86 82 85 83 86 82 85 94 98 97 97 96 93 93 92 82 71 72 73 74 74 74 75 74 74 75 75 76 77 77 76 75 75 76 77 77 76 74 72 71 71
77 80 67 66 72 81 85 88 86 83 85 86 84 83 86 95 95 96 97 94 93 91 89 85 74 73 72 73 73 73 73 73 73 73 75 75 75 75 75 75 75 75 71 73 74 72 71 71 71
74 73 67 70 72 77 83 86 82 84 82 84 90 81 87 93 93 94 96 94 91 90 87 85 81 77 71 71 71 71 72 73 73 72 72 74 73 73 74 74 73 73 73 72 73 71 71 71 69
79 75 69 72 69 72 84 82 85 83 81 92 89 79 80 88 90 90 94 92 89 87 85 84 83 81 80 79 70 71 71 72 72 72 70 71 71 72 71 71 71 71 71 73 72 72 71 68 68
83 68 64 70 72 75 81 79 86 88 84 86 87 87 90 89 91 88 89 88 87 85 84 82 79 82 81 79 79 71 71 71 70 71 69 70 81 77 73 72 70 70 70 71 71 70 68 67 67
74 66 68 78 80 77 78 80 80 80 79 79 83 88 91 90 89 87 87 86 85 84 84 84 77 77 78 83 79 80 80 80 80 81 79 82 79 79 77 72 68 69 69 69 69 68 67 68 76
73 65 75 78 81 79 77 77 82 77 73 79 79 84 88 89 88 87 86 89 88 88 87 85 82 79 79 79 82 83 82 80 80 79 80 80 77 74 77 71 70 70 70 70 69 69 70 77 76
68 73 75 77 79 78 73 78 75 77 77 84 85 86 87 87 86 87 88 90 90 90 88 86 85 77 82 87 84 84 79 79 79 78 78 76 75 73 74 76 75 74 73 71 67 67 71 75 76
70 73 75 77 77 76 76 73 74 75 82 85 85 85 84 85 87 89 91 93 92 90 89 85 84 80 84 80 76 78 78 76 74 76 76 76 74 73 75 75 76 75 73 69 65 67 71 74 76
73 74 72 74 75 76 71 72 75 77 83 82 82 82 83 84 87 88 90 91 91 91 91 86 83 81 82 79 75 73 75 73 72 73 76 76 76 75 75 73 73 73 72 70 65 66 68 73 75
70 64 68 71 72 71 75 67 68 79 82 80 81 82 83 83 86 87 90 91 92 93 93 86 81 82 80 80 79 74 75 70 71 72 77 76 76 76 75 74 72 73 72 70 65 65 66 70 76
61 62 56 70 73 73 72 60 74 81 79 78 80 81 82 84 86 88 90 93 94 95 92 88 83 81 80 82 82 78 71 69 74 75 76 75 75 76 75 73 71 71 69 68 64 64 64 66 72
60 53 57 63 70 68 68 63 74 79 77 76 77 80 81 83 86 89 92 93 94 95 92 88 82 79 79 81 81 81 74 71 75 75 72 72 72 73 71 70 68 68 67 67 65 63 63 66 70
53 56 60 59 67 67 63 63 69 74 75 73 76 79 80 82 85 89 91 93 95 94 91 88 81 79 79 80 77 77 73 73 72 71 70 71 70 70 68 67 66 66 67 66 65 63 63 68 71
58 57 57 62 68 62 61 62 66 70 72 73 75 77 79 80 87 89 90 91 92 91 89 86 79 78 79 74 71 73 68 71 69 69 68 68 68 68 67 66 66 64 66 65 65 63 62 62 70
55 53 54 61 65 63 61 61 67 69 70 74 75 76 78 80 84 86 88 90 88 87 86 85 80 79 76 75 77 76 74 74 74 73 69 68 65 65 64 64 64 64 64 63 62 63 62 63 69
54 52 53 55 60 63 61 59 63 71 75 75 77 79 79 80 81 84 86 88 86 85 84 84 81 80 76 77 79 77 75 73 70 68 70 73 71 71 68 68 64 62 64 62 61 62 63 61 67
50 61 57 54 51 47 64 47 61 68 70 72 74 75 77 79 82 84 85 86 86 84 84 84 82 80 78 79 78 74 72 70 72 73 75 73 72 71 70 67 64 63 62 61 61 63 63 64 66
53 61 55 55 52 51 52 51 58 68 64 67 70 73 76 80 82 82 84 87 90 86 83 82 80 79 78 78 77 75 74 76 76 74 69 69 68 67 67 63 63 62 61 61 61 61 62 63 68
61 55 54 53 52 42 50 51 55 62 61 62 67 69 72 76 79 82 85 86 89 88 83 80 77 78 75 77 76 75 74 74 72 69 66 65 65 63 61 60 61 61 60 60 60 61 62 63 67
56 49 39 38 37 37 56 52 57 62 64 63 63 67 69 69 70 75 80 83 85 85 81 77 73 73 73 75 76 75 75 73 72 69 67 62 61 60 58 58 58 59 60 60 60 61 62 63 65
51 50 40 32 36 41 53 45 55 66 63 66 68 68 69 68 67 68 74 80 83 84 80 71 68 68 69 74 77 75 74 74 73 70 65 63 62 62 60 59 58 58 59 59 59 60 61 62 65
52 45 56 44 47 41 48 57 63 65 61 64 66 66 65 65 63 62 65 79 80 80 67 65 65 66 68 76 76 73 73 71 71 70 68 65 66 64 61 60 59 58 58 59 59 58 58 61 64
56 56 41 43 32 33 46 51 51 51 56 62 63 62 62 63 59 55 61 65 77 70 66 63 65 66 69 76 74 71 71 70 71 71 69 67 67 65 64 60 61 58 58 58 59 58 59 59 59
49 45 46 47 45 37 37 44 56 55 59 60 61 61 60 58 55 49 51 53 66 67 65 62 64 65 67 73 70 69 68 68 69 67 67 69 69 69 67 63 60 59 59 58 58 58 58 58 58
52 49 49 39 41 46 42 45 60 61 61 61 60 60 58 56 52 46 46 48 60 63 63 63 63 65 66 70 67 67 67 67 66 66 68 69 69 68 65 66 61 59 59 58 58 58 59 58 58

GFSSGP_sfc_temp_093.txt.gz
Temp
64 66 66 66 51 48 43 54 67 68 68 74 78 77 72 74 73 61 78 79 77 74 74 75 74 75 75 75 75 75 75 76 76 76 76 76 76 76 76 76 76 77 78 79 79 79 77 76 75
67 74 66 59 46 39 46 62 64 72 76 77 80 78 76 72 82 81 77 81 78 75 74 74 73 74 74 75 75 75 76 76 76 76 76 76 76 76 76 75 75 76 78 78 79 78 77 75 74
69 74 57 51 45 44 46 63 69 75 77 76 75 78 78 75 83 81 83 81 79 76 76 74 73 73 74 74 74 74 75 75 75 75 76 76 76 76 76 75 75 76 77 78 78 77 75 73 72
67 62 60 47 45 53 60 67 73 74 76 76 74 72 80 86 85 84 85 83 79 78 77 71 72 72 74 74 74 74 74 74 74 74 75 76 76 76 76 75 75 76 77 78 77 75 73 72 72
63 57 48 43 50 57 67 71 74 73 75 77 78 72 74 82 87 87 84 83 78 74 72 72 71 72 73 74 74 74 73 73 73 74 74 75 75 76 75 74 75 76 76 77 76 75 73 71 71
54 56 43 45 51 62 68 73 74 75 76 76 74 75 73 83 82 82 82 78 76 72 72 72 72 72 72 73 73 72 72 73 76 74 74 74 75 74 74 74 75 74 73 74 74 73 72 71 70
52 48 45 47 53 60 67 74 71 72 73 74 78 70 74 77 79 81 81 79 75 74 71 69 70 72 71 71 71 71 72 74 75 73 73 73 72 73 74 74 74 73 72 72 72 72 72 71 70
59 54 49 52 54 57 70 74 74 72 70 81 77 69 66 74 80 80 77 76 75 73 70 69 69 69 68 68 70 71 71 72 75 73 72 71 71 72 73 73 72 72 72 72 72 71 72 72 69
65 53 49 52 56 61 72 69 74 77 72 74 75 74 76 80 81 77 74 72 73 73 72 70 69 69 68 68 70 71 71 71 71 71 70 68 69 70 70 70 71 71 70 70 70 71 70 69 68
56 50 53 61 64 64 70 64 69 70 69 72 71 77 79 79 76 74 74 72 72 71 71 72 70 70 69 72 68 67 70 70 68 69 68 68 68 68 70 70 69 69 68 69 70 69 67 68 68
55 52 60 64 69 68 66 66 70 68 65 68 67 73 75 75 73 72 73 74 75 75 73 72 71 70 70 70 68 68 68 68 68 68 67 68 68 68 67 67 67 67 69 67 67 67 67 67 67
54 62 64 66 69 68 66 66 67 67 67 73 73 73 73 74 71 72 72 74 74 75 74 73 73 71 69 68 69 68 68 68 67 67 68 66 67 66 66 66 64 64 65 65 66 66 66 67 68
59 62 66 68 69 69 69 66 65 66 71 74 76 76 71 71 72 72 73 74 77 75 75 73 73 73 72 68 69 68 69 69 69 68 68 67 67 66 66 65 65 65 64 64 64 65 66 67 68
63 63 63 63 63 65 64 62 63 67 70 72 74 73 74 72 72 71 71 72 74 75 76 74 72 73 73 70 69 67 69 69 67 67 67 67 66 66 65 65 65 65 65 64 64 65 65 64 66
63 55 59 60 60 62 65 59 60 68 69 70 71 72 74 72 76 72 73 71 74 78 74 73 72 73 73 72 68 66 66 67 66 66 67 67 66 65 65 64 64 65 65 64 63 63 63 63 65
52 52 45 56 60 64 60 50 63 69 68 68 70 72 74 75 73 75 74 73 72 74 72 75 75 72 72 70 68 66 66 65 65 65 65 66 66 66 64 63 63 65 64 63 62 62 62 62 62
46 40 44 51 61 60 58 54 63 66 67 65 63 63 65 68 71 72 74 74 76 74 72 75 73 71 71 69 68 67 66 65 66 64 64 65 66 66 64 63 63 64 63 62 62 61 63 61 61
39 41 43 45 52 55 52 51 59 64 67 62 61 64 67 70 68 72 73 75 77 80 72 75 73 72 72 70 67 66 65 64 64 64 64 66 67 65 64 63 63 64 63 63 62 61 62 62 61
49 47 45 49 56 52 52 51 56 60 62 63 65 66 70 67 72 75 73 73 78 80 73 74 72 71 71 70 67 65 63 63 63 64 66 68 66 64 63 63 62 63 63 62 62 62 61 60 61
50 47 45 50 56 52 51 50 56 59 61 65 67 68 68 69 73 76 77 73 72 78 71 73 72 71 72 72 70 66 64 61 62 65 66 66 64 63 63 63 63 63 61 61 62 62 60 61 62
50 47 46 47 51 52 50 47 52 61 65 67 70 70 72 68 70 74 76 76 71 71 67 72 72 72 72 69 67 65 63 61 59 60 62 65 66 64 63 64 63 63 63 62 62 62 61 59 60
45 54 53 52 46 37 47 35 47 55 59 64 68 62 62 61 64 68 71 72 70 70 72 72 72 71 70 70 69 65 64 60 60 61 62 65 65 65 63 63 63 63 63 62 62 62 61 61 58
49 56 52 49 43 40 43 37 45 55 55 61 58 60 59 60 62 62 64 64 67 68 72 72 71 71 70 69 68 64 61 60 61 60 61 62 62 64 63 63 61 62 62 63 63 62 61 61 60
57 51 50 46 41 32 42 39 40 47 54 54 58 58 60 60 61 62 64 64 64 63 70 72 70 70 69 68 67 65 63 61 62 60 59 60 62 63 62 63 63 62 62 62 62 63 61 60 61
48 42 28 26 27 29 45 38 43 50 55 54 54 58 56 59 57 57 57 57 58 58 60 68 70 66 67 68 66 68 67 63 61 60 60 58 58 58 59 59 59 60 62 62 62 62 62 61 60
45 42 29 23 25 32 46 33 42 49 50 52 61 58 58 56 54 52 54 53 52 59 59 66 68 65 65 66 65 67 68 62 63 61 59 57 57 59 59 58 59 59 59 61 61 61 61 61 60
45 39 47 35 37 31 38 45 50 49 47 45 55 54 52 52 50 49 50 50 50 52 60 63 64 65 65 64 66 67 66 63 61 60 60 59 59 58 58 58 58 58 59 60 60 60 60 61 61
46 51 32 33 26 24 36 40 36 42 43 47 50 49 49 49 47 46 47 47 48 49 54 60 61 61 64 65 65 65 64 63 61 60 59 59 61 61 59 58 57 57 58 58 59 58 59 59 60
45 40 43 41 35 26 26 34 43 41 43 46 49 48 47 46 44 44 44 44 45 46 49 52 59 60 61 63 65 64 63 63 61 60 60 59 61 58 59 59 57 57 57 57 57 58 58 57 58
46 39 36 29 31 35 32 35 45 45 46 48 48 47 46 44 42 42 41 42 42 43 44 46 48 59 59 62 62 62 62 62 62 62 62 62 60 61 60 58 57 57 57 57 56 56 57 58 58

GFSSGP_sfc_temp_096.txt.gz
Temp
62 64 64 63 50 44 39 49 57 62 65 71 74 72 71 71 70 60 73 77 75 73 74 74 73 75 75 75 75 75 75 76 76 76 76 76 76 76 76 76 76 77 78 78 79 78 78 77 75
64 69 63 55 43 36 41 52 58 62 70 75 76 73 70 69 76 73 73 76 75 74 73 73 73 74 75 75 75 75 76 76 76 76 76 76 76 76 76 75 75 76 78 78 78 79 76 75 74
67 70 56 49 40 39 42 55 64 67 73 72 73 74 74 71 77 76 77 76 74 73 73 73 73 73 74 74 74 74 75 75 75 75 76 76 76 76 76 75 75 76 77 78 78 77 75 73 73
64 60 55 44 42 47 53 61 63 67 72 75 72 70 76 79 80 79 78 75 73 73 73 71 71 72 73 74 74 74 74 73 74 74 75 76 76 76 75 74 74 76 77 78 78 76 74 72 72
59 53 43 39 45 50 58 64 63 66 68 73 74 71 72 77 81 80 77 77 73 71 71 71 70 72 73 74 74 73 73 73 73 74 74 75 75 75 74 74 75 76 77 77 76 74 72 72 72
52 51 39 41 47 55 60 63 66 68 71 72 69 70 71 78 79 78 78 75 74 70 70 70 72 72 72 73 73 72 72 72 72 73 73 74 74 74 74 74 74 75 75 74 74 72 72 72 72
49 44 40 41 48 53 62 66 65 67 67 70 72 67 68 74 78 78 77 74 72 70 69 69 70 71 71 70 70 70 71 72 73 73 73 73 73 72 73 74 73 73 73 73 73 72 72 72 72
53 48 40 45 49 51 65 67 68 66 67 78 75 66 63 72 76 73 73 71 70 69 69 68 68 68 68 69 69 70 70 71 75 74 72 71 71 72 72 72 72 73 72 73 73 72 71 71 70
58 43 41 45 51 56 67 62 67 71 67 70 73 69 74 76 76 73 69 68 68 69 68 68 68 67 67 67 69 70 71 71 74 74 70 69 70 70 71 70 71 71 69 71 71 71 70 70 69
51 43 47 56 58 59 64 58 64 64 64 67 69 74 74 75 74 71 69 67 67 67 67 67 67 67 66 70 68 67 69 69 69 70 69 69 68 68 69 69 69 68 67 69 70 70 68 68 67
50 48 53 58 62 62 59 61 65 64 61 65 65 69 71 71 69 70 69 71 70 70 69 68 68 68 67 68 67 68 70 69 67 67 67 66 67 66 66 66 67 67 67 66 67 67 66 67 66
50 57 58 61 64 62 61 66 63 63 66 70 69 70 71 71 69 68 68 70 71 69 70 70 70 68 68 68 67 68 68 67 67 67 67 66 66 65 65 66 64 65 66 64 65 64 64 66 67
53 57 61 64 64 64 66 62 63 65 67 69 70 70 69 69 67 69 70 68 73 71 71 70 70 70 69 68 67 67 67 67 67 67 67 66 66 65 65 64 64 64 64 64 63 62 63 65 67
58 59 58 60 59 59 59 58 59 62 67 67 68 67 67 68 68 67 66 69 68 72 72 71 71 71 71 69 68 67 68 67 67 67 67 66 66 65 65 65 64 64 64 64 64 63 63 63 66
57 51 53 54 56 55 58 57 56 63 65 64 67 67 69 68 69 67 71 67 70 69 73 70 71 71 71 70 69 67 68 67 66 67 66 66 66 66 65 65 65 64 64 63 62 62 62 62 65
49 48 41 52 57 59 55 49 58 63 62 64 67 68 69 68 71 74 75 71 69 69 71 71 73 70 69 71 70 68 67 67 67 66 66 66 66 66 64 64 64 65 64 64 63 62 62 62 62
42 37 41 46 56 54 52 50 56 61 61 60 61 62 63 63 67 67 71 75 76 71 67 70 71 69 69 69 69 67 67 68 66 65 65 64 65 65 64 63 63 65 64 64 63 62 62 61 61
36 38 37 40 48 49 47 47 55 57 57 58 57 58 60 63 64 69 69 68 70 73 66 71 71 69 69 67 67 66 66 66 65 65 64 64 65 65 64 62 62 64 63 62 62 62 61 62 61
45 43 41 46 51 49 48 49 53 53 53 53 57 59 60 64 69 67 68 68 68 69 66 69 69 69 68 66 65 64 64 64 63 64 64 63 64 64 63 62 62 63 62 62 62 61 60 60 61
45 42 41 48 53 50 48 48 55 56 54 59 60 61 63 66 69 71 67 67 67 69 70 70 69 68 68 68 69 66 66 64 64 63 64 64 64 64 65 63 62 63 63 62 62 61 60 60 61
46 42 43 44 48 47 45 45 50 57 58 60 62 63 66 65 67 71 72 67 67 66 69 70 70 69 69 70 67 64 61 60 60 62 64 65 65 64 64 63 62 62 62 61 62 61 61 59 60
41 51 50 48 41 36 46 33 47 53 54 58 60 59 54 55 57 61 61 60 57 58 66 73 70 70 71 69 66 63 64 62 61 62 60 64 65 64 62 62 62 63 62 62 62 62 61 61 58
46 52 49 47 40 37 42 33 44 50 50 54 57 55 55 55 57 57 58 59 60 59 60 69 70 70 70 67 67 64 63 61 61 60 60 60 63 64 63 62 62 62 62 62 62 61 60 61 60
53 48 45 42 39 31 41 35 39 42 45 46 52 54 55 53 53 53 55 55 54 55 57 64 69 69 68 68 66 65 62 60 60 60 59 59 59 61 62 61 62 62 62 60 62 62 60 60 60
47 39 28 25 23 28 42 37 41 48 47 47 47 52 52 50 49 49 48 48 51 51 53 58 66 66 67 67 65 64 62 61 60 60 59 59 61 61 62 62 62 61 61 60 62 62 61 60 59
42 44 32 23 23 28 40 31 38 48 51 51 50 50 50 47 47 46 48 48 48 50 52 56 64 66 64 64 64 63 63 63 62 61 60 60 61 61 59 59 59 60 60 61 62 62 61 61 60
42 35 43 35 36 30 33 40 45 48 48 48 47 47 45 44 44 44 46 46 46 47 49 53 62 63 64 64 62 62 63 62 60 59 60 58 57 57 56 58 58 58 58 59 59 60 61 61 61
46 47 32 30 24 23 31 34 34 40 41 45 45 43 43 43 42 42 44 44 45 46 47 50 56 61 61 61 62 63 61 62 62 60 58 58 57 57 56 57 57 57 58 58 59 59 60 60 60
37 35 37 37 34 26 25 30 41 42 43 43 44 43 41 40 39 40 41 42 43 44 45 46 48 55 59 59 61 61 61 62 62 60 58 58 58 59 59 58 57 58 57 57 58 58 58 58 59
40 37 36 29 29 32 28 31 44 42 44 44 42 42 41 39 38 37 39 40 40 41 41 43 45 49 55 59 60 60 60 61 60 59 59 58 58 60 59 58 57 57 57 57 57 57 57 57 57

GFSSGP_sfc_temp_099.txt.gz
Temp
61 62 62 61 49 43 37 45 51 55 61 65 69 68 68 67 67 59 71 74 73 73 73 73 73 74 74 75 75 75 75 76 76 76 76 76 76 76 76 76 76 77 78 78 79 78 78 77 75
62 66 61 52 42 36 40 48 54 57 66 69 72 69 69 67 73 70 71 73 74 73 73 73 73 73 74 74 74 75 76 76 76 76 75 76 76 76 75 75 75 77 78 78 79 78 77 76 75
64 66 55 48 38 39 41 51 53 62 67 66 67 71 72 69 75 73 75 74 73 72 73 73 73 73 74 74 74 74 75 75 75 75 76 76 76 76 75 75 75 77 77 78 79 78 76 73 73
62 58 53 43 40 44 49 52 57 62 67 67 65 66 74 77 75 77 74 73 72 71 72 71 72 73 73 74 74 74 73 73 74 74 75 76 76 76 75 74 75 77 77 78 78 76 74 72 72
57 51 41 37 41 47 54 58 59 61 63 67 70 67 68 76 77 75 73 74 70 70 70 71 71 72 73 74 74 73 73 73 73 74 74 75 75 75 74 74 75 75 76 77 76 74 73 72 72
51 48 37 37 42 51 57 59 61 62 64 67 66 65 68 74 73 73 73 71 72 69 70 71 71 72 72 73 73 72 72 72 72 73 73 74 74 74 74 74 74 74 75 74 73 72 72 72 72
47 42 38 38 44 49 57 63 60 61 62 65 70 64 67 69 73 73 72 69 69 69 69 69 70 71 71 70 70 70 71 71 71 72 72 73 72 72 73 73 74 74 73 73 72 72 71 72 71
50 46 36 42 46 47 60 63 63 62 62 72 69 63 64 71 72 70 68 67 66 66 67 68 69 70 69 69 69 69 70 70 70 71 71 71 71 72 72 72 73 73 73 72 72 71 71 71 70
54 41 35 42 46 51 62 56 62 66 63 66 69 65 70 71 71 67 66 65 65 66 65 66 69 68 68 68 69 70 70 70 71 71 71 69 70 70 71 70 71 71 70 71 71 71 70 69 68
49 38 43 52 54 56 60 54 62 59 61 63 65 71 74 73 69 67 65 65 64 64 65 66 66 66 66 68 68 69 69 68 69 73 72 69 68 68 69 69 69 69 69 69 69 69 69 67 65
46 44 50 54 58 55 55 58 62 59 58 63 63 66 69 71 68 66 67 68 68 68 66 66 66 66 66 67 69 70 70 69 67 71 71 67 67 67 67 67 68 67 68 65 66 66 65 65 65
45 52 54 54 59 57 56 62 60 60 62 67 68 67 66 70 69 68 66 66 67 67 67 67 67 66 66 67 68 70 70 69 69 67 66 67 67 65 65 66 66 65 65 64 63 63 64 65 65
48 52 56 58 59 58 60 57 58 60 65 66 66 66 64 65 67 69 67 69 68 66 68 67 67 66 67 66 67 69 69 68 69 69 66 66 66 65 65 64 65 65 64 63 63 62 64 65 66
54 54 54 55 56 56 56 57 53 59 65 63 65 64 65 64 64 64 65 64 67 71 69 68 68 68 67 67 67 67 68 68 67 67 67 66 66 65 64 64 64 63 64 63 63 62 63 63 64
55 48 50 52 53 53 57 51 53 60 61 60 60 61 63 64 65 64 65 67 66 70 73 68 68 69 68 67 66 66 66 66 66 66 65 66 65 65 64 64 64 62 63 62 61 62 62 62 64
46 45 39 49 52 56 51 46 54 60 56 57 58 60 62 63 65 65 65 65 67 67 70 71 71 69 68 68 67 66 66 66 66 66 66 65 66 65 64 66 65 63 64 63 62 62 62 62 62
39 35 38 44 52 51 49 47 52 58 57 56 56 57 58 60 62 63 65 65 66 67 68 70 70 68 68 68 67 67 67 66 66 66 66 65 65 65 65 65 65 65 64 63 63 62 62 61 61
34 35 33 36 45 45 45 47 53 55 55 55 54 56 58 61 62 67 68 67 66 65 65 71 70 70 69 68 67 66 66 66 66 66 66 65 66 65 64 63 64 64 64 63 63 62 62 61 61
41 39 37 40 48 43 46 47 52 56 48 49 51 53 56 58 65 66 66 66 64 62 61 67 68 68 68 67 66 65 64 66 65 66 66 66 65 64 64 62 63 64 63 63 63 62 61 60 61
41 38 37 43 48 45 44 44 52 52 51 53 56 56 57 60 63 65 65 63 62 66 62 64 67 67 68 68 68 66 67 66 66 65 64 65 64 64 63 62 63 63 62 62 62 61 60 60 61
41 38 39 40 46 45 42 43 47 52 54 57 58 57 57 53 53 55 57 56 54 56 59 63 67 67 68 68 68 62 62 62 62 62 63 63 64 64 65 63 63 62 63 61 61 62 61 59 60
37 47 46 44 39 33 44 32 46 49 48 54 57 53 49 50 52 53 53 52 52 54 56 58 67 67 68 69 67 64 64 63 64 65 65 62 63 63 64 63 63 62 63 62 61 62 61 61 59
43 50 46 44 37 35 40 31 41 50 48 48 46 50 49 50 50 49 50 51 52 52 54 56 65 69 69 68 68 65 64 65 63 64 60 62 62 63 63 63 62 62 62 62 62 61 60 60 59
50 45 43 39 35 28 39 34 38 42 42 43 48 48 48 48 48 48 51 51 52 53 51 53 60 67 69 68 67 65 64 61 60 60 60 60 61 62 62 62 62 62 62 62 62 62 61 60 59
42 36 26 24 23 28 38 33 36 41 45 45 45 45 46 46 44 45 46 46 48 48 50 51 55 65 67 67 66 64 63 61 60 60 60 59 58 58 61 61 61 61 61 61 62 61 60 60 60
38 37 27 23 23 25 38 28 36 45 46 49 48 47 45 43 44 44 45 46 45 46 48 48 51 63 65 65 64 63 61 61 61 60 60 60 60 60 59 60 60 61 61 60 60 60 61 61 60
38 32 39 32 31 28 31 36 41 45 44 47 46 45 42 40 41 41 42 44 44 44 45 46 50 62 63 64 61 60 60 60 60 60 60 60 60 62 62 62 61 59 59 59 60 60 60 60 60
40 42 28 31 22 23 29 30 32 38 42 45 43 41 40 40 39 39 40 41 42 43 44 46 48 52 61 61 62 61 61 61 60 60 59 58 58 58 57 56 55 56 56 56 58 58 59 59 60
33 32 34 33 31 25 24 27 42 39 42 44 40 39 38 38 38 37 38 40 40 41 43 45 45 48 51 59 60 60 59 59 59 59 58 58 57 57 56 55 54 56 55 57 57 57 58 58 59
36 32 33 18 23 28 27 28 43 40 39 39 36 36 39 38 37 37 37 37 38 38 40 42 43 45 49 53 59 59 59 59 59 59 59 58 58 57 58 57 56 57 56 56 56 56 57 57 57

GFSSGP_sfc_temp_102.txt.gz
Temp
60 60 61 60 49 42 36 44 46 53 54 61 63 64 65 63 65 59 69 73 71 71 73 73 74 74 74 75 75 75 76 76 76 76 76 76 76 76 76 76 76 77 78 79 78 78 78 78 76
61 64 60 51 43 35 41 45 50 55 62 65 66 66 63 66 71 70 69 73 72 73 72 73 73 74 74 74 75 75 76 76 76 76 76 76 76 76 76 75 75 77 78 78 79 79 78 76 75
64 64 54 47 36 38 42 48 52 58 63 61 64 67 66 67 74 71 73 72 72 72 72 72 73 73 74 74 74 74 75 75 75 75 76 76 76 76 76 75 75 77 77 78 79 78 77 74 73
60 57 51 42 38 43 47 49 53 59 62 63 61 62 70 76 73 75 72 72 71 71 71 71 71 72 73 74 74 74 74 73 74 75 75 76 76 76 75 74 75 77 77 78 78 77 74 73 72
55 50 40 35 38 45 50 53 56 58 60 64 62 63 64 75 73 72 71 72 70 69 70 71 70 72 73 74 74 73 73 73 73 74 74 75 75 75 75 74 75 75 76 77 76 74 73 72 71
49 47 37 35 41 49 53 57 59 59 61 63 61 61 65 71 72 69 70 69 70 69 69 71 72 72 72 73 72 72 72 72 73 73 74 74 74 74 74 74 74 74 75 74 73 72 72 72 71
46 42 36 36 42 48 53 59 57 58 58 60 65 60 64 70 70 70 68 68 67 68 69 70 71 72 71 70 70 70 71 71 72 72 72 73 72 72 73 73 74 74 73 73 72 72 71 71 71
48 45 36 40 43 46 56 60 59 58 59 68 65 59 60 68 69 68 66 65 65 66 68 70 71 69 69 70 69 70 70 70 71 71 71 71 71 72 72 72 73 73 73 72 72 71 71 71 70
49 39 33 41 45 49 57 53 60 62 61 62 64 62 69 70 69 67 64 63 64 65 64 69 70 71 70 67 69 70 71 70 70 70 70 69 69 70 71 70 71 71 71 71 71 71 70 69 69
46 36 41 49 51 51 56 50 56 56 58 60 62 66 69 67 65 65 63 62 62 63 63 68 69 69 68 69 69 70 71 71 69 69 69 69 68 68 69 69 69 70 69 70 70 68 68 68 66
44 41 47 52 56 52 52 54 57 56 53 59 59 64 66 67 65 65 65 65 63 64 64 65 67 68 68 69 70 70 71 68 67 68 67 67 67 67 66 66 67 66 68 66 67 66 66 66 66
44 50 53 52 56 54 51 56 54 56 58 64 64 64 63 64 64 66 66 67 66 66 66 65 64 65 66 69 70 71 71 69 66 67 70 68 68 67 65 66 65 64 64 64 63 64 64 64 64
47 50 54 55 56 54 56 52 55 55 61 63 63 63 61 61 62 64 66 70 67 69 68 66 65 65 66 67 69 70 71 71 72 71 70 69 69 68 66 65 66 64 63 63 62 62 63 64 64
52 51 53 53 54 53 53 53 52 57 60 60 60 61 62 61 62 62 62 63 64 66 68 68 66 66 66 67 68 69 71 71 70 69 69 68 69 68 66 66 66 63 63 62 62 62 62 63 64
53 46 48 50 51 51 52 45 50 57 58 57 57 58 59 60 62 60 63 63 64 67 70 67 67 67 66 66 65 66 68 69 68 68 68 69 68 67 66 65 65 65 63 62 61 61 61 62 63
44 42 37 48 49 53 50 41 51 58 52 55 58 58 59 59 61 63 61 62 63 62 64 69 70 67 67 67 66 65 67 68 67 67 67 67 67 65 64 65 65 64 64 64 63 62 62 61 62
37 32 36 42 51 48 47 41 49 57 55 53 54 55 55 56 59 60 61 61 62 62 62 65 68 68 67 68 67 66 65 66 65 66 66 66 66 65 65 66 65 64 64 63 63 62 63 61 61
32 33 30 34 44 45 43 43 48 52 51 52 51 52 53 57 58 62 62 62 62 60 60 64 68 68 68 68 67 66 66 66 66 66 66 66 65 65 65 66 65 64 64 63 63 62 62 62 61
39 36 34 37 45 40 42 44 46 48 48 48 50 50 52 54 59 58 57 57 58 58 58 60 63 67 67 68 66 66 65 66 66 66 66 65 65 65 65 65 64 64 63 64 64 63 61 61 62
40 36 35 40 45 42 40 42 48 48 49 50 51 51 51 50 51 55 55 54 53 52 53 56 60 66 67 68 71 68 68 67 67 66 65 65 65 65 65 64 63 63 63 62 63 62 61 61 61
38 35 36 37 42 41 39 39 42 49 49 52 51 50 49 48 48 50 52 51 50 50 50 53 54 62 66 68 68 63 64 63 64 65 65 65 65 65 65 64 64 63 63 62 62 62 61 59 60
34 43 43 40 35 28 39 29 41 44 46 48 48 46 45 46 48 48 49 49 49 51 51 52 53 54 65 67 67 67 65 63 65 66 66 66 65 65 65 64 63 63 63 62 62 62 62 61 59
39 46 43 41 35 31 34 31 36 46 43 42 43 45 44 44 44 45 46 48 49 50 52 52 51 55 60 66 67 66 64 66 65 66 64 64 64 64 64 63 62 63 62 62 62 61 61 62 61
48 42 41 37 35 26 35 33 35 37 39 41 44 44 44 43 43 44 46 47 47 48 48 50 51 53 57 66 66 65 65 64 62 63 63 62 63 62 62 62 62 62 62 61 61 62 61 60 60
42 36 28 24 23 26 36 31 39 39 42 44 43 42 41 41 40 41 41 42 44 45 46 48 49 49 53 65 66 66 64 63 62 63 63 62 62 61 61 61 61 62 62 62 62 61 60 60 59
37 36 28 22 23 24 35 27 33 42 44 45 45 43 41 39 39 40 41 41 42 43 44 45 46 48 51 63 66 67 65 61 61 63 62 62 61 61 62 61 62 62 61 61 61 60 60 61 60
37 31 37 30 30 26 29 34 39 43 43 45 43 41 39 37 39 39 40 40 41 41 41 42 45 47 51 65 66 63 62 60 60 61 61 61 61 59 60 59 60 60 60 59 60 59 60 60 60
38 39 25 26 19 21 27 28 29 37 40 45 40 38 38 39 37 38 39 39 40 40 41 42 44 46 50 55 62 62 61 61 60 60 59 60 59 59 59 58 58 58 58 60 59 59 59 60 60
32 29 31 31 26 20 22 26 40 38 39 39 38 37 35 36 37 36 37 38 39 39 39 40 43 45 47 50 57 60 60 59 60 59 59 59 59 59 59 59 58 57 57 56 56 56 56 57 58
34 31 31 16 19 24 22 25 42 40 39 38 36 36 37 37 37 36 36 36 37 37 38 38 40 42 44 48 53 59 59 59 58 58 58 58 58 58 58 57 57 56 56 56 56 54 57 57 57

GFSSGP_sfc_temp_105.txt.gz
Temp
70 72 74 74 65 61 56 60 60 64 65 71 73 73 74 76 73 70 82 80 79 80 80 78 74 74 75 75 75 75 76 76 76 77 77 77 76 76 76 76 76 77 78 79 79 79 79 78 77
72 73 73 66 60 56 61 58 62 67 70 72 73 74 73 73 80 83 80 80 81 81 81 80 73 74 74 74 74 75 76 76 76 76 76 76 76 76 76 76 76 77 78 79 79 79 79 77 75
73 72 70 65 55 57 59 60 62 67 71 71 72 75 75 76 84 83 83 80 79 81 81 80 73 73 74 74 74 74 75 75 75 75 76 76 77 76 76 75 75 77 78 79 79 79 77 75 73
72 72 65 59 56 58 59 62 63 67 71 73 73 71 79 82 79 81 80 80 79 79 81 74 72 73 73 74 74 74 74 74 74 75 76 76 76 76 75 75 76 77 78 78 78 77 75 73 72
68 65 57 54 54 57 59 62 65 65 67 70 72 71 72 82 82 79 78 79 78 78 79 78 71 72 73 74 74 74 73 73 74 74 75 75 76 76 74 74 75 76 77 77 77 75 74 73 72
63 62 54 52 56 58 62 65 67 66 69 71 71 70 73 81 79 77 76 77 78 78 77 78 73 72 72 73 73 72 72 73 73 73 74 74 74 74 74 74 74 74 75 75 74 73 73 72 72
60 57 53 52 52 56 62 68 65 67 68 69 72 68 74 81 76 75 75 74 75 76 76 76 76 75 71 70 71 71 71 72 72 72 73 73 73 73 73 74 74 74 73 72 73 72 72 72 71
61 60 49 52 54 56 65 67 69 68 68 74 76 68 70 78 76 74 75 74 72 72 75 74 74 74 75 76 69 70 70 71 71 71 71 71 71 72 72 72 73 73 73 72 72 72 71 71 70
60 54 49 53 53 59 64 63 68 71 69 70 73 74 77 80 77 75 75 74 73 71 71 72 73 73 73 75 75 71 71 70 70 72 71 71 79 78 78 75 72 72 71 71 71 71 70 69 69
58 50 51 57 60 61 62 62 64 65 66 67 70 74 76 78 79 76 75 75 73 72 69 71 72 72 72 73 75 76 75 76 77 78 78 79 78 79 78 75 69 70 70 70 69 70 69 70 79
56 52 54 58 60 63 62 61 65 63 61 66 66 72 74 74 75 75 76 76 77 76 74 70 70 71 71 72 74 75 74 73 73 75 77 77 77 76 78 79 77 77 71 78 73 73 77 77 76
52 55 58 59 63 61 60 65 62 63 65 71 73 72 71 72 72 74 75 77 76 75 76 74 70 69 69 73 74 75 73 72 72 76 75 74 72 73 76 78 76 76 77 76 76 75 75 76 76
52 56 59 60 61 61 62 59 60 61 68 71 71 69 69 71 73 75 75 76 77 76 77 73 72 69 69 70 74 74 73 73 73 76 76 75 72 71 72 74 74 75 75 75 74 74 74 75 74
57 56 58 60 60 59 58 60 59 63 69 67 67 68 70 69 73 73 74 75 75 76 77 76 73 70 71 70 72 74 74 74 74 76 76 75 76 71 70 70 71 73 74 74 74 74 73 74 73
58 52 56 57 59 58 60 55 54 65 66 63 65 68 68 68 71 72 74 73 76 77 78 75 76 77 73 72 72 73 75 75 73 73 72 72 72 70 69 69 69 70 71 72 72 72 71 71 70
52 51 46 55 57 59 58 50 60 62 62 64 66 67 66 69 69 73 73 73 75 74 73 74 76 74 73 73 72 72 74 74 74 71 70 70 71 71 68 68 69 68 67 70 70 68 68 68 68
46 43 44 49 57 55 55 50 60 64 63 60 64 65 67 67 70 71 71 70 70 71 71 71 72 74 72 72 73 72 72 73 73 72 70 69 70 70 68 68 69 68 66 66 67 66 67 67 66
41 41 43 44 53 54 51 50 56 60 59 59 62 64 64 65 66 64 64 64 64 65 64 66 69 72 74 72 72 70 71 71 70 69 69 69 69 69 69 69 68 67 65 65 65 64 65 66 66
47 44 43 47 52 48 49 51 54 59 57 58 61 62 61 60 61 62 61 62 61 62 62 62 62 65 71 73 70 67 66 69 68 69 70 69 69 68 69 68 68 66 66 65 65 64 62 62 64
45 42 42 47 51 48 50 49 55 57 57 59 60 57 55 56 59 59 60 59 58 58 59 60 61 63 66 74 75 74 72 69 70 69 69 70 69 68 69 68 67 66 65 65 65 64 62 62 63
44 42 42 43 49 51 47 49 50 56 57 56 55 54 54 53 53 55 55 56 57 57 56 58 60 60 62 65 74 74 69 68 66 66 66 68 70 69 69 68 67 65 65 65 65 65 65 60 62
40 47 47 45 42 39 49 37 49 54 55 52 52 52 51 51 52 53 52 53 54 54 55 56 56 58 61 64 69 71 69 67 69 71 70 67 69 68 69 68 67 66 66 65 65 66 65 64 60
44 49 46 46 43 40 42 40 46 50 51 50 49 50 50 50 49 49 50 51 53 53 52 53 53 55 58 61 64 70 70 73 74 73 71 68 67 69 68 67 67 67 66 65 65 65 64 63 62
51 47 45 43 42 33 42 41 46 48 48 48 49 48 47 47 47 48 49 50 51 52 51 49 49 51 54 57 60 66 70 71 70 71 69 67 66 66 66 66 66 66 65 65 67 64 64 63 62
47 43 35 32 31 32 41 39 46 48 47 48 47 46 46 46 46 46 46 46 47 46 46 46 46 47 51 53 58 65 67 69 70 70 70 66 64 63 65 65 65 65 65 66 67 64 63 63 62
42 42 35 26 28 33 40 35 44 46 49 49 47 46 46 46 45 45 45 45 44 42 42 43 43 44 49 51 54 65 67 66 69 70 71 68 65 65 66 64 66 66 65 66 67 67 65 62 61
41 37 42 34 35 31 38 41 44 47 47 47 44 43 40 41 43 41 43 43 42 39 40 40 41 44 47 50 53 67 67 65 65 68 70 67 66 65 64 64 65 65 64 65 65 62 63 65 62
43 44 33 33 24 25 35 36 39 40 42 44 41 37 38 40 42 40 41 40 41 39 39 40 41 42 45 48 51 61 65 65 65 65 67 67 65 65 62 63 64 63 64 64 63 62 64 60 60
37 35 37 36 33 27 27 34 42 40 39 38 38 37 36 38 39 40 39 39 39 38 38 38 39 41 43 45 49 53 61 63 62 62 63 63 63 62 62 63 62 62 63 65 63 65 59 59 59
39 35 35 28 26 30 29 32 42 41 38 37 36 37 38 38 38 38 38 37 37 36 36 37 38 39 42 44 47 56 60 60 60 60 60 61 61 62 62 62 61 61 61 62 60 59 59 59 60

GFSSGP_sfc_temp_108.txt.gz
Temp
76 88 91 87 73 74 72 73 77 76 77 81 83 80 80 84 80 77 98 93 90 92 89 82 74 75 75 76 76 76 76 77 77 77 77 77 77 76 76 76 77 78 79 79 79 79 79 79 77
87 85 88 85 70 69 75 77 74 79 79 81 82 82 82 79 88 91 95 91 92 93 91 87 73 74 75 75 75 76 76 77 77 77 77 77 76 76 76 76 76 77 78 79 79 79 79 77 76
84 85 81 77 73 69 73 74 76 77 80 80 80 84 82 80 88 90 94 90 90 92 92 89 73 74 74 75 75 75 75 75 76 76 77 77 77 76 76 75 76 77 78 79 79 79 78 75 74
85 84 82 70 70 76 73 75 76 77 81 81 82 78 86 89 86 91 92 90 89 92 92 77 72 73 74 74 75 75 74 74 74 75 76 77 77 77 76 75 76 77 78 79 79 78 76 74 73
86 83 71 68 72 78 76 77 77 75 76 78 81 78 80 88 92 90 88 88 89 90 90 83 71 73 74 74 74 74 74 73 74 75 75 76 76 76 75 75 75 76 77 78 77 76 74 73 73
76 78 66 66 73 77 76 78 77 77 80 80 78 78 82 91 89 88 87 87 88 88 87 85 74 72 73 73 73 73 73 73 73 74 74 75 75 74 74 74 75 75 75 75 75 74 73 73 72
73 71 67 69 70 72 75 78 75 76 77 76 80 74 83 88 89 88 86 85 84 86 85 86 83 78 71 71 71 71 72 72 72 73 73 74 73 73 74 74 74 74 74 73 73 73 73 72 72
76 72 66 67 66 69 77 75 77 76 77 80 83 75 77 85 89 89 87 84 82 83 83 84 82 80 82 81 70 70 71 71 72 72 72 72 72 73 73 73 73 73 73 72 73 72 72 72 71
76 66 64 67 67 69 74 72 78 79 77 79 80 81 84 88 90 89 89 83 82 80 81 80 77 77 78 82 80 72 71 71 71 73 71 72 85 83 81 78 73 72 72 71 71 71 71 70 70
69 65 67 74 73 71 73 73 75 72 76 75 78 84 86 87 87 85 87 87 83 83 78 78 77 77 76 78 82 82 83 83 83 83 83 84 85 86 86 80 71 71 70 70 70 70 69 71 85
69 63 72 69 71 74 72 71 75 70 68 74 74 78 83 83 84 84 85 88 86 87 85 80 77 77 77 76 83 81 79 82 84 84 84 84 86 85 85 86 83 82 73 83 78 79 82 83 85
61 68 69 71 72 71 69 73 69 71 72 78 79 80 81 80 81 84 85 87 87 85 85 83 82 80 78 79 82 85 84 80 77 80 82 84 84 84 85 87 86 82 85 82 83 84 83 83 83
62 67 69 70 69 70 71 68 68 70 76 78 79 78 78 79 82 85 86 88 87 85 86 85 84 81 80 75 84 84 84 81 79 81 83 82 79 79 85 85 86 85 83 82 82 83 82 81 81
66 65 67 68 68 69 65 68 70 70 75 75 76 76 77 78 81 83 85 86 85 87 87 87 84 83 82 80 80 83 83 84 82 82 85 80 84 79 76 82 80 85 84 83 83 82 81 81 80
65 60 65 67 67 67 70 63 65 73 76 73 73 75 77 77 80 80 82 82 84 85 85 83 83 84 81 80 81 83 85 83 84 84 83 83 83 82 75 74 74 80 85 81 80 80 79 79 78
59 62 55 65 65 67 65 57 69 73 72 71 74 76 76 78 79 81 80 80 82 82 80 81 82 82 83 82 83 83 85 84 85 84 84 82 83 83 75 75 73 75 79 80 78 77 75 76 75
59 53 56 59 66 66 63 60 67 72 71 71 73 74 75 76 78 77 76 77 77 78 76 77 77 78 80 82 83 83 82 83 85 85 83 80 80 80 73 73 74 72 72 74 75 73 74 73 72
55 54 57 55 63 62 61 61 67 71 71 70 72 73 74 73 73 72 72 73 74 75 74 74 75 74 76 81 82 83 83 82 84 84 83 79 79 76 72 72 73 70 69 71 71 70 71 71 70
58 54 53 59 64 58 57 60 65 70 70 70 71 72 72 70 71 71 70 71 71 72 71 71 71 72 74 77 80 80 74 77 81 83 81 79 77 73 71 71 70 69 69 69 70 70 68 67 69
54 51 52 58 61 57 58 59 65 69 69 70 71 69 67 67 68 68 69 69 67 68 68 68 69 70 71 74 78 82 81 80 80 81 79 76 75 73 71 71 69 69 70 69 69 67 64 66 68
52 51 52 52 58 60 58 56 62 65 67 68 67 67 65 63 64 65 65 66 67 66 65 65 67 67 68 69 73 76 81 81 79 77 76 74 74 72 70 71 70 69 71 69 69 66 66 62 64
48 58 54 52 51 47 57 47 58 63 62 64 63 63 62 61 62 63 62 63 63 64 64 65 64 65 66 67 68 70 75 77 80 79 79 73 72 74 71 71 71 71 71 69 70 68 70 69 63
51 58 54 54 52 51 52 47 58 61 58 60 61 59 59 59 59 59 60 61 63 62 61 61 61 61 63 62 61 63 68 77 81 80 76 71 70 71 72 72 72 71 70 70 69 67 70 73 70
58 54 53 53 51 40 50 50 55 57 59 59 57 56 56 57 58 59 60 60 61 60 58 57 56 57 58 57 57 58 60 68 76 79 75 70 69 68 69 71 71 72 69 68 68 71 71 69 72
53 49 40 38 38 38 51 49 56 57 56 56 52 55 56 57 56 56 56 56 56 56 54 53 51 50 53 51 52 55 56 64 69 76 76 72 69 66 67 69 69 69 69 71 70 71 71 71 70
50 50 41 31 36 43 48 42 52 55 53 52 51 52 52 53 55 55 54 54 54 53 51 48 44 44 46 47 49 51 53 58 70 72 71 74 72 68 68 68 70 70 70 68 69 70 71 70 69
48 42 49 40 43 38 46 51 51 50 48 50 50 51 50 50 53 53 53 52 50 49 47 41 40 41 43 44 46 49 51 56 69 75 70 70 73 70 68 67 67 68 67 66 68 68 69 68 67
47 51 37 40 29 30 43 45 49 45 46 47 44 46 49 51 51 51 51 50 47 45 43 40 39 39 41 43 45 48 50 56 71 74 70 69 73 71 70 68 65 65 65 65 67 68 69 66 67
44 42 42 43 41 33 33 42 48 42 43 43 47 48 48 49 49 50 50 49 47 45 42 39 37 37 39 42 44 46 53 65 71 69 69 69 70 69 68 67 64 64 64 64 64 65 67 66 66
46 42 44 34 34 38 37 40 50 47 47 47 47 46 48 48 48 48 48 47 44 44 41 36 35 34 38 41 44 46 50 55 62 64 67 67 65 65 64 64 63 63 64 65 65 65 66 66 65

GFSSGP_sfc_temp_111.txt.gz
Temp
78 89 96 91 76 78 76 81 86 83 82 87 88 85 85 88 84 78 103 97 97 99 91 83 74 75 76 76 76 76 77 77 77 77 77 77 77 76 76 76 77 78 79 80 79 79 79 79 78
93 93 92 86 73 72 78 86 80 85 86 86 87 87 86 83 92 93 97 97 97 99 94 88 74 75 75 75 75 76 77 77 77 77 77 77 77 76 76 76 76 77 79 79 79 80 79 78 76
88 92 84 81 76 72 77 82 83 84 85 86 84 89 88 84 91 92 98 97 94 97 96 91 74 74 75 75 75 75 76 76 76 76 77 77 77 77 76 76 76 77 78 79 80 80 78 76 75
89 88 86 74 73 81 82 84 83 83 86 87 87 83 90 92 90 94 96 96 93 96 97 76 72 73 74 75 75 75 75 75 75 76 76 77 77 77 76 75 76 77 78 79 79 79 76 74 74
90 87 74 74 76 83 88 85 85 81 84 84 87 82 85 93 96 95 94 94 92 94 95 84 72 73 74 75 75 74 74 74 75 75 75 76 76 76 75 75 76 76 77 77 78 77 75 74 73
80 83 71 70 77 85 87 86 84 83 85 86 84 83 86 95 93 92 94 92 92 93 93 87 74 73 73 74 74 73 73 73 74 74 75 75 75 75 75 75 75 75 75 76 76 75 74 74 73
75 77 71 74 75 79 84 87 81 82 83 84 87 78 87 92 93 94 93 89 89 91 90 89 83 78 72 72 72 72 72 73 73 73 74 74 74 74 74 74 75 75 75 75 74 74 73 73 73
79 77 71 74 73 75 84 82 84 82 82 87 87 78 82 90 93 94 96 90 88 88 88 88 85 82 81 80 71 71 72 72 72 73 72 72 72 73 73 73 73 75 74 74 73 73 73 72 72
81 68 66 72 75 77 84 77 86 86 81 85 86 86 89 92 93 92 92 92 87 85 87 87 84 81 83 84 79 72 72 72 72 73 72 72 84 83 81 78 74 73 72 72 72 72 71 71 71
72 68 70 80 79 77 81 80 81 80 79 79 82 87 89 91 90 88 89 90 90 86 85 83 78 77 80 87 84 82 83 83 82 83 82 83 85 87 86 81 72 72 71 71 71 71 70 70 84
74 66 76 78 80 78 76 77 82 77 73 78 77 82 86 87 86 87 88 90 92 92 88 85 80 77 78 81 87 86 86 85 84 84 84 84 86 87 87 86 83 81 73 82 78 77 80 82 84
68 75 75 77 79 77 74 79 75 77 77 83 83 83 84 83 83 86 88 90 90 90 90 86 86 83 81 85 86 88 87 83 87 86 84 85 85 86 84 88 84 81 83 82 84 84 80 80 84
71 74 75 77 77 75 77 73 73 75 81 83 83 81 80 81 83 86 89 90 91 88 89 87 87 84 84 84 87 87 87 86 84 84 86 86 87 86 87 87 89 86 82 83 84 82 81 79 80
74 74 73 75 75 75 71 72 74 76 80 79 79 79 79 79 81 84 87 87 88 89 89 89 88 86 86 84 83 87 87 88 86 83 84 84 87 86 86 87 87 89 86 81 84 83 82 78 78
72 65 69 72 74 72 75 67 68 78 81 78 78 80 80 80 81 83 85 85 86 87 88 85 84 86 85 84 84 84 88 87 87 86 84 86 84 84 81 82 86 88 89 83 79 80 83 81 80
64 65 59 72 75 74 72 60 75 79 77 76 78 79 80 82 83 85 84 83 84 85 83 83 84 83 84 84 84 85 86 87 87 88 87 84 86 85 84 78 81 85 86 86 82 83 80 77 78
63 56 61 68 75 70 68 63 75 77 75 74 77 79 80 81 83 83 81 81 81 82 79 79 79 79 80 81 83 85 85 86 88 88 88 86 85 86 85 80 78 77 78 84 81 79 79 77 79
58 61 65 63 71 71 65 66 72 76 75 73 76 78 79 80 81 80 78 78 78 78 77 77 77 76 77 78 80 85 86 87 87 87 88 85 86 85 84 83 79 77 75 76 81 76 75 78 79
62 60 60 66 72 66 64 65 69 74 75 74 75 76 77 79 79 77 76 76 75 75 75 74 73 74 75 76 78 81 82 84 86 87 86 86 85 83 82 82 77 76 72 75 72 73 70 69 77
61 57 57 64 68 65 63 63 69 73 74 75 75 76 77 75 75 73 73 73 72 72 72 71 72 73 73 74 76 77 79 84 86 86 86 86 84 81 80 79 76 76 72 72 70 69 67 68 72
59 56 56 57 64 67 62 59 64 72 75 76 77 76 74 71 70 70 69 70 70 70 69 69 70 71 71 71 73 75 77 78 80 84 84 85 84 82 78 75 76 77 73 71 70 69 68 67 67
52 63 60 57 55 49 65 49 64 67 67 69 70 70 69 67 68 68 68 68 68 68 68 68 68 68 69 69 69 68 68 71 80 84 85 84 83 80 77 76 73 77 73 71 70 70 70 72 64
54 62 59 58 54 54 56 52 59 68 65 65 67 66 65 65 65 66 66 67 68 68 66 65 64 65 65 64 64 64 64 68 73 78 81 82 81 79 73 73 74 74 74 73 72 69 70 71 70
63 57 56 56 53 42 52 53 56 62 65 66 62 62 62 63 65 65 66 66 66 66 63 62 60 60 60 59 58 56 56 59 64 69 74 81 82 79 73 72 70 73 73 71 72 72 71 72 72
56 50 39 37 38 38 56 53 56 62 63 65 60 61 61 62 63 63 63 63 62 61 60 59 57 54 55 54 54 53 53 54 56 62 70 73 77 75 72 69 69 69 71 72 74 72 68 72 72
51 48 37 26 32 39 54 45 51 59 60 60 61 60 60 60 61 61 61 61 60 58 57 55 53 50 51 50 50 49 48 51 55 60 66 72 77 78 75 68 68 70 70 72 72 73 69 69 70
51 43 53 41 44 40 47 52 55 54 55 55 55 57 58 59 60 59 60 59 58 56 54 51 48 47 47 46 46 45 46 48 50 54 61 69 75 76 74 69 67 68 68 69 70 71 71 69 68
51 53 39 43 30 31 42 44 47 45 45 50 51 53 55 57 58 58 58 57 56 54 53 49 46 44 44 44 41 43 44 47 49 52 55 65 75 76 74 72 68 66 67 67 68 69 70 70 68
46 43 44 45 41 31 31 40 51 45 49 50 52 53 54 56 56 56 56 55 54 51 50 47 42 42 40 39 39 41 44 47 50 55 58 67 72 74 72 69 67 66 66 66 66 68 68 67 66
50 46 46 36 34 41 40 40 54 52 53 52 51 52 54 55 55 55 54 53 50 47 45 42 40 38 36 36 37 40 44 45 48 51 62 68 71 73 72 69 67 66 65 65 66 68 69 66 66

GFSSGP_sfc_temp_117.txt.gz
Temp
65 71 67 67 55 51 47 58 64 65 67 72 76 76 71 72 72 61 81 85 82 77 76 76 74 75 75 76 76 76 76 76 76 76 76 76 76 76 76 76 76 77 78 79 79 79 79 78 77
67 75 69 62 50 42 50 67 63 68 74 78 80 78 75 73 82 80 78 85 83 80 76 75 74 74 75 75 75 75 76 76 76 76 76 76 76 76 76 76 76 77 78 79 79 79 79 77 76
70 75 60 55 49 46 51 66 68 73 78 77 75 79 77 74 81 81 82 86 85 80 79 76 73 74 74 75 75 75 75 75 75 75 76 76 76 76 76 75 76 77 78 79 79 79 78 76 74
70 66 63 51 50 58 63 71 72 74 75 78 74 72 79 82 82 82 85 87 85 81 81 73 72 73 74 74 74 74 74 74 74 74 76 76 76 76 76 75 76 77 78 78 78 78 76 74 73
67 61 50 47 53 63 72 75 74 73 75 77 76 71 74 81 84 84 83 85 81 78 75 74 71 72 74 74 74 74 74 73 74 74 74 75 76 76 75 74 75 76 77 77 77 76 75 73 73
59 60 47 45 55 65 70 73 75 75 76 76 72 74 74 79 81 81 81 81 79 76 74 74 73 73 73 73 73 73 73 73 73 74 74 75 74 74 74 74 74 75 75 75 75 75 74 73 73
54 51 47 51 58 62 71 76 73 72 72 73 77 70 72 77 80 81 79 79 79 76 74 72 72 73 72 72 71 71 72 72 73 73 73 73 73 73 73 74 74 74 74 74 74 73 73 73 72
59 54 49 52 55 59 73 75 73 72 68 81 77 69 68 75 81 79 79 77 77 75 74 72 71 70 70 70 70 71 71 72 72 72 72 72 72 72 73 73 73 74 74 73 73 72 72 72 71
62 48 46 50 56 63 73 67 73 75 73 74 75 73 79 82 82 77 75 74 74 76 74 73 71 71 70 70 71 71 72 71 71 72 71 70 72 72 72 72 72 73 72 72 72 71 71 70 70
56 47 51 62 65 66 70 64 69 68 69 70 72 78 80 82 76 74 73 73 72 73 74 73 72 72 71 75 70 69 71 70 70 71 71 71 71 71 74 72 71 71 71 71 71 70 70 69 68
57 54 61 66 70 69 64 67 70 67 63 69 68 71 75 74 72 72 72 73 73 74 74 72 73 73 72 74 70 70 69 68 69 70 70 71 73 72 72 72 72 70 71 70 69 69 69 68 68
55 64 66 67 70 69 67 66 65 66 67 72 72 74 72 72 69 70 72 74 72 72 73 72 72 72 72 75 72 72 72 70 70 70 70 70 69 70 72 72 71 70 70 69 69 68 68 68 70
59 62 66 68 68 67 68 64 65 67 70 73 74 74 71 69 67 68 71 74 75 71 72 71 71 70 72 73 73 72 71 73 73 72 73 72 71 70 70 72 72 72 70 70 68 69 69 69 70
63 65 65 67 67 67 65 66 64 68 70 70 72 70 70 70 70 66 69 70 70 71 69 70 70 71 71 69 70 69 70 72 74 74 74 74 72 71 71 71 71 72 72 71 71 70 70 71 69
63 55 60 61 62 63 67 61 62 70 70 71 71 69 70 70 70 70 70 65 67 67 69 69 68 69 67 68 68 69 69 72 70 70 73 75 75 71 73 70 70 72 74 71 71 69 69 68 69
55 54 47 58 63 66 61 53 62 68 67 67 68 69 68 69 70 69 68 66 64 66 67 67 70 67 66 66 65 68 69 69 69 72 73 73 75 74 70 72 72 70 73 73 71 71 67 68 67
48 39 46 52 63 63 59 57 67 69 68 65 65 60 65 67 68 66 65 65 65 65 64 65 65 65 65 65 64 64 65 63 69 69 72 74 74 74 74 70 70 70 68 70 72 69 67 65 65
41 43 46 48 55 61 58 57 63 66 65 64 63 64 65 64 63 67 66 66 64 63 64 64 65 64 64 64 64 65 65 65 67 70 68 70 73 74 72 74 72 69 68 67 68 69 66 67 66
52 50 48 54 60 57 55 57 60 64 62 61 59 61 63 62 65 65 64 63 62 61 62 61 61 60 61 61 59 61 60 63 64 63 65 67 70 74 74 70 68 68 71 71 66 65 67 64 65
52 49 48 54 59 58 55 54 59 63 62 63 62 61 63 61 63 63 61 59 58 58 58 59 59 59 59 59 59 59 59 59 63 64 64 64 65 70 70 71 70 70 67 66 67 65 62 64 66
52 49 49 49 54 54 51 47 52 61 66 67 67 68 64 63 61 61 60 56 56 55 54 56 56 56 56 56 56 56 57 58 58 60 62 63 64 66 68 71 72 69 68 66 67 66 64 64 63
46 56 56 52 44 36 46 32 47 55 58 63 65 59 60 59 59 59 57 55 54 52 54 54 55 54 56 53 52 50 49 49 53 54 56 57 60 62 64 66 70 70 70 67 66 67 67 65 63
49 55 51 51 45 41 43 33 43 53 52 57 55 56 56 57 56 55 55 54 53 52 51 50 51 52 51 50 49 48 47 49 51 52 52 53 56 58 61 62 64 69 68 67 67 65 66 65 64
57 51 47 45 40 29 40 37 39 44 52 50 52 55 56 56 55 55 55 54 51 50 49 47 48 48 48 47 47 45 44 45 46 47 47 49 52 54 57 60 61 65 69 67 66 65 65 68 68
48 40 29 25 26 28 45 40 42 45 48 50 50 52 53 54 53 52 51 49 49 46 45 47 45 44 44 44 44 45 45 45 45 46 47 47 48 50 52 55 58 61 67 69 68 65 65 66 67
45 41 27 23 24 28 42 32 34 43 46 45 52 54 54 52 52 51 48 47 46 45 42 41 41 41 41 41 40 42 43 43 44 44 46 47 48 49 51 52 54 57 60 67 68 67 66 67 66
44 37 46 33 34 28 32 37 40 42 43 43 43 45 46 47 48 49 47 46 44 43 41 39 39 39 39 38 38 38 40 41 41 43 45 45 47 49 50 50 52 55 58 63 67 66 66 66 66
47 50 34 31 23 23 31 35 33 38 39 42 43 45 48 48 47 48 45 44 43 42 41 40 38 37 37 36 36 38 38 40 41 42 42 45 47 48 49 49 50 52 56 61 65 64 66 66 66
42 39 41 38 31 23 22 29 43 40 41 44 45 48 45 44 44 44 44 43 41 40 39 38 37 36 35 35 36 37 38 39 40 40 41 43 45 46 48 50 51 52 54 59 65 64 66 66 66
45 43 42 28 28 30 28 28 47 46 47 47 47 47 44 44 43 42 41 40 38 37 37 36 35 34 35 36 36 37 38 38 38 38 40 42 42 44 46 50 53 53 54 58 64 64 67 65 65

GFSSGP_sfc_temp_120.txt.gz
Temp
63 66 65 65 54 48 43 53 60 62 62 69 73 73 70 68 68 59 78 80 77 74 75 75 74 75 75 75 75 75 75 76 76 76 76 76 76 76 76 76 76 77 78 79 79 79 79 78 76
64 72 66 57 47 41 46 57 62 64 71 74 75 73 71 69 76 77 76 80 78 76 74 74 73 74 75 75 75 75 76 76 76 76 76 76 76 76 76 75 75 77 78 78 79 79 78 76 75
68 71 59 52 43 43 48 59 66 71 75 73 71 75 74 71 77 77 80 80 78 76 76 75 73 73 74 74 74 74 75 75 75 75 76 76 76 76 76 75 75 77 78 79 79 79 77 75 73
67 62 59 49 45 53 54 64 70 69 72 74 69 70 75 78 77 79 81 80 77 76 77 72 72 73 74 74 74 74 74 73 74 74 75 76 76 76 75 75 75 77 77 78 78 77 75 73 72
62 56 48 43 48 55 64 68 68 69 70 73 71 69 70 77 79 79 79 80 76 75 74 73 71 72 73 74 74 74 73 73 73 74 74 75 75 75 75 74 75 76 76 77 76 75 74 73 72
57 55 44 42 49 58 64 69 70 71 71 72 69 70 67 76 77 76 79 76 76 73 73 73 73 72 72 73 73 72 72 72 73 73 73 75 74 74 74 74 74 75 75 74 74 73 73 73 73
53 49 43 44 50 56 64 71 70 69 68 70 75 65 68 74 77 76 77 74 73 73 71 71 71 72 71 71 71 71 71 72 72 72 72 73 73 72 73 74 74 74 73 73 73 72 72 72 72
56 52 43 45 49 53 65 70 70 69 66 78 73 66 63 74 78 74 75 74 72 71 71 70 70 71 70 71 70 70 70 71 71 71 71 71 71 72 72 72 73 73 73 73 73 72 72 71 71
57 46 41 47 51 57 66 61 69 71 68 71 74 70 75 77 75 73 68 71 72 71 70 69 69 70 70 70 71 71 71 71 70 71 71 70 71 72 72 71 71 72 71 71 72 71 70 70 70
53 43 48 57 59 60 65 58 63 63 65 67 69 75 76 73 71 70 69 68 70 71 70 70 69 69 69 72 70 70 71 71 71 71 71 72 70 71 72 71 70 70 70 70 70 70 69 69 68
51 48 55 61 65 64 63 63 66 63 60 66 66 68 73 72 68 68 69 69 69 70 70 71 70 69 69 70 68 68 69 69 70 70 72 72 71 70 70 70 70 70 70 70 70 69 69 68 67
50 58 59 61 64 61 60 64 63 62 65 70 70 70 69 71 69 69 68 69 70 66 70 71 71 70 69 70 68 69 68 68 68 69 70 70 70 69 69 70 69 69 70 68 69 68 68 68 68
55 57 61 63 63 62 64 60 61 63 69 68 69 70 68 67 68 69 70 69 67 65 66 67 69 68 70 70 69 68 68 69 68 68 70 70 70 69 70 70 69 70 69 69 68 68 68 68 68
59 59 59 61 61 62 61 61 60 64 68 68 68 66 67 66 67 66 68 64 64 66 65 66 65 66 69 68 69 69 69 68 68 70 71 71 72 71 70 70 70 69 69 70 69 68 68 68 68
60 52 56 55 57 57 63 56 58 66 67 66 68 68 67 67 67 67 67 62 63 62 65 65 65 64 63 65 65 66 68 69 68 70 71 72 72 71 72 71 69 71 70 69 69 68 68 67 67
52 50 41 55 58 61 57 50 60 66 64 64 65 65 66 65 67 64 63 62 59 61 62 62 65 62 62 61 61 62 63 64 65 67 69 70 72 72 71 70 71 70 71 70 69 68 67 67 66
44 37 41 47 59 56 53 52 57 65 63 63 60 62 62 62 59 61 60 59 59 59 60 60 59 59 59 59 59 59 60 60 61 63 66 69 68 70 68 68 70 67 70 69 69 68 68 66 65
37 38 37 41 50 55 51 53 61 60 61 61 59 60 62 58 59 61 59 59 58 58 59 59 59 58 57 57 58 58 58 60 60 61 63 65 67 68 70 69 69 66 66 68 68 69 67 67 67
46 44 43 48 54 52 51 52 56 59 56 56 58 57 55 58 61 59 59 57 57 57 56 56 55 55 55 55 53 53 53 56 57 59 61 62 62 64 64 68 69 68 67 67 67 67 64 63 64
47 44 44 50 55 53 50 47 51 54 55 56 60 61 57 58 57 57 55 54 53 53 54 54 54 52 52 53 52 51 51 52 56 56 56 58 57 58 61 61 64 68 68 68 65 67 63 65 64
47 45 45 46 51 48 45 44 46 56 58 61 63 62 60 57 55 54 52 50 51 50 51 51 51 50 49 50 50 50 51 51 51 51 53 54 55 56 57 59 61 63 66 67 66 66 66 63 62
42 51 51 47 42 34 45 33 44 52 53 54 52 53 54 54 53 52 50 48 48 47 48 49 49 48 49 48 46 44 43 43 46 48 50 51 53 53 55 56 57 58 61 64 66 66 65 65 62
46 53 49 46 39 35 41 33 41 49 49 47 48 50 49 50 49 48 48 47 47 47 45 46 47 46 45 44 44 42 41 43 44 46 46 47 49 51 53 53 55 56 58 61 64 63 64 64 63
55 50 45 42 37 27 39 35 35 36 41 45 48 49 49 49 50 49 50 48 45 45 44 43 43 42 43 42 41 40 39 40 41 41 42 44 46 48 49 51 51 54 56 59 62 65 64 63 63
47 38 28 25 25 26 40 35 32 40 42 43 42 44 48 49 47 46 45 45 44 42 39 42 40 39 40 39 38 38 38 39 40 42 43 44 44 45 46 47 48 49 52 56 58 62 64 63 63
42 41 28 22 23 26 39 29 33 41 42 44 44 44 44 45 45 43 43 42 43 41 39 38 37 37 37 37 36 37 37 37 39 42 43 43 44 44 46 46 47 48 49 51 54 57 63 64 63
41 34 42 34 31 26 30 33 39 43 40 39 39 41 41 41 42 42 42 41 40 39 38 37 35 35 36 35 36 36 37 38 39 40 42 42 44 46 47 48 48 49 49 50 52 54 58 64 64
45 46 31 30 23 21 28 30 29 37 36 40 38 39 40 41 41 40 39 39 38 38 36 35 35 35 35 36 36 37 37 39 40 40 39 41 42 44 44 45 46 47 49 50 51 52 57 62 63
39 36 37 36 32 23 21 26 40 39 40 40 41 43 41 40 39 39 38 38 37 36 35 34 34 35 35 35 36 37 37 38 39 38 39 40 41 42 42 43 44 46 47 50 51 52 54 59 62
42 39 40 28 26 28 25 28 44 41 43 46 41 40 38 38 36 36 36 35 34 34 33 33 34 34 35 36 37 36 37 37 36 36 37 38 38 40 40 42 43 46 47 50 51 52 54 57 61

GFSSGP_sfc_temp_123.txt.gz
Temp
62 63 63 63 54 47 42 50 55 61 64 66 69 68 67 65 65 58 75 77 75 74 74 74 73 74 75 75 75 75 76 76 76 76 76 76 76 76 76 76 76 77 78 79 78 78 78 77 75
63 69 64 55 47 41 47 53 56 60 68 71 71 69 67 65 73 73 74 77 75 74 73 73 73 74 74 74 74 75 76 76 76 76 76 76 76 76 76 75 75 76 78 78 79 79 78 76 74
65 68 59 49 41 42 46 55 60 69 70 68 68 71 69 67 73 74 76 77 75 74 74 74 73 73 74 74 74 74 75 75 75 75 76 76 76 76 76 75 75 76 77 78 79 78 76 74 73
65 62 56 48 42 50 53 61 64 64 71 70 66 67 71 74 74 76 78 77 74 73 74 72 72 73 74 74 74 74 74 73 74 74 75 76 76 76 75 74 75 77 77 78 78 77 75 73 72
60 55 47 41 44 51 58 64 64 65 68 71 69 64 66 75 77 76 76 77 73 72 72 72 71 72 73 74 74 74 73 73 73 74 74 75 76 75 75 74 75 75 76 77 76 75 73 73 72
56 52 43 41 45 54 61 64 66 66 68 70 69 65 65 74 74 74 75 74 74 72 71 72 72 72 72 73 73 72 72 72 73 73 74 74 74 74 74 74 74 74 74 74 74 73 73 72 72
52 48 41 41 47 51 60 67 64 64 65 67 70 62 67 72 75 75 74 72 72 71 70 70 71 72 71 71 71 71 71 71 72 72 72 73 73 72 73 73 74 74 73 73 73 72 72 72 72
53 50 41 43 47 49 61 65 66 65 64 73 69 62 61 72 73 71 70 69 68 69 69 69 69 70 70 70 70 70 70 70 71 71 71 71 71 72 72 72 73 73 73 73 73 72 71 71 71
55 45 40 45 48 54 62 59 65 69 64 68 68 66 72 74 72 69 66 68 68 69 68 68 68 68 69 69 70 70 71 70 70 71 70 69 71 71 71 71 71 72 71 71 72 71 70 69 69
51 41 46 53 55 57 60 55 60 61 63 64 66 70 71 71 69 67 67 67 67 68 68 68 68 68 68 71 69 69 70 70 70 70 70 71 70 69 71 70 69 70 70 70 70 70 69 69 67
47 45 51 57 61 59 56 57 60 59 58 64 65 68 69 68 69 68 68 68 68 68 69 68 68 67 67 68 68 68 70 71 71 71 71 73 72 70 70 69 69 69 69 70 69 69 69 68 67
46 54 55 57 60 57 57 59 58 60 64 67 68 68 66 68 67 66 67 69 64 66 68 68 68 68 67 68 67 67 68 68 70 71 71 71 70 70 71 71 69 68 69 70 69 69 69 68 67
51 53 57 59 59 57 59 56 58 61 68 65 66 66 64 64 65 66 67 63 60 60 63 68 69 67 67 67 67 67 68 68 68 68 70 71 70 70 71 70 69 68 68 68 69 69 69 69 67
55 55 55 58 59 59 58 56 55 62 65 64 65 64 64 63 65 62 65 58 60 61 62 65 64 67 69 67 67 67 68 68 67 68 68 70 69 68 68 69 68 68 68 68 68 69 69 69 67
57 50 53 55 58 55 57 52 55 62 62 61 62 65 64 64 65 64 61 59 59 60 62 62 61 61 60 61 62 62 66 67 67 68 69 69 69 69 68 68 68 68 68 68 68 67 68 67 67
50 47 41 53 58 58 51 44 57 62 63 59 61 61 62 63 64 60 58 57 55 58 58 58 62 59 58 57 57 59 59 60 63 64 66 67 69 69 68 67 68 69 66 67 67 68 67 67 66
42 34 39 46 57 54 49 47 55 61 60 60 59 58 60 58 56 55 56 55 54 54 55 55 56 55 55 55 55 55 56 56 58 59 62 64 65 66 65 65 67 66 66 66 66 66 67 66 66
37 37 33 40 50 53 50 50 56 57 54 55 54 56 55 53 53 56 55 55 54 53 54 54 53 53 53 52 53 53 53 54 55 56 57 60 60 62 64 63 63 65 66 65 65 66 66 66 66
42 39 38 42 50 47 47 49 53 52 52 51 51 54 51 52 54 53 53 52 52 52 52 51 50 50 51 50 48 48 47 50 51 53 55 56 55 57 58 60 61 64 64 64 66 66 65 64 63
43 40 39 44 50 48 46 46 48 49 52 53 54 52 51 51 50 51 50 49 48 48 49 48 48 47 48 48 46 47 46 48 50 50 51 52 52 55 56 56 59 60 61 64 66 65 64 63 63
42 40 41 42 47 47 44 42 45 52 55 54 52 54 53 50 47 48 48 46 45 44 44 46 45 46 45 46 46 46 46 47 47 46 47 49 50 51 51 53 54 55 58 59 61 64 63 62 62
38 48 47 44 39 33 42 32 45 47 45 46 45 44 44 44 45 45 44 43 44 44 45 44 45 44 45 44 42 40 39 39 42 43 45 46 48 49 50 51 51 52 54 55 58 62 63 62 60
42 49 46 45 37 34 37 30 37 42 40 40 42 44 43 44 44 42 42 42 43 43 42 42 42 42 42 41 40 39 37 39 41 42 42 43 45 47 48 48 48 49 51 53 55 57 61 64 63
51 45 42 39 37 28 37 35 30 36 41 41 42 44 46 45 45 45 46 46 43 42 41 42 40 40 39 38 37 36 35 35 36 38 39 41 44 45 46 46 46 46 48 49 52 55 57 62 64
44 38 30 24 24 25 38 32 32 39 41 40 39 39 42 44 43 42 41 41 41 40 39 40 38 37 37 36 36 35 35 35 36 37 38 39 42 44 44 44 44 45 47 48 48 49 51 54 61
39 38 26 22 23 25 36 28 32 42 43 42 43 42 42 41 41 39 38 38 37 38 38 36 36 35 36 37 37 38 38 38 39 40 39 40 41 43 45 45 46 47 48 49 50 49 50 52 55
39 33 39 31 30 26 29 33 39 41 40 40 40 42 41 41 40 39 38 37 36 36 36 34 34 35 36 36 37 37 38 38 38 40 40 40 42 43 44 44 44 45 46 47 48 48 48 51 53
43 44 30 28 22 21 26 28 27 36 38 40 41 41 41 41 39 38 37 37 37 35 36 36 35 35 36 37 37 37 37 38 39 39 38 39 40 41 41 42 42 43 44 46 47 48 49 49 51
37 35 35 33 28 22 21 26 38 39 41 41 41 40 38 37 36 36 36 36 36 35 33 34 35 35 35 35 36 37 37 37 37 36 37 37 38 38 39 40 41 41 42 45 46 47 49 49 51
40 37 36 27 27 27 25 27 43 41 42 44 40 38 35 34 32 32 32 33 34 32 34 33 34 33 34 35 34 35 36 36 36 35 36 36 36 37 37 38 39 40 42 43 44 45 49 50 51

GFSSGP_sfc_temp_126.txt.gz
Temp
60 61 62 62 54 47 41 48 51 58 61 62 66 65 62 62 64 58 74 75 74 71 73 73 73 74 75 75 75 75 76 76 76 76 76 76 76 76 76 76 76 77 78 79 78 78 78 77 76
62 66 63 54 47 42 46 51 53 59 65 68 68 66 65 63 70 71 72 74 74 73 72 72 73 74 74 74 74 75 76 76 76 76 76 76 76 76 76 75 75 76 78 79 79 79 78 76 75
64 66 58 48 40 42 45 52 59 64 65 65 65 68 67 65 72 72 74 74 73 72 72 72 73 73 74 74 74 74 75 75 75 75 76 76 76 76 76 75 75 76 77 78 79 79 76 74 73
64 61 55 48 41 48 49 57 60 62 67 68 63 64 68 72 71 74 75 74 72 71 72 71 72 73 74 74 74 74 74 73 74 75 76 76 76 76 75 74 75 76 77 78 78 77 75 73 72
58 54 46 41 41 50 56 60 61 62 63 67 65 62 64 72 75 74 74 74 71 70 71 71 71 72 73 74 74 73 73 73 73 74 75 75 76 75 75 74 75 76 76 77 76 75 73 72 72
55 52 43 39 43 53 58 59 62 62 64 66 64 62 63 73 73 73 72 72 73 70 70 71 72 72 72 73 73 72 72 72 73 73 74 75 74 74 74 74 74 74 74 74 74 73 73 72 72
51 47 42 39 44 51 57 63 60 61 61 64 66 61 65 70 74 73 71 71 69 69 69 69 70 72 71 70 71 71 71 72 72 72 72 73 72 72 73 73 74 74 73 73 73 72 72 72 72
52 49 40 42 46 49 58 63 61 62 60 70 66 61 61 69 71 71 71 69 67 68 68 68 68 69 69 70 69 70 70 70 71 71 71 71 71 72 72 72 73 73 73 73 73 71 71 71 71
52 44 40 43 47 51 59 56 61 65 62 63 66 63 71 72 71 66 65 67 67 69 68 67 68 68 68 69 70 70 70 70 70 70 70 68 70 70 71 71 71 72 71 71 71 71 70 70 69
49 41 44 50 51 52 57 50 57 59 59 61 62 67 71 73 69 67 66 66 66 67 68 67 67 67 67 69 69 69 70 71 69 69 69 69 71 68 70 70 69 70 69 70 70 70 69 69 68
44 44 48 53 56 52 49 54 57 56 55 60 62 65 65 68 67 66 66 67 66 66 68 68 67 66 67 67 67 70 71 71 71 70 69 70 72 71 70 68 68 68 69 69 69 69 68 68 67
44 51 51 54 56 54 53 52 54 58 62 64 65 65 63 64 63 64 65 66 62 65 67 67 67 66 66 66 67 68 69 69 69 70 71 71 70 69 71 71 71 68 68 70 70 70 70 69 67
48 50 54 56 56 55 57 54 54 57 63 63 63 63 62 62 62 63 64 60 62 62 62 65 66 67 66 66 65 65 66 68 69 68 69 69 68 68 70 70 71 70 68 70 70 70 69 69 69
51 51 51 54 56 55 53 53 55 60 62 64 62 61 62 61 63 61 59 59 57 59 60 60 62 68 69 68 67 66 65 66 66 66 68 69 69 69 69 69 69 69 67 68 69 70 69 69 69
53 47 49 52 51 52 52 49 52 59 61 60 60 61 61 60 56 57 59 56 56 57 58 58 59 62 62 62 61 62 65 66 65 66 65 67 69 67 68 67 68 67 67 67 67 68 69 68 69
46 43 38 50 53 53 53 40 55 59 60 60 60 60 59 53 52 52 52 52 52 53 53 55 57 55 55 55 55 56 57 58 60 62 63 64 65 66 66 66 66 66 67 67 67 67 67 67 66
39 33 36 44 52 51 50 43 53 58 56 57 55 55 53 50 51 51 52 51 51 51 51 51 51 51 52 53 54 53 54 54 55 56 56 58 59 59 62 65 66 66 65 66 67 67 67 66 66
35 35 33 36 46 49 45 46 51 55 53 54 53 52 48 47 47 49 49 50 49 49 49 49 49 48 49 51 51 51 51 52 53 52 53 53 54 56 56 60 62 62 62 63 64 65 66 66 67
42 38 36 39 47 43 44 44 47 50 50 50 51 49 45 45 48 48 47 46 46 47 46 46 46 45 46 46 45 46 45 48 49 49 51 51 51 52 52 53 56 59 60 61 62 63 64 64 65
41 37 36 42 47 45 43 43 47 48 47 44 45 45 44 44 44 45 45 44 43 43 44 44 44 44 43 43 44 43 44 46 47 47 48 48 48 49 51 50 52 55 56 58 62 61 61 61 63
40 38 38 39 44 43 41 38 41 44 45 45 43 43 42 41 40 42 43 41 41 41 41 42 42 42 42 41 42 42 44 44 44 43 44 45 47 48 48 49 50 51 52 54 56 58 61 61 62
35 45 44 42 37 30 40 29 37 38 39 40 40 39 39 41 44 43 43 42 40 39 41 41 43 42 42 40 38 37 36 36 39 40 42 43 45 46 47 47 48 48 49 51 53 57 58 60 59
41 48 44 42 36 31 34 28 31 39 35 36 38 40 42 44 44 43 43 44 43 42 41 40 40 40 39 39 37 35 34 35 38 38 39 41 43 44 45 46 45 45 46 47 49 50 53 57 58
49 43 40 36 34 26 34 32 29 33 37 37 39 41 42 44 44 44 44 44 42 42 41 41 39 38 38 38 38 37 36 36 36 38 39 41 42 42 44 44 43 44 45 45 47 48 48 51 55
43 36 26 22 23 25 35 30 36 37 41 39 39 40 43 43 42 41 40 39 39 37 37 38 37 36 38 38 38 38 38 38 37 38 39 39 40 41 43 44 44 45 47 48 48 48 48 48 48
37 36 27 21 22 24 33 27 32 41 42 43 44 43 41 39 40 40 39 37 36 36 37 36 35 35 36 37 37 39 39 38 38 39 39 39 40 41 43 44 44 44 46 46 47 47 48 48 48
38 33 38 30 30 26 28 32 38 42 40 41 42 42 41 42 40 37 37 36 34 34 34 33 34 35 35 36 36 37 38 38 37 38 39 39 40 41 42 41 42 43 43 44 45 46 47 48 48
41 42 29 27 22 21 25 27 28 35 37 40 39 40 44 42 38 35 35 35 35 34 34 35 35 35 35 36 35 37 37 38 38 38 37 37 38 39 39 39 40 41 42 43 43 44 46 47 48
36 34 33 33 29 23 21 27 36 38 39 39 40 41 42 38 32 31 32 33 33 33 35 35 35 34 34 34 35 35 35 36 37 36 35 35 36 37 37 38 39 40 40 42 42 44 45 45 47
40 39 39 29 26 27 25 28 41 39 41 43 42 35 34 31 29 30 30 31 31 33 34 33 33 33 33 34 34 33 34 35 34 34 34 34 34 35 35 37 37 38 38 39 40 40 42 43 45